ftp/pub/palmer/observations_modified/2019/August/AR190816_BASE.txt

Download

Sample DateTime	Unit Id	WS Avg 2min	WD Avg 2min	WGS 10min	WGD 10min	Air Temp	Rel Humidity	Dew Point	Pyranometer	Quantum	Air Pressure	Snow Level	Rainfall	PW Current	Visibility	CBase 1	CBase 2	CBase 3	Vert Vis
2019/08/16  00:00:04  BASE  5.28024  326  7.07952  327  -10.4 100   -10.4 0     0     993.2    NA       0.0000   9999     720   0     0    
2019/08/16  00:01:04  BASE  5.70948  332  7.07952  327  -10.4 100   -10.4 0     0     993.1    NA       0.0000   9999     690   0     0    
2019/08/16  00:02:04  BASE  6.31512  333  7.07952  327  -10.4 100   -10.4 0     0     993.0    NA       0.0000   9999     750   0     0    
2019/08/16  00:03:05  BASE  6.31512  333  7.07952  327  -10.5 100   -10.5 0     0     993.0    NA       0.0000   9999     790   0     0    
2019/08/16  00:04:01  BASE  5.96232  334  7.07952  327  -10.5 100   -10.5 0     0     993.0    NA       0.0000   9999     790   0     0    
2019/08/16  00:05:04  BASE  5.7624   336  7.07952  327  -10.5 100   -10.5 0     0     992.9    NA       0.0000   9999     750   0     0    
2019/08/16  00:06:04  BASE  5.86236  336  7.07952  327  -10.5 100   -10.5 0     0     992.9    NA       0.0000   9999     750   0     0    
2019/08/16  00:07:04  BASE  6.027    334  7.07952  327  -10.5 100   -10.5 0     0     992.9    NA       0.0000   9999     720   0     0    
2019/08/16  00:08:04  BASE  6.16224  334  7.13832  337  -10.5 100   -10.5 0     0     992.9    NA       0.0000   9999     750   0     0    
2019/08/16  00:09:04  BASE  6.62676  336  7.56168  339  -10.5 100   -10.5 0     0     992.9    NA       0.0000   9999     750   0     0    
2019/08/16  00:10:04  BASE  7.15008  337  7.59108  338  -10.5 100   -10.5 0     0     993.0    NA       0.0000   9999     690   0     0    
2019/08/16  00:11:04  BASE  6.8796   337  7.59108  338  -10.5 100   -10.5 0     0     993.0    NA       0.0000   9999     720   0     0    
2019/08/16  00:12:04  BASE  6.39744  338  7.59108  338  -10.5 100   -10.5 0     0     993.1    NA       0.0000   9999     720   0     0    
2019/08/16  00:13:03  BASE  6.16224  339  7.59108  338  -10.5 100   -10.5 0     0     993.2    NA       0.0000   9999     720   0     0    
2019/08/16  00:14:04  BASE  5.78592  339  7.59108  338  -10.6 100   -10.6 0     0     993.3    NA       0.0000   9999     620   0     0    
2019/08/16  00:15:04  BASE  4.9098   340  7.59108  338  -10.6 100   -10.6 0     0     993.4    NA       0.0000   9999     460   0     0    
2019/08/16  00:16:04  BASE  4.38648  339  7.59108  338  -10.6 100   -10.6 0     0     993.5    NA       0.0000   9999     620   0     0    
2019/08/16  00:17:04  BASE  4.36884  339  7.59108  338  -10.6 100   -10.6 0     0     993.5    NA       0.0000   9999     620   0     0    
2019/08/16  00:18:04  BASE  4.35708  339  7.59108  338  -10.6 100   -10.6 0     0     993.5    NA       0.0000   9999     620   0     0    
2019/08/16  00:19:04  BASE  4.34532  336  7.59108  338  -10.6 100   -10.6 0     0     993.5    NA       0.0000   9999     390   0     0    
2019/08/16  00:20:04  BASE  4.06896  329  7.3206   338  -10.6 100   -10.6 0     0     993.5    NA       0.0000   9999     590   0     0    
2019/08/16  00:21:04  BASE  4.21596  326  6.95604  339  -10.5 100   -10.5 0     0     993.5    NA       0.0000   9999     360   0     0    
2019/08/16  00:22:04  BASE  4.69812  325  6.80316  340  -10.5 100   -10.5 0     0     993.5    NA       0.0000   9999     390   0     0    
2019/08/16  00:23:04  BASE  4.704    327  5.86824  342  -10.5 100   -10.5 0     0     993.5    NA       0.0000   9999     750   0     0    
2019/08/16  00:24:04  BASE  4.74516  332  5.41548  338  -10.5 100   -10.5 0     0     993.4    NA       0.0000   9999     360   0     0    
2019/08/16  00:25:04  BASE  5.292    333  5.92704  331  -10.6 100   -10.6 0     0     993.4    NA       0.0000   9999     590   0     0    
2019/08/16  00:26:04  BASE  5.439    331  5.92704  331  -10.6 100   -10.6 0     0     993.4    NA       0.0000   9999     620   0     0    
2019/08/16  00:27:03  BASE  5.06856  335  5.92704  331  -10.6 100   -10.6 0     0     993.4    NA       0.0000   9999     460   0     0    
2019/08/16  00:28:03  BASE  4.78044  340  5.92704  331  -10.5 100   -10.5 0     0     993.4    NA       0.0000   9999     660   0     0    
2019/08/16  00:29:04  BASE  4.69224  337  5.92704  331  -10.5 100   -10.5 0     0     993.4    NA       0.0000   9999     590   0     0    
2019/08/16  00:30:04  BASE  4.5864   337  5.92704  331  -10.5 100   -10.5 0     0     993.4    NA       0.0000   9999     620   0     0    
2019/08/16  00:31:04  BASE  4.68636  340  5.92704  331  -10.5 100   -10.5 0     0     993.4    NA       0.0000   9999     690   0     0    
2019/08/16  00:32:04  BASE  4.79808  340  5.92704  331  -10.6 100   -10.6 0     0     993.4    NA       0.0000   9999     620   0     0    
2019/08/16  00:33:04  BASE  4.58052  340  5.92704  331  -10.6 100   -10.6 0     0     993.5    NA       0.0000   9999     360   0     0    
2019/08/16  00:34:04  BASE  4.34532  339  5.92704  331  -10.6 100   -10.6 0     0     993.5    NA       0.0000   9999     330   0     0    
2019/08/16  00:35:04  BASE  4.22184  331  5.62716  348  -10.6 100   -10.6 0     0     993.5    NA       0.0000   9999     660   0     0    
2019/08/16  00:36:05  BASE  4.557    322  5.62716  348  -10.6 100   -10.6 0     0     993.5    NA       0.0000   9999     620   0     0    
2019/08/16  00:37:04  BASE  4.18068  319  5.38608  325  -10.6 100   -10.6 0     0     993.5    NA       0.0000   9999     660   0     0    
2019/08/16  00:38:04  BASE  3.8808   320  5.38608  325  -10.6 100   -10.6 0     0     993.5    NA       0.0000   9999     620   0     0    
2019/08/16  00:39:03  BASE  4.41588  326  5.38608  325  -10.6 100   -10.6 0     0     993.5    NA       0.0000   9999     620   0     0    
2019/08/16  00:40:04  BASE  4.77456  334  5.38608  325  -10.6 100   -10.6 0     0     993.4    NA       0.0000   9999     620   0     0    
2019/08/16  00:41:04  BASE  4.68636  339  5.38608  325  -10.6 100   -10.6 0     0     993.4    NA       0.0000   9999     620   0     0    
2019/08/16  00:42:03  BASE  4.42764  338  5.38608  325  -10.6 100   -10.6 0     0     993.4    NA       0.0000   9999     460   0     0    
2019/08/16  00:43:04  BASE  4.50996  336  5.41548  324  -10.6 100   -10.6 0     0     993.4    NA       0.0000   9999     460   0     0    
2019/08/16  00:44:03  BASE  4.86276  330  5.53308  329  -10.6 100   -10.6 0     0     993.4    NA       0.0000   9999     460   0     0    
2019/08/16  00:45:04  BASE  5.03328  327  5.53308  329  -10.6 100   -10.6 0     0     993.4    NA       0.0000   9999     560   0     0    
2019/08/16  00:46:04  BASE  4.704    328  5.53308  329  -10.6 100   -10.6 0     0     993.4    NA       0.0000   9999     660   0     0    
2019/08/16  00:47:04  BASE  4.29828  329  5.53308  329  -10.6 100   -10.6 0     0     993.4    NA       0.0000   9999     590   0     0    
2019/08/16  00:48:04  BASE  4.16304  327  5.53308  329  -10.6 100   -10.6 0     0     993.4    NA       0.0000   9999     590   0     0    
2019/08/16  00:49:04  BASE  4.41588  324  5.53308  329  -10.6 100   -10.6 0     0     993.4    NA       0.0000   9999     560   0     0    
2019/08/16  00:50:03  BASE  4.45704  321  5.53308  329  -10.5 100   -10.5 0     0     993.4    NA       0.0000   9999     520   0     0    
2019/08/16  00:51:04  BASE  4.2336   326  5.53308  329  -10.5 100   -10.5 0     0     993.5    NA       0.0000   9999     390   0     0    
2019/08/16  00:52:04  BASE  3.9396   334  5.53308  329  -10.5 100   -10.5 0     0     993.5    NA       0.0000   9999     390   0     0    
2019/08/16  00:53:04  BASE  3.60444  335  5.53308  329  -10.5 100   -10.5 0     0     993.5    NA       0.0000   9999     360   0     0    
2019/08/16  00:54:04  BASE  3.68088  336  5.08032  323  -10.5 100   -10.5 0     0     993.5    NA       0.0000   9999     590   0     0    
2019/08/16  00:55:04  BASE  3.60444  330  4.83924  321  -10.5 100   -10.5 0     0     993.5    NA       0.0000   9999     620   0     0    
2019/08/16  00:56:04  BASE  3.31044  312  4.83924  321  -10.5 100   -10.5 0     0     993.5    NA       0.0000   9999     560   0     0    
2019/08/16  00:57:04  BASE  3.1752   304  4.83924  321  -10.5 100   -10.5 0     0     993.5    NA       0.0000   9999     520   0     0    
2019/08/16  00:58:04  BASE  3.1458   306  4.83924  321  -10.5 100   -10.5 0     0     993.5    NA       0.0000   9999     560   0     0    
2019/08/16  00:59:03  BASE  3.33984  307  4.65696  315  -10.6 100   -10.6 0     0     993.4    NA       0.0000   9999     590   0     0    
2019/08/16  01:00:03  BASE  3.95724  313  4.78044  320  -10.6 100   -10.6 0     0     993.4    NA       0.0000   9999     620   0     0    
2019/08/16  01:01:04  BASE  4.5276   319  4.86864  317  -10.6 100   -10.6 0     0     993.4    NA       0.0000   9999     590   0     0    
2019/08/16  01:02:03  BASE  4.36296  317  4.86864  317  -10.6 100   -10.6 0     0     993.4    NA       0.0000   9999     520   0     0    
2019/08/16  01:03:04  BASE  3.57504  314  4.86864  317  -10.6 100   -10.6 0     0     993.4    NA       0.0000   9999     560   0     0    
2019/08/16  01:04:01  BASE  2.7048   313  4.86864  317  -10.6 100   -10.6 0     0     993.4    NA       0.0000   9999     560   0     0    
2019/08/16  01:05:04  BASE  2.36376  313  4.86864  317  -10.7 100   -10.7 0     0     993.4    NA       0.0000   9999     620   0     0    
2019/08/16  01:06:04  BASE  2.75184  322  4.86864  317  -10.7 100   -10.7 0     0     993.4    NA       0.0000   9999     590   0     0    
2019/08/16  01:07:04  BASE  3.68676  334  4.86864  317  -10.7 100   -10.7 0     0     993.3    NA       0.0000   9999     590   0     0    
2019/08/16  01:08:04  BASE  4.1454   334  4.86864  317  -10.7 100   -10.7 0     0     993.4    NA       0.0000   9999     590   0     0    
2019/08/16  01:09:03  BASE  4.06308  328  4.86864  317  -10.7 100   -10.7 0     0     993.4    NA       0.0000   9999     560   0     0    
2019/08/16  01:10:04  BASE  4.29828  325  5.10972  330  -10.8 100   -10.8 0     0     993.4    NA       0.0000   9999     590   0     0    
2019/08/16  01:11:04  BASE  4.13952  321  5.10972  330  -10.8 100   -10.8 0     0     993.4    NA       0.0000   9999     560   0     0    
2019/08/16  01:12:04  BASE  3.27516  314  5.10972  330  -10.8 100   -10.8 0     0     993.5    NA       0.0000   9999     560   0     0    
2019/08/16  01:13:04  BASE  2.71068  313  5.10972  330  -10.8 100   -10.8 0     0     993.5    NA       0.0000   9999     560   0     0    
2019/08/16  01:14:03  BASE  2.49312  325  5.10972  330  -10.9 100   -10.9 0     0     993.5    NA       0.0000   9999     590   0     0    
2019/08/16  01:15:03  BASE  1.96392  328  5.10972  330  -10.9 100   -10.9 0     0     993.5    NA       0.0000   9999     620   0     0    
2019/08/16  01:16:04  BASE  1.6758   314  5.10972  330  -10.8 100   -10.8 0     0     993.5    NA       0.0000   9999     620   0     0    
2019/08/16  01:17:04  BASE  2.00508  297  5.10972  330  -10.8 100   -10.8 0     0     993.4    NA       0.0000   9999     620   0     0    
2019/08/16  01:18:04  BASE  2.02272  286  5.10972  330  -10.8 100   -10.8 0     0     993.4    NA       0.0000   9999     660   0     0    
2019/08/16  01:19:03  BASE  2.03448  285  5.10972  330  -10.8 100   -10.8 0     0     993.4    NA       0.0000   9999     620   0     0    
2019/08/16  01:20:03  BASE  2.25204  302  4.1748   321  -10.8 100   -10.8 0     0     993.5    NA       0.0000   9999     560   0     0    
2019/08/16  01:21:04  BASE  2.35788  315  3.1458   301  -10.8 100   -10.8 0     0     993.4    NA       0.0000   9999     520   0     0    
2019/08/16  01:22:04  BASE  2.88708  325  3.62796  329  -10.8 100   -10.8 0     0     993.4    NA       0.0000   9999     590   0     0    
2019/08/16  01:23:04  BASE  3.38688  330  3.65736  333  -10.8 100   -10.8 0     0     993.4    NA       0.0000   9999     560   0     0    
2019/08/16  01:24:04  BASE  3.1458   332  3.65736  333  -10.8 100   -10.8 0     0     993.4    NA       0.0000   9999     520   0     0    
2019/08/16  01:25:04  BASE  2.57544  340  3.65736  333  -10.8 100   -10.8 0     0     993.5    NA       0.0000   9999     560   0     0    
2019/08/16  01:26:03  BASE  2.5578   340  3.65736  333  -10.8 100   -10.8 0     0     993.4    NA       0.0000   9999     560   0     0    
2019/08/16  01:27:04  BASE  2.84004  333  3.65736  333  -10.8 100   -10.8 0     0     993.4    NA       0.0000   9999     560   0     0    
2019/08/16  01:28:04  BASE  2.68128  326  3.65736  333  -10.8 100   -10.8 0     0     993.4    NA       0.0000   9999     520   0     0    
2019/08/16  01:29:03  BASE  1.911    326  3.65736  333  -10.9 100   -10.9 0     0     993.4    NA       0.0000   9999     490   0     0    
2019/08/16  01:30:03  BASE  1.28184  331  3.65736  333  -10.9 100   -10.9 0     0     993.4    NA       0.0000   9999     430   0     0    
2019/08/16  01:31:04  BASE  1.38768  332  3.65736  333  -10.9 100   -10.9 0     0     993.4    NA       0.0000   9999     490   0     0    
2019/08/16  01:32:04  BASE  1.77576  326  3.65736  333  -10.9 100   -10.9 0     0     993.4    NA       0.0000   9999     520   0     0    
2019/08/16  01:33:03  BASE  1.92864  322  3.26928  332  -10.9 100   -10.9 0     0     993.4    NA       0.0000   9999     520   0     0    
2019/08/16  01:34:04  BASE  1.81692  325  3.26928  332  -10.9 100   -10.9 0     0     993.4    NA       0.0000   9999     490   0     0    
2019/08/16  01:35:04  BASE  2.058    335  3.26928  332  -10.9 100   -10.9 0     0     993.4    NA       0.0000   9999     520   0     0    
2019/08/16  01:36:04  BASE  2.50488  346  3.02232  332  -10.9 100   -10.9 0     0     993.4    NA       0.0000   9999     520   0     0    
2019/08/16  01:37:04  BASE  2.8518   341  3.35748  328  -10.9 100   -10.9 0     0     993.4    NA       0.0000   9999     520   0     0    
2019/08/16  01:38:04  BASE  3.08112  332  3.44568  329  -10.9 100   -10.9 0     0     993.4    NA       0.0000   9999     520   0     0    
2019/08/16  01:39:03  BASE  3.25752  321  3.78084  299  -10.9 100   -10.9 0     0     993.4    NA       0.0000   9999     520   0     0    
2019/08/16  01:40:04  BASE  3.12228  311  3.86904  302  -10.9 100   -10.9 0     0     993.4    NA       0.0000   9999     490   0     0    
2019/08/16  01:41:04  BASE  2.42844  310  3.86904  302  -10.9 100   -10.9 0     0     993.4    NA       0.0000   9999     560   0     0    
2019/08/16  01:42:04  BASE  2.50488  310  3.86904  302  -10.9 100   -10.9 0     0     993.4    NA       0.0000   9999     490   0     0    
2019/08/16  01:43:04  BASE  3.38688  317  4.08072  326  -11.0 100   -11.0 0     0     993.4    NA       0.0000   9999     460   0     0    
2019/08/16  01:44:03  BASE  3.56328  327  4.08072  326  -11.0 100   -11.0 0     0     993.4    NA       0.0000   9999     520   0     0    
2019/08/16  01:45:04  BASE  3.24576  329  4.08072  326  -11.0 100   -11.0 0     0     993.4    NA       0.0000   9999     490   0     0    
2019/08/16  01:46:04  BASE  3.0576   333  4.08072  326  -11.0 100   -11.0 0     0     993.4    NA       0.0000   9999     490   0     0    
2019/08/16  01:47:04  BASE  3.2634   344  4.08072  326  -11.0 100   -11.0 0     0     993.4    NA       0.0000   9999     460   0     0    
2019/08/16  01:48:04  BASE  3.49272  347  4.08072  326  -11.0 100   -11.0 0     0     993.5    NA       0.0000   9999     430   0     0    
2019/08/16  01:49:04  BASE  3.71028  352  4.47468  360  -11.0 100   -11.0 0     0     993.4    NA       0.0000   9999     490   0     0    
2019/08/16  01:50:04  BASE  3.93372  1    4.47468  360  -11.0 100   -11.0 0     0     993.4    NA       0.0000   9999     590   0     0    
2019/08/16  01:51:03  BASE  3.84552  359  4.47468  360  -11.0 100   -11.0 0     0     993.4    NA       0.0000   9999     590   0     0    
2019/08/16  01:52:04  BASE  3.822    360  4.47468  360  -11.0 100   -11.0 0     0     993.3    NA       0.0000   9999     590   0     0    
2019/08/16  01:53:03  BASE  4.01016  6    4.50996  8    -11.0 100   -11.0 0     0     993.3    NA       0.0000   9999     560   0     0    
2019/08/16  01:54:03  BASE  4.30416  10   4.86864  13   -11.1 100   -11.1 0     0     993.3    NA       0.0000   9999     560   0     0    
2019/08/16  01:55:03  BASE  4.44528  15   4.86864  13   -11.1 100   -11.1 0     0     993.3    NA       0.0000   9999     560   0     0    
2019/08/16  01:56:04  BASE  4.53936  17   4.96272  17   -11.1 100   -11.1 0     0     993.2    NA       0.0000   9999     560   0     0    
2019/08/16  01:57:03  BASE  4.62756  19   4.96272  17   -11.1 100   -11.1 0     0     993.2    NA       0.0000   9999     560   0     0    
2019/08/16  01:58:03  BASE  4.53348  19   4.96272  17   -11.1 100   -11.1 0     0     993.2    NA       0.0000   9999     590   0     0    
2019/08/16  01:59:03  BASE  4.31004  15   4.96272  17   -11.1 100   -11.1 0     0     993.2    NA       0.0000   9999     560   0     0    
2019/08/16  02:00:04  BASE  4.0866   14   5.05092  19   -11.1 100   -11.1 0     0     993.2    NA       0.0000   9999     590   0     0    
2019/08/16  02:01:04  BASE  4.45704  19   5.41548  20   -11.1 100   -11.1 0     0     993.2    NA       0.0000   9999     590   0     0    
2019/08/16  02:02:04  BASE  4.62756  22   5.41548  20   -11.1 100   -11.1 0     0     993.2    NA       0.0000   9999     560   0     0    
2019/08/16  02:03:05  BASE  4.30416  25   5.41548  20   -11.1 100   -11.1 0     0     993.2    NA       0.0000   9999     560   0     0    
2019/08/16  02:04:01  BASE  4.02192  21   5.41548  20   -11.1 100   -11.1 0     0     993.2    NA       0.0000   9999     560   0     0    
2019/08/16  02:05:04  BASE  3.47508  21   5.41548  20   -11.0 100   -11.0 0     0     993.3    NA       0.0000   9999     560   0     0    
2019/08/16  02:06:04  BASE  3.30456  32   5.41548  20   -11.0 100   -11.0 0     0     993.3    NA       0.0000   9999     520   0     0    
2019/08/16  02:07:04  BASE  3.39276  34   5.41548  20   -10.9 100   -10.9 0     0     993.3    NA       0.0000   9999     520   0     0    
2019/08/16  02:08:04  BASE  3.15168  29   5.41548  20   -10.9 100   -10.9 0     0     993.3    NA       0.0000   9999     560   0     0    
2019/08/16  02:09:04  BASE  3.29868  27   5.41548  20   -10.8 100   -10.8 0     0     993.2    NA       0.0000   9999     520   0     0    
2019/08/16  02:10:03  BASE  3.4398   35   5.41548  20   -10.7 100   -10.7 0     0     993.2    NA       0.0000   9999     490   0     0    
2019/08/16  02:11:04  BASE  3.38688  45   4.68636  25   -10.7 100   -10.7 0     0     993.2    NA       0.0000   9999     490   0     0    
2019/08/16  02:12:04  BASE  3.69852  48   4.47468  29   -10.6 100   -10.6 0     0     993.2    NA       0.0000   9999     490   0     0    
2019/08/16  02:13:04  BASE  3.86904  51   4.29828  26   -10.6 100   -10.6 0     0     993.2    NA       0.0000   9999     460   0     0    
2019/08/16  02:14:04  BASE  3.69852  54   4.1454   46   -10.5 100   -10.5 0     0     993.2    NA       0.0000   9999     460   0     0    
2019/08/16  02:15:03  BASE  3.77496  54   4.56876  57   -10.5 100   -10.5 0     0     993.2    NA       0.0000   9999     460   0     0    
2019/08/16  02:16:04  BASE  3.9396   50   4.56876  57   -10.4 100   -10.4 0     0     993.2    NA       0.0000   9999     430   0     0    
2019/08/16  02:17:04  BASE  3.69264  50   4.56876  57   -10.2 100   -10.2 0     0     993.2    NA       0.0000   9999     430   0     0    
2019/08/16  02:18:04  BASE  3.234    51   4.56876  57   -10.1 100   -10.1 0     0     993.2    NA       0.0000   9999     520   0     0    
2019/08/16  02:19:03  BASE  2.77536  43   4.56876  57   -10.0 100   -10.0 0     0     993.2    NA       0.0000   9999     590   0     0    
2019/08/16  02:20:04  BASE  2.34612  39   4.56876  57   -9.9  100   -9.9  0     0     993.2    NA       0.0000   9999     590   0     0    
2019/08/16  02:21:04  BASE  2.21676  35   4.56876  57   -9.8  100   -9.8  0     0     993.2    NA       0.0000   9999     590   0     0    
2019/08/16  02:22:04  BASE  2.24616  27   4.56876  57   -9.8  100   -9.8  0     0     993.2    NA       0.0000   9999     590   0     0    
2019/08/16  02:23:04  BASE  1.93452  25   4.56876  57   -9.7  100   -9.7  0     0     993.2    NA       0.0000   9999     620   0     0    
2019/08/16  02:24:04  BASE  1.62288  22   4.56876  57   -9.7  100   -9.7  0     0     993.0    NA       0.0000   9999     620   0     0    
2019/08/16  02:25:04  BASE  1.71108  13   4.1748   57   -9.6  100   -9.6  0     0     993.0    NA       0.0000   9999     620   0     0    
2019/08/16  02:26:04  BASE  2.01096  6    3.90432  56   -9.6  100   -9.6  0     0     993.0    NA       0.0000   9999     660   0     0    
2019/08/16  02:27:04  BASE  2.19324  4    3.2046   43   -9.5  100   -9.5  0     0     992.9    NA       0.0000   9999     660   0     0    
2019/08/16  02:28:03  BASE  2.0286   5    2.69304  37   -9.5  100   -9.5  0     0     993.0    NA       0.0000   9999     690   0     0    
2019/08/16  02:29:04  BASE  1.8522   9    2.63424  9    -9.4  100   -9.4  0     0     993.0    NA       0.0000   9999     750   0     0    
2019/08/16  02:30:04  BASE  1.89924  9    2.63424  9    -9.4  100   -9.4  0     0     993.0    NA       0.0000   9999     660   0     0    
2019/08/16  02:31:04  BASE  2.14032  11   2.63424  9    -9.3  100   -9.3  0     0     993.0    NA       0.0000   9999     620   0     0    
2019/08/16  02:32:04  BASE  2.28732  12   2.63424  9    -9.3  100   -9.3  0     0     993.0    NA       0.0000   9999     560   0     0    
2019/08/16  02:33:04  BASE  2.04624  13   2.63424  9    -9.2  100   -9.2  0     0     993.0    NA       0.0000   9999     560   0     0    
2019/08/16  02:34:04  BASE  2.08152  18   2.63424  9    -9.2  100   -9.2  0     0     993.0    NA       0.0000   9999     590   0     0    
2019/08/16  02:35:03  BASE  2.3814   15   2.63424  7    -9.1  100   -9.1  0     0     993.0    NA       0.0000   9999     560   0     0    
2019/08/16  02:36:04  BASE  2.28144  24   2.63424  7    -9.1  100   -9.1  0     0     993.0    NA       0.0000   9999     560   0     0    
2019/08/16  02:37:04  BASE  2.09916  35   2.63424  7    -9.1  100   -9.1  0     0     993.0    NA       0.0000   9999     590   0     0    
2019/08/16  02:38:04  BASE  2.04036  37   2.63424  7    -9.1  100   -9.1  0     0     993.0    NA       0.0000   9999     620   0     0    
2019/08/16  02:39:04  BASE  1.98156  38   2.63424  7    -9.1  100   -9.1  0     0     993.0    NA       0.0000   9999     660   0     0    
2019/08/16  02:40:04  BASE  1.93452  33   2.63424  7    -9.1  100   -9.1  0     0     993.0    NA       0.0000   9999     660   0     0    
2019/08/16  02:41:04  BASE  1.81104  36   2.63424  7    -9.1  100   -9.1  0     0     993.0    NA       0.0000   9999     660   0     0    
2019/08/16  02:42:04  BASE  1.75224  33   2.63424  7    -9.1  100   -9.1  0     0     993.0    NA       0.0000   9999     660   0     0    
2019/08/16  02:43:03  BASE  1.84044  17   2.63424  7    -9.0  100   -9.0  0     0     993.0    NA       0.0000   9999     620   0     0    
2019/08/16  02:44:04  BASE  1.87572  11   2.63424  7    -9.0  100   -9.0  0     0     993.0    NA       0.0000   9999     590   0     0    
2019/08/16  02:45:04  BASE  1.86984  17   2.35788  32   -9.0  100   -9.0  0     0     993.0    NA       0.0000   9999     620   0     0    
2019/08/16  02:46:05  BASE  1.54056  18   2.35788  32   -9.0  100   -9.0  0     0     993.0    NA       0.0000   9999     660   0     0    
2019/08/16  02:47:04  BASE  1.176    15   2.35788  32   -9.0  100   -9.0  0     0     993.0    NA       0.0000   9999     590   0     0    
2019/08/16  02:48:04  BASE  0.95256  19   2.35788  32   -9.0  100   -9.0  0     0     993.0    NA       0.0000   9999     620   0     0    
2019/08/16  02:49:05  BASE  0.64092  25   2.35788  32   -9.0  100   -9.0  0     0     993.0    NA       0.0000   9999     620   0     0    
2019/08/16  02:50:04  BASE  0.62916  29   2.1756   17   -9.0  100   -9.0  0     0     993.1    NA       0.0000   9999     620   0     0    
2019/08/16  02:51:04  BASE  0.7938   36   2.1756   17   -9.0  100   -9.0  0     0     993.1    NA       0.0000   9999     660   0     0    
2019/08/16  02:52:05  BASE  0.77028  37   2.1756   17   -9.0  100   -9.0  0     0     993.2    NA       0.0000   9999     660   0     0    
2019/08/16  02:53:04  BASE  0.65856  33   2.1756   17   -9.0  100   -9.0  0     0     993.2    NA       0.0000   9999     690   0     0    
2019/08/16  02:54:05  BASE  0.75264  36   2.1756   17   -9.0  100   -9.0  0     0     993.2    NA       0.0000   9999     660   0     0    
2019/08/16  02:55:04  BASE  1.02312  38   1.42296  26   -9.0  100   -9.0  0     0     993.2    NA       0.0000   9999     660   0     0    
2019/08/16  02:56:04  BASE  1.08192  29   1.27008  4    -8.9  100   -8.9  0     0     993.2    NA       0.0000   9999     690   0     0    
2019/08/16  02:57:04  BASE  1.28184  18   2.26968  14   -8.9  100   -8.9  0     0     993.2    NA       0.0000   9999     720   0     0    
2019/08/16  02:58:04  BASE  1.75812  9    2.26968  14   -8.9  100   -8.9  0     0     993.2    NA       0.0000   9999     720   0     0    
2019/08/16  02:59:03  BASE  1.88748  1    2.26968  14   -8.8  100   -8.8  0     0     993.2    NA       0.0000   9999     720   0     0    
2019/08/16  03:00:04  BASE  1.68168  359  2.26968  14   -8.8  100   -8.8  0     0     993.2    NA       0.0000   9999     690   0     0    
2019/08/16  03:01:04  BASE  1.69344  5    2.26968  14   -8.7  100   -8.7  0     0     993.2    NA       0.0000   9999     720   0     0    
2019/08/16  03:02:04  BASE  1.54056  4    2.26968  14   -8.7  100   -8.7  0     0     993.1    NA       0.0000   9999     720   0     0    
2019/08/16  03:03:05  BASE  1.27008  4    2.26968  14   -8.7  100   -8.7  0     0     993.0    NA       0.0000   9999     690   0     0    
2019/08/16  03:04:01  BASE  1.21716  357  2.26968  14   -8.7  100   -8.7  0     0     993.1    NA       0.0000   9999     690   0     0    
2019/08/16  03:05:04  BASE  1.27008  335  2.26968  14   -8.7  100   -8.7  0     0     993.2    NA       0.0000   9999     660   0     0    
2019/08/16  03:06:04  BASE  1.45236  322  2.26968  14   -8.7  100   -8.7  0     0     993.2    NA       0.0000   9999     720   0     0    
2019/08/16  03:07:04  BASE  1.46412  322  2.24028  9    -8.7  100   -8.7  0     0     993.2    NA       0.0000   9999     790   0     0    
2019/08/16  03:08:03  BASE  1.46412  332  2.0286   18   -8.7  100   -8.7  0     0     993.2    NA       0.0000   9999     790   0     0    
2019/08/16  03:09:04  BASE  1.64052  334  2.0286   18   -8.7  100   -8.7  0     0     993.2    NA       0.0000   9999     820   0     0    
2019/08/16  03:10:04  BASE  1.69344  333  2.0286   18   -8.7  100   -8.7  0     0     993.2    NA       0.0000   9999     850   0     0    
2019/08/16  03:11:04  BASE  1.617    337  1.87572  314  -8.7  100   -8.7  0     0     993.2    NA       0.0000   9999     820   0     0    
2019/08/16  03:12:04  BASE  1.51704  340  1.87572  314  -8.7  100   -8.7  0     0     993.2    NA       0.0000   9999     820   0     0    
2019/08/16  03:13:04  BASE  1.69344  344  2.1756   347  -8.7  100   -8.7  0     0     993.2    NA       0.0000   9999     820   0     0    
2019/08/16  03:14:05  BASE  2.06976  346  2.35788  352  -8.7  100   -8.7  0     0     993.2    NA       0.0000   9999     820   0     0    
2019/08/16  03:15:04  BASE  2.24028  347  2.35788  345  -8.7  100   -8.7  0     0     993.2    NA       0.0000   9999     790   0     0    
2019/08/16  03:16:04  BASE  2.22852  342  2.38728  332  -8.7  100   -8.7  0     0     993.2    NA       0.0000   9999     790   0     0    
2019/08/16  03:17:04  BASE  2.0874   336  2.38728  332  -8.7  100   -8.7  0     0     993.3    NA       0.0000   9999     820   0     0    
2019/08/16  03:18:04  BASE  1.99332  341  2.38728  332  -8.7  100   -8.7  0     0     993.2    NA       0.0000   9999     820   0     0    
2019/08/16  03:19:03  BASE  1.90512  347  2.38728  332  -8.7  100   -8.7  0     0     993.3    NA       0.0000   9999     850   0     0    
2019/08/16  03:20:03  BASE  1.77576  350  2.38728  332  -8.7  100   -8.7  0     0     993.3    NA       0.0000   9999     850   0     0    
2019/08/16  03:21:03  BASE  1.66992  346  2.38728  332  -8.7  100   -8.7  0     0     993.3    NA       0.0000   9999     820   0     0    
2019/08/16  03:22:04  BASE  1.8228   334  2.38728  332  -8.7  100   -8.7  0     0     993.3    NA       0.0000   9999     820   0     0    
2019/08/16  03:23:03  BASE  1.96392  330  2.38728  332  -8.7  100   -8.7  0     0     993.3    NA       0.0000   9999     820   0     0    
2019/08/16  03:24:04  BASE  1.68168  328  2.38728  332  -8.7  100   -8.7  0     0     993.3    NA       0.0000   9999     820   0     0    
2019/08/16  03:25:03  BASE  1.9698   324  3.02232  328  -8.7  100   -8.7  0     0     993.3    NA       0.0000   9999     820   0     0    
2019/08/16  03:26:04  BASE  2.76948  328  3.29868  337  -8.7  100   -8.7  0     0     993.3    NA       0.0000   9999     790   0     0    
2019/08/16  03:27:03  BASE  2.99292  332  3.48096  328  -8.7  100   -8.7  0     0     993.3    NA       0.0000   9999     820   0     0    
2019/08/16  03:28:04  BASE  3.06348  334  3.56916  332  -8.7  100   -8.7  0     0     993.3    NA       0.0000   9999     820   0     0    
2019/08/16  03:29:04  BASE  3.34572  334  3.62796  330  -8.7  100   -8.7  0     0     993.3    NA       0.0000   9999     850   0     0    
2019/08/16  03:30:04  BASE  3.34572  332  3.62796  330  -8.7  100   -8.7  0     0     993.3    NA       0.0000   9999     890   0     0    
2019/08/16  03:31:04  BASE  3.381    334  3.72204  335  -8.7  100   -8.7  0     0     993.3    NA       0.0000   9999     890   0     0    
2019/08/16  03:32:04  BASE  3.1458   333  3.72204  335  -8.7  100   -8.7  0     0     993.3    NA       0.0000   9999     890   0     0    
2019/08/16  03:33:03  BASE  3.28104  330  4.35708  320  -8.7  100   -8.7  0     0     993.3    NA       0.0000   9999     890   0     0    
2019/08/16  03:34:04  BASE  3.95136  327  4.86864  320  -8.7  100   -8.7  0     0     993.3    NA       0.0000   9999     820   0     0    
2019/08/16  03:35:04  BASE  3.61032  328  4.86864  320  -8.7  100   -8.7  0     0     993.3    NA       0.0000   9999     850   0     0    
2019/08/16  03:36:04  BASE  2.9106   318  4.86864  320  -8.7  100   -8.7  0     0     993.3    NA       0.0000   9999     820   0     0    
2019/08/16  03:37:03  BASE  2.38728  302  4.86864  320  -8.8  100   -8.8  0     0     993.3    NA       0.0000   9999     820   0     0    
2019/08/16  03:38:04  BASE  2.4108   309  4.86864  320  -8.8  100   -8.8  0     0     993.4    NA       0.0000   9999     850   0     0    
2019/08/16  03:39:04  BASE  2.36376  317  4.86864  320  -8.8  100   -8.8  0     0     993.4    NA       0.0000   9999     850   0     0    
2019/08/16  03:40:03  BASE  1.92864  336  4.86864  320  -8.8  100   -8.8  0     0     993.4    NA       0.0000   9999     850   0     0    
2019/08/16  03:41:04  BASE  2.04036  353  4.86864  320  -8.8  100   -8.8  0     0     993.4    NA       0.0000   9999     820   0     0    
2019/08/16  03:42:04  BASE  2.56368  352  4.86864  320  -8.8  100   -8.8  0     0     993.3    NA       0.0000   9999     850   0     0    
2019/08/16  03:43:03  BASE  2.8224   354  4.86864  320  -8.8  100   -8.8  0     0     993.3    NA       0.0000   9999     1050  0     0    
2019/08/16  03:44:04  BASE  2.62248  359  3.93372  328  -8.8  100   -8.8  0     0     993.3    NA       0.0000   9999     1020  0     0    
2019/08/16  03:45:04  BASE  2.81064  2    3.59856  343  -8.8  100   -8.8  0     0     993.2    NA       0.0000   9999     920   0     0    
2019/08/16  03:46:03  BASE  2.97528  351  3.59856  335  -8.8  100   -8.8  0     0     993.2    NA       0.0000   9999     1020  0     0    
2019/08/16  03:47:04  BASE  3.01644  349  3.59856  2    -8.8  100   -8.8  0     0     993.2    NA       0.0000   9999     950   0     0    
2019/08/16  03:48:04  BASE  3.381    1    3.69264  5    -8.8  100   -8.8  0     0     993.2    NA       0.0000   9999     920   0     0    
2019/08/16  03:49:04  BASE  3.48684  4    3.69264  5    -8.9  100   -8.9  0     0     993.2    NA       0.0000   9999     950   0     0    
2019/08/16  03:50:04  BASE  3.41628  4    3.69264  5    -8.9  100   -8.9  0     0     993.0    NA       0.0000   9999     920   0     0    
2019/08/16  03:51:04  BASE  3.53388  4    3.93372  4    -8.9  100   -8.9  0     0     993.0    NA       0.0000   9999     920   0     0    
2019/08/16  03:52:04  BASE  3.6456   2    4.1454   354  -8.9  100   -8.9  0     0     993.0    NA       0.0000   9999     920   0     0    
2019/08/16  03:53:04  BASE  3.90432  4    4.32768  8    -8.9  100   -8.9  0     0     993.0    NA       0.0000   9999     750   0     0    
2019/08/16  03:54:04  BASE  4.15716  5    4.47468  4    -8.9  100   -8.9  0     0     993.0    NA       0.0000   9999     820   0     0    
2019/08/16  03:55:04  BASE  4.25124  3    5.1744   2    -8.9  100   -8.9  0     0     993.0    NA       0.0000   9999     890   0     0    
2019/08/16  03:56:04  BASE  3.6162   3    5.1744   2    -8.8  100   -8.8  0     0     993.1    NA       0.0000   9999     920   0     0    
2019/08/16  03:57:04  BASE  3.2046   4    5.1744   2    -8.8  100   -8.8  0     0     993.2    NA       0.0000   9999     920   0     0    
2019/08/16  03:58:04  BASE  3.40452  7    5.1744   2    -8.8  100   -8.8  0     0     993.2    NA       0.0000   9999     920   0     0    
2019/08/16  03:59:03  BASE  3.21636  3    5.1744   2    -8.8  100   -8.8  0     0     993.2    NA       0.0000   9999     920   0     0    
2019/08/16  04:00:03  BASE  3.37512  2    5.1744   2    -8.8  100   -8.8  0     0     993.1    NA       0.0000   9999     950   0     0    
2019/08/16  04:01:04  BASE  3.81024  6    5.1744   2    -8.8  100   -8.8  0     0     993.1    NA       0.0000   9999     1050  0     0    
2019/08/16  04:03:02  BASE  4.06896  7    5.1744   2    -8.8  100   -8.8  0     0     993.1    NA       0.0000   9999     920   0     0    
2019/08/16  04:04:04  BASE  4.13364  7    5.1744   2    -8.8  100   -8.8  0     0     993.2    NA       0.0000   9999     920   0     0    
2019/08/16  04:05:02  BASE  3.86316  8    5.1744   2    -8.8  100   -8.8  0     0     993.2    NA       0.0000   9999     1050  0     0    
2019/08/16  04:06:03  BASE  3.4398   10   4.53936  8    -8.9  100   -8.9  0     0     993.2    NA       0.0000   9999     1050  0     0    
2019/08/16  04:07:03  BASE  3.18108  10   4.53936  8    -8.9  100   -8.9  0     0     993.2    NA       0.0000   9999     1020  0     0    
2019/08/16  04:08:02  BASE  2.96352  2    4.53936  8    -8.9  100   -8.9  0     0     993.2    NA       0.0000   9999     950   0     0    
2019/08/16  04:09:02  BASE  2.88708  344  4.53936  8    -8.8  100   -8.8  0     0     993.2    NA       0.0000   9999     950   0     0    
2019/08/16  04:10:02  BASE  2.92236  346  4.53936  8    -8.8  100   -8.8  0     0     993.2    NA       0.0000   9999     920   0     0    
2019/08/16  04:11:03  BASE  3.2046   357  4.53936  8    -8.8  100   -8.8  0     0     993.1    NA       0.0000   9999     850   0     0    
2019/08/16  04:12:02  BASE  3.47508  355  4.53936  8    -8.8  100   -8.8  0     0     993.0    NA       0.0000   9999     890   0     0    
2019/08/16  04:13:02  BASE  3.34572  3    4.53936  8    -8.8  100   -8.8  0     0     993.0    NA       0.0000   9999     850   0     0    
2019/08/16  04:14:02  BASE  3.04584  9    4.32768  8    -8.8  100   -8.8  0     0     993.0    NA       0.0000   9999     850   0     0    
2019/08/16  04:15:02  BASE  2.77536  1    4.1748   351  -8.8  100   -8.8  0     0     993.0    NA       0.0000   9999     820   0     0    
2019/08/16  04:16:03  BASE  2.98704  352  4.1748   351  -8.8  100   -8.8  0     0     993.0    NA       0.0000   9999     820   0     0    
2019/08/16  04:17:02  BASE  2.9694   356  4.1748   351  -8.8  100   -8.8  0     0     993.0    NA       0.0000   9999     820   0     0    
2019/08/16  04:18:02  BASE  2.65776  360  4.1748   351  -8.8  100   -8.8  0     0     993.0    NA       0.0000   9999     850   0     0    
2019/08/16  04:19:02  BASE  2.46372  338  4.1748   351  -8.7  100   -8.7  0     0     993.0    NA       0.0000   9999     890   0     0    
2019/08/16  04:20:02  BASE  2.0874   326  4.1748   351  -8.7  100   -8.7  0     0     993.0    NA       0.0000   9999     890   0     0    
2019/08/16  04:21:03  BASE  2.32848  333  4.1748   351  -8.7  100   -8.7  0     0     993.0    NA       0.0000   9999     820   0     0    
2019/08/16  04:22:02  BASE  2.52252  345  4.02192  354  -8.7  100   -8.7  0     0     993.0    NA       0.0000   9999     890   0     0    
2019/08/16  04:23:02  BASE  2.24616  357  4.02192  354  -8.7  100   -8.7  0     0     993.0    NA       0.0000   9999     850   0     0    
2019/08/16  04:24:02  BASE  2.62248  4    4.02192  354  -8.7  100   -8.7  0     0     993.0    NA       0.0000   9999     850   0     0    
2019/08/16  04:25:02  BASE  2.9694   0    4.02192  354  -8.7  100   -8.7  0     0     993.0    NA       0.0000   9999     820   0     0    
2019/08/16  04:26:03  BASE  2.65776  354  3.35748  336  -8.7  100   -8.7  0     0     993.0    NA       0.0000   9999     890   0     0    
2019/08/16  04:27:03  BASE  2.52252  359  3.35748  336  -8.7  100   -8.7  0     0     993.0    NA       0.0000   9999     890   0     0    
2019/08/16  04:28:02  BASE  2.86944  350  3.72204  338  -8.7  100   -8.7  0     0     993.0    NA       0.0000   9999     850   0     0    
2019/08/16  04:29:02  BASE  3.07524  342  3.72204  338  -8.7  100   -8.7  0     0     993.1    NA       0.0000   9999     920   0     0    
2019/08/16  04:30:02  BASE  3.11052  350  3.72204  338  -8.7  100   -8.7  0     0     993.2    NA       0.0000   9999     920   0     0    
2019/08/16  04:31:03  BASE  2.86944  8    3.72204  338  -8.7  100   -8.7  0     0     993.2    NA       0.0000   9999     890   0     0    
2019/08/16  04:32:02  BASE  2.51664  14   3.72204  338  -8.7  100   -8.7  0     0     993.3    NA       0.0000   9999     920   0     0    
2019/08/16  04:33:02  BASE  2.25792  15   3.72204  338  -8.7  100   -8.7  0     0     993.3    NA       0.0000   9999     920   0     0    
2019/08/16  04:34:01  BASE  2.01096  12   3.72204  338  -8.7  100   -8.7  0     0     993.3    NA       0.0000   9999     850   0     0    
2019/08/16  04:35:02  BASE  1.81104  8    3.72204  338  -8.7  100   -8.7  0     0     993.3    NA       0.0000   9999     890   0     0    
2019/08/16  04:36:02  BASE  1.56408  6    3.72204  338  -8.7  100   -8.7  0     0     993.3    NA       0.0000   9999     920   0     0    
2019/08/16  04:37:02  BASE  1.68168  360  3.72204  338  -8.6  100   -8.6  0     0     993.4    NA       0.0000   9999     920   0     0    
2019/08/16  04:38:01  BASE  2.09916  349  3.44568  353  -8.6  100   -8.6  0     0     993.4    NA       0.0000   9999     920   0     0    
2019/08/16  04:39:02  BASE  2.37552  338  3.44568  353  -8.6  100   -8.6  0     0     993.4    NA       0.0000   9999     950   0     0    
2019/08/16  04:40:02  BASE  2.352    329  2.96352  13   -8.6  100   -8.6  0     0     993.4    NA       0.0000   9999     920   0     0    
2019/08/16  04:41:03  BASE  2.42844  311  2.96352  294  -8.5  100   -8.5  0     0     993.4    NA       0.0000   9999     920   0     0    
2019/08/16  04:42:01  BASE  2.25204  279  2.96352  294  -8.5  100   -8.5  0     0     993.5    NA       0.0000   9999     920   0     0    
2019/08/16  04:43:02  BASE  2.646    249  3.93372  244  -8.5  100   -8.5  0     0     993.5    NA       0.0000   9999     920   0     0    
2019/08/16  04:44:03  BASE  3.56916  245  3.99252  244  -8.5  100   -8.5  0     0     993.5    NA       0.0000   9999     980   0     0    
2019/08/16  04:45:02  BASE  3.76908  253  4.02192  250  -8.5  100   -8.5  0     0     993.5    NA       0.0000   9999     950   0     0    
2019/08/16  04:46:03  BASE  3.69852  254  4.02192  250  -8.6  100   -8.6  0     0     993.5    NA       0.0000   9999     950   0     0    
2019/08/16  04:47:03  BASE  3.3222   262  4.02192  250  -8.6  100   -8.6  0     0     993.5    NA       0.0000   9999     920   0     0    
2019/08/16  04:48:02  BASE  2.83416  281  4.02192  250  -8.6  100   -8.6  0     0     993.4    NA       0.0000   9999     1020  0     0    
2019/08/16  04:49:02  BASE  2.99292  291  4.02192  250  -8.6  100   -8.6  0     0     993.4    NA       0.0000   9999     1050  0     0    
2019/08/16  04:50:02  BASE  3.06936  295  4.02192  250  -8.6  100   -8.6  0     0     993.4    NA       0.0000   9999     980   0     0    
2019/08/16  04:51:03  BASE  2.85768  302  4.02192  250  -8.6  100   -8.6  0     0     993.4    NA       0.0000   9999     1020  0     0    
2019/08/16  04:52:02  BASE  3.07524  306  4.02192  250  -8.6  100   -8.6  0     0     993.4    NA       0.0000   9999     1080  0     0    
2019/08/16  04:53:02  BASE  3.16932  306  4.02192  250  -8.6  100   -8.6  0     0     993.3    NA       0.0000   9999     1080  0     0    
2019/08/16  04:54:01  BASE  3.31044  313  4.02192  250  -8.6  100   -8.6  0     0     993.3    NA       0.0000   9999     1120  0     0    
2019/08/16  04:55:02  BASE  3.46332  318  3.96312  252  -8.6  100   -8.6  0     0     993.3    NA       0.0000   9999     1080  0     0    
2019/08/16  04:56:01  BASE  3.38688  320  3.86904  328  -8.6  100   -8.6  0     0     993.3    NA       0.0000   9999     1150  0     0    
2019/08/16  04:57:03  BASE  3.45744  324  4.05132  327  -8.6  100   -8.6  0     0     993.3    NA       0.0000   9999     1080  0     0    
2019/08/16  04:58:02  BASE  3.27516  328  4.05132  327  -8.6  100   -8.6  0     0     993.3    NA       0.0000   9999     1020  0     0    
2019/08/16  04:59:02  BASE  2.71068  334  4.05132  327  -8.6  100   -8.6  0     0     993.3    NA       0.0000   9999     1080  0     0    
2019/08/16  05:00:02  BASE  2.2344   335  4.05132  327  -8.6  100   -8.6  0     0     993.3    NA       0.0000   9999     1050  0     0    
2019/08/16  05:01:02  BASE  2.08152  341  4.05132  327  -8.6  100   -8.6  0     0     993.4    NA       0.0000   9999     1120  0     0    
2019/08/16  05:02:03  BASE  2.352    344  4.05132  327  -8.6  100   -8.6  0     0     993.4    NA       0.0000   9999     1120  0     0    
2019/08/16  05:03:02  BASE  2.61072  337  4.05132  327  -8.6  100   -8.6  0     0     993.3    NA       0.0000   9999     1080  0     0    
2019/08/16  05:04:04  BASE  2.78124  326  4.05132  327  -8.6  100   -8.6  0     0     993.3    NA       0.0000   9999     980   0     0    
2019/08/16  05:05:02  BASE  2.74596  324  4.05132  327  -8.6  100   -8.6  0     0     993.4    NA       0.0000   9999     1080  0     0    
2019/08/16  05:06:03  BASE  2.3814   332  4.05132  327  -8.6  100   -8.6  0     0     993.4    NA       0.0000   9999     1050  0     0    
2019/08/16  05:07:03  BASE  2.19912  334  3.32808  333  -8.6  100   -8.6  0     0     993.4    NA       0.0000   9999     1050  0     0    
2019/08/16  05:08:02  BASE  2.24028  330  3.087    322  -8.6  100   -8.6  0     0     993.4    NA       0.0000   9999     1050  0     0    
2019/08/16  05:09:02  BASE  2.28144  320  3.087    322  -8.6  100   -8.6  0     0     993.4    NA       0.0000   9999     1050  0     0    
2019/08/16  05:10:02  BASE  2.35788  312  3.087    322  -8.6  100   -8.6  0     0     993.4    NA       0.0000   9999     1050  0     0    
2019/08/16  05:11:02  BASE  2.26968  313  3.087    322  -8.6  100   -8.6  0     0     993.5    NA       0.0000   9999     1120  0     0    
2019/08/16  05:12:02  BASE  2.10504  320  3.087    322  -8.6  100   -8.6  0     0     993.5    NA       0.0000   9999     1050  0     0    
2019/08/16  05:13:02  BASE  2.05212  327  3.087    322  -8.6  100   -8.6  0     0     993.4    NA       0.0000   9999     1020  0     0    
2019/08/16  05:14:03  BASE  2.19912  334  2.99292  318  -8.6  100   -8.6  0     0     993.4    NA       0.0000   9999     1080  0     0    
2019/08/16  05:15:02  BASE  2.55192  338  2.99292  345  -8.6  100   -8.6  0     0     993.4    NA       0.0000   9999     1020  0     0    
2019/08/16  05:16:02  BASE  2.47548  333  2.99292  345  -8.6  100   -8.6  0     0     993.4    NA       0.0000   9999     1050  0     0    
2019/08/16  05:17:02  BASE  2.34024  314  2.99292  345  -8.6  100   -8.6  0     0     993.4    NA       0.0000   9999     1080  0     0    
2019/08/16  05:18:02  BASE  2.39316  308  2.99292  345  -8.6  100   -8.6  0     0     993.4    NA       0.0000   9999     1020  0     0    
2019/08/16  05:19:02  BASE  2.2932   318  2.99292  345  -8.5  100   -8.5  0     0     993.4    NA       0.0000   9999     980   0     0    
2019/08/16  05:20:02  BASE  2.42844  329  3.02232  342  -8.5  100   -8.5  0     0     993.4    NA       0.0000   9999     920   0     0    
2019/08/16  05:21:02  BASE  2.36964  330  3.02232  342  -8.5  100   -8.5  0     0     993.5    NA       0.0000   9999     980   0     0    
2019/08/16  05:22:02  BASE  2.40492  326  3.02232  340  -8.5  100   -8.5  0     0     993.5    NA       0.0000   9999     1020  0     0    
2019/08/16  05:23:02  BASE  2.89296  331  3.29868  331  -8.5  100   -8.5  0     0     993.4    NA       0.0000   9999     980   0     0    
2019/08/16  05:24:01  BASE  3.09876  334  3.29868  337  -8.5  100   -8.5  0     0     993.4    NA       0.0000   9999     980   0     0    
2019/08/16  05:25:02  BASE  3.16932  330  3.69264  324  -8.5  100   -8.5  0     0     993.4    NA       0.0000   9999     1020  0     0    
2019/08/16  05:26:02  BASE  3.4692   326  4.2042   327  -8.5  100   -8.5  0     0     993.5    NA       0.0000   9999     1050  0     0    
2019/08/16  05:27:02  BASE  3.62208  327  4.2042   327  -8.5  100   -8.5  0     0     993.5    NA       0.0000   9999     1050  0     0    
2019/08/16  05:28:02  BASE  3.49272  329  4.2042   327  -8.5  100   -8.5  0     0     993.5    NA       0.0000   9999     980   0     0    
2019/08/16  05:29:02  BASE  3.34572  332  4.2042   327  -8.5  100   -8.5  0     0     993.5    NA       0.0000   9999     1050  0     0    
2019/08/16  05:30:02  BASE  3.23988  337  4.2042   327  -8.6  100   -8.6  0     0     993.5    NA       0.0000   9999     1050  0     0    
2019/08/16  05:31:02  BASE  3.13992  342  4.2042   327  -8.6  100   -8.6  0     0     993.5    NA       0.0000   9999     1120  0     0    
2019/08/16  05:32:02  BASE  3.33396  348  4.2042   327  -8.6  100   -8.6  0     0     993.5    NA       0.0000   9999     1120  0     0    
2019/08/16  05:33:02  BASE  3.42216  353  4.2042   327  -8.6  100   -8.6  0     0     993.5    NA       0.0000   9999     1120  0     0    
2019/08/16  05:34:02  BASE  3.22224  360  4.2042   327  -8.6  100   -8.6  0     0     993.5    NA       0.0000   9999     1180  0     0    
2019/08/16  05:35:02  BASE  3.09288  6    4.2042   327  -8.6  100   -8.6  0     0     993.5    NA       0.0000   9999     1250  0     0    
2019/08/16  05:36:02  BASE  3.06936  6    3.93372  346  -8.6  100   -8.6  0     0     993.5    NA       0.0000   9999     1250  0     0    
2019/08/16  05:37:02  BASE  2.98704  353  3.93372  346  -8.6  100   -8.6  0     0     993.5    NA       0.0000   9999     1250  0     0    
2019/08/16  05:38:02  BASE  3.0282   345  3.93372  346  -8.6  100   -8.6  0     0     993.5    NA       0.0000   9999     1310  0     0    
2019/08/16  05:39:02  BASE  3.15168  345  3.93372  346  -8.6  100   -8.6  0     0     993.5    NA       0.0000   9999     1280  0     0    
2019/08/16  05:40:02  BASE  3.04584  349  3.93372  346  -8.6  100   -8.6  0     0     993.5    NA       0.0000   9999     1310  0     0    
2019/08/16  05:41:02  BASE  3.16344  360  3.93372  346  -8.6  100   -8.6  0     0     993.5    NA       0.0000   9999     1310  0     0    
2019/08/16  05:42:02  BASE  3.24576  3    3.53976  353  -8.6  100   -8.6  0     0     993.5    NA       0.0000   9999     1310  0     0    
2019/08/16  05:43:02  BASE  3.21048  2    3.53976  353  -8.7  100   -8.7  0     0     993.5    NA       0.0000   9999     1310  0     0    
2019/08/16  05:44:02  BASE  3.58092  3    4.41588  360  -8.7  100   -8.7  0     0     993.5    NA       0.0000   9999     0     0     0    
2019/08/16  05:45:02  BASE  3.86316  1    4.41588  360  -8.8  100   -8.8  0     0     993.5    NA       0.0000   9999     0     0     0    
2019/08/16  05:46:02  BASE  3.7044   356  4.41588  360  -8.8  100   -8.8  0     0     993.5    NA       0.0000   9999     0     0     0    
2019/08/16  05:47:03  BASE  3.7926   359  4.41588  360  -8.8  100   -8.8  0     0     993.5    NA       0.0000   9999     1670  0     0    
2019/08/16  05:48:02  BASE  3.88668  3    4.41588  360  -8.9  100   -8.9  0     0     993.5    NA       0.0000   9999     1640  0     0    
2019/08/16  05:49:01  BASE  3.86904  3    4.41588  360  -8.9  100   -8.9  0     0     993.5    NA       0.0000   9999     1610  0     0    
2019/08/16  05:50:03  BASE  4.01604  4    4.41588  360  -9.0  100   -9.0  0     0     993.4    NA       0.0000   9999     1610  0     0    
2019/08/16  05:51:02  BASE  3.8514   2    4.41588  360  -9.0  100   -9.0  0     0     993.5    NA       0.0000   9999     1610  0     0    
2019/08/16  05:52:02  BASE  3.51036  357  4.41588  360  -9.0  100   -9.0  0     0     993.5    NA       0.0000   9999     1570  0     0    
2019/08/16  05:53:02  BASE  3.1458   343  4.41588  360  -9.0  100   -9.0  0     0     993.5    NA       0.0000   9999     1540  0     0    
2019/08/16  05:54:01  BASE  2.88708  342  4.35708  360  -8.9  100   -8.9  0     0     993.5    NA       0.0000   9999     1540  0     0    
2019/08/16  05:55:02  BASE  2.84004  348  4.35708  360  -8.9  100   -8.9  0     0     993.5    NA       0.0000   9999     1540  0     0    
2019/08/16  05:56:02  BASE  2.76948  349  4.35708  360  -8.9  100   -8.9  0     0     993.5    NA       0.0000   9999     1570  0     0    
2019/08/16  05:57:02  BASE  2.7342   350  4.35708  360  -8.9  100   -8.9  0     0     993.5    NA       0.0000   9999     1540  0     0    
2019/08/16  05:58:02  BASE  2.72244  349  4.35708  360  -8.9  100   -8.9  0     0     993.5    NA       0.0000   9999     1020  1610  0    
2019/08/16  05:59:03  BASE  2.84004  351  4.35708  360  -8.8  100   -8.8  0     0     993.5    NA       0.0000   9999     1080  1540  0    
2019/08/16  06:00:02  BASE  2.8812   357  3.90432  354  -8.8  100   -8.8  0     0     993.5    NA       0.0000   9999     1510  0     0    
2019/08/16  06:01:02  BASE  3.00468  359  3.59856  4    -8.8  100   -8.8  0     0     993.6    NA       0.0000   9999     1510  0     0    
2019/08/16  06:02:01  BASE  3.00468  352  3.35748  353  -8.8  100   -8.8  0     0     993.6    NA       0.0000   9999     1640  0     0    
2019/08/16  06:03:02  BASE  2.90472  347  3.44568  270  -8.7  100   -8.7  0     0     993.6    NA       0.0000   9999     1020  1440  0    
2019/08/16  06:04:03  BASE  3.19872  357  3.56916  11   -8.7  100   -8.7  0     0     993.6    NA       0.0000   9999     1310  0     0    
2019/08/16  06:05:02  BASE  3.61032  4    4.72164  348  -8.7  100   -8.7  0     0     993.5    NA       0.0000   9999     980   1670  0    
2019/08/16  06:06:02  BASE  3.7926   359  4.72164  348  -8.7  100   -8.7  0     0     993.5    NA       0.0000   9999     1020  0     0    
2019/08/16  06:07:02  BASE  3.83376  2    4.72164  348  -8.7  100   -8.7  0     0     993.5    NA       0.0000   9999     1020  0     0    
2019/08/16  06:08:02  BASE  4.13364  360  4.99212  360  -8.7  100   -8.7  0     0     993.5    NA       0.0000   9999     1020  0     0    
2019/08/16  06:09:02  BASE  3.8808   351  4.99212  360  -8.6  100   -8.6  0     0     993.5    NA       0.0000   9999     1180  0     0    
2019/08/16  06:10:02  BASE  3.58092  348  4.99212  360  -8.6  100   -8.6  0     0     993.5    NA       0.0000   9999     1020  0     0    
2019/08/16  06:11:02  BASE  3.95136  349  4.99212  360  -8.6  100   -8.6  0     0     993.5    NA       0.0000   9999     1310  0     0    
2019/08/16  06:12:01  BASE  3.84552  346  4.99212  360  -8.6  100   -8.6  0     0     993.5    NA       0.0000   9999     1020  0     0    
2019/08/16  06:13:02  BASE  3.78084  349  4.99212  360  -8.6  100   -8.6  0     0     993.5    NA       0.0000   9999     1050  0     0    
2019/08/16  06:14:02  BASE  4.16304  350  4.99212  360  -8.6  100   -8.6  0     0     993.5    NA       0.0000   9999     980   0     0    
2019/08/16  06:15:02  BASE  4.1748   352  4.99212  360  -8.6  100   -8.6  0     0     993.4    NA       0.0000   9999     1380  0     0    
2019/08/16  06:16:02  BASE  4.28652  349  4.99212  360  -8.6  100   -8.6  0     0     993.4    NA       0.0000   9999     1480  0     0    
2019/08/16  06:17:02  BASE  4.3512   344  4.99212  360  -8.6  100   -8.6  0     0     993.4    NA       0.0000   9999     1440  0     0    
2019/08/16  06:18:02  BASE  4.31004  345  4.75104  341  -8.6  100   -8.6  0     0     993.3    NA       0.0000   9999     1480  0     0    
2019/08/16  06:19:02  BASE  5.12148  350  6.47388  353  -8.6  100   -8.6  0     0     993.2    NA       0.0000   9999     1250  0     0    
2019/08/16  06:20:01  BASE  5.83884  351  6.56208  352  -8.6  100   -8.6  0     0     993.2    NA       0.0000   9999     1280  0     0    
2019/08/16  06:21:02  BASE  5.45076  350  6.56208  352  -8.6  100   -8.6  0     0     993.2    NA       0.0000   9999     1410  0     0    
2019/08/16  06:22:02  BASE  5.09796  347  6.56208  352  -8.6  100   -8.6  0     0     993.2    NA       0.0000   9999     1350  0     0    
2019/08/16  06:23:02  BASE  5.50368  341  6.86784  339  -8.6  100   -8.6  0     0     993.2    NA       0.0000   9999     1180  0     0    
2019/08/16  06:24:01  BASE  5.72712  339  6.86784  339  -8.6  100   -8.6  0     0     993.2    NA       0.0000   9999     1350  0     0    
2019/08/16  06:25:02  BASE  5.47428  343  6.86784  339  -8.6  100   -8.6  0     0     993.1    NA       0.0000   9999     1280  0     0    
2019/08/16  06:26:02  BASE  5.49192  342  6.86784  339  -8.6  100   -8.6  0     0     993.1    NA       0.0000   9999     980   0     0    
2019/08/16  06:27:02  BASE  5.41548  329  6.86784  339  -8.6  100   -8.6  0     0     993.2    NA       0.0000   9999     1380  0     0    
2019/08/16  06:28:02  BASE  5.47428  314  6.86784  339  -8.6  100   -8.6  0     0     993.2    NA       0.0000   9999     1350  0     0    
2019/08/16  06:29:01  BASE  5.94468  304  6.86784  339  -8.6  100   -8.6  0     0     993.1    NA       0.0000   9999     1080  0     0    
2019/08/16  06:30:01  BASE  5.66244  296  6.86784  339  -8.7  100   -8.7  0     0     993.1    NA       0.0000   9999     1120  0     0    
2019/08/16  06:31:02  BASE  5.42136  293  6.86784  339  -8.7  100   -8.7  0     0     993.0    NA       0.0000   9999     1280  0     0    
2019/08/16  06:32:02  BASE  5.66832  291  6.86784  339  -8.8  100   -8.8  0     0     993.0    NA       0.0000   9999     1350  0     0    
2019/08/16  06:33:02  BASE  5.66244  292  6.44448  297  -8.8  100   -8.8  0     0     993.0    NA       0.0000   9999     1250  0     0    
2019/08/16  06:34:02  BASE  5.80944  292  6.56208  293  -8.8  100   -8.8  0     0     993.0    NA       0.0000   9999     1250  0     0    
2019/08/16  06:35:02  BASE  5.92116  291  6.56208  293  -8.8  100   -8.8  0     0     993.0    NA       0.0000   9999     1280  0     0    
2019/08/16  06:36:02  BASE  5.71536  293  6.56208  293  -8.8  100   -8.8  0     0     993.0    NA       0.0000   9999     1310  0     0    
2019/08/16  06:37:02  BASE  5.4978   296  6.56208  293  -8.8  100   -8.8  0     0     993.0    NA       0.0000   9999     1280  0     0    
2019/08/16  06:38:02  BASE  5.60952  296  6.56208  293  -8.9  100   -8.9  0     0     993.0    NA       0.0000   9999     1280  0     0    
2019/08/16  06:39:02  BASE  5.6154   293  6.56208  293  -8.9  100   -8.9  0     0     993.0    NA       0.0000   9999     1310  0     0    
2019/08/16  06:40:02  BASE  5.5272   286  6.56208  293  -8.9  100   -8.9  0     0     993.0    NA       0.0000   9999     1280  0     0    
2019/08/16  06:41:02  BASE  5.72712  282  6.80316  281  -8.9  100   -8.9  0     0     993.1    NA       0.0000   9999     1280  0     0    
2019/08/16  06:42:02  BASE  5.82708  283  6.80316  281  -8.9  100   -8.9  0     0     993.2    NA       0.0000   9999     1250  0     0    
2019/08/16  06:43:02  BASE  5.83884  284  6.80316  281  -8.9  100   -8.9  0     0     993.2    NA       0.0000   9999     1380  0     0    
2019/08/16  06:44:02  BASE  5.6154   282  6.80316  281  -8.9  100   -8.9  0     0     993.3    NA       0.0000   9999     1350  0     0    
2019/08/16  06:45:02  BASE  5.65068  281  6.80316  281  -8.9  100   -8.9  0     0     993.3    NA       0.0000   9999     1280  0     0    
2019/08/16  06:46:02  BASE  5.57424  282  6.80316  281  -8.9  100   -8.9  0     0     993.3    NA       0.0000   9999     1250  0     0    
2019/08/16  06:47:02  BASE  5.47428  280  6.80316  281  -8.9  100   -8.9  0     0     993.3    NA       0.0000   9999     1310  0     0    
2019/08/16  06:48:02  BASE  5.38608  280  6.80316  281  -9.0  100   -9.0  0     0     993.3    NA       0.0000   9999     1310  0     0    
2019/08/16  06:49:02  BASE  4.82748  282  6.80316  281  -9.0  100   -9.0  0     0     993.3    NA       0.0000   9999     1280  0     0    
2019/08/16  06:50:02  BASE  4.7334   282  6.80316  281  -9.0  100   -9.0  0     0     993.3    NA       0.0000   9999     1310  0     0    
2019/08/16  06:51:02  BASE  5.04504  281  6.71496  278  -9.0  100   -9.0  0     0     993.3    NA       0.0000   9999     1350  0     0    
2019/08/16  06:52:02  BASE  5.29788  278  6.3798   281  -9.0  100   -9.0  0     0     993.3    NA       0.0000   9999     1280  0     0    
2019/08/16  06:53:02  BASE  5.18028  275  6.3504   280  -9.0  100   -9.0  0     0     993.4    NA       0.0000   9999     1310  0     0    
2019/08/16  06:54:02  BASE  4.60404  273  6.3504   280  -9.0  100   -9.0  0     0     993.4    NA       0.0000   9999     1310  0     0    
2019/08/16  06:55:02  BASE  4.4982   273  6.3504   280  -9.0  100   -9.0  0     0     993.3    NA       0.0000   9999     1250  0     0    
2019/08/16  06:56:02  BASE  4.77456  274  6.3504   280  -9.0  100   -9.0  0     0     993.3    NA       0.0000   9999     1310  0     0    
2019/08/16  06:57:03  BASE  4.98624  274  6.2034   277  -9.0  100   -9.0  0     0     993.3    NA       0.0000   9999     1310  0     0    
2019/08/16  06:58:02  BASE  5.03916  270  6.2034   277  -9.0  100   -9.0  0     0     993.4    NA       0.0000   9999     1250  0     0    
2019/08/16  06:59:02  BASE  5.22732  270  6.2034   273  -9.0  100   -9.0  0     0     993.4    NA       0.0000   9999     1180  0     0    
2019/08/16  07:00:01  BASE  5.36844  275  6.2034   273  -9.1  100   -9.1  0     0     993.4    NA       0.0000   9999     1250  0     0    
2019/08/16  07:01:02  BASE  4.93332  274  6.2034   273  -9.1  100   -9.1  0     0     993.4    NA       0.0000   9999     1210  0     0    
2019/08/16  07:02:02  BASE  4.77456  275  6.2034   273  -9.1  100   -9.1  0     0     993.4    NA       0.0000   9999     1150  0     0    
2019/08/16  07:03:02  BASE  4.66284  273  6.2034   273  -9.1  100   -9.1  0     0     993.5    NA       0.0000   9999     1210  0     0    
2019/08/16  07:04:03  BASE  4.1454   267  6.2034   273  -9.0  100   -9.0  0     0     993.5    NA       0.0000   9999     1250  0     0    
2019/08/16  07:05:02  BASE  4.62756  264  6.3798   270  -9.0  100   -9.0  0     0     993.4    NA       0.0000   9999     1250  0     0    
2019/08/16  07:06:02  BASE  5.09796  266  6.3798   270  -9.0  100   -9.0  0     0     993.4    NA       0.0000   9999     1250  0     0    
2019/08/16  07:07:02  BASE  4.62756  268  6.3798   270  -9.0  100   -9.0  0     0     993.4    NA       0.0000   9999     1250  0     0    
2019/08/16  07:08:02  BASE  4.68636  268  6.3798   270  -9.0  100   -9.0  0     0     993.4    NA       0.0000   9999     1250  0     0    
2019/08/16  07:09:02  BASE  5.03916  265  6.3798   270  -9.0  100   -9.0  0     0     993.4    NA       0.0000   9999     1180  0     0    
2019/08/16  07:10:02  BASE  5.18616  267  6.3798   270  -9.0  100   -9.0  0     0     993.4    NA       0.0000   9999     1180  0     0    
2019/08/16  07:11:02  BASE  5.15676  273  6.3798   270  -9.0  100   -9.0  0     0     993.4    NA       0.0000   9999     1280  0     0    
2019/08/16  07:12:02  BASE  4.84512  271  6.3798   270  -9.0  100   -9.0  0     0     993.4    NA       0.0000   9999     1250  0     0    
2019/08/16  07:13:01  BASE  4.52172  273  6.3798   270  -9.0  100   -9.0  0     0     993.3    NA       0.0000   9999     1250  0     0    
2019/08/16  07:14:01  BASE  4.6158   275  6.3798   270  -9.0  100   -9.0  0     0     993.3    NA       0.0000   9999     1250  0     0    
2019/08/16  07:15:03  BASE  4.60992  273  6.07992  269  -8.9  100   -8.9  0     0     993.3    NA       0.0000   9999     1280  0     0    
2019/08/16  07:16:02  BASE  4.92156  276  6.07992  273  -8.9  100   -8.9  0     0     993.2    NA       0.0000   9999     1250  0     0    
2019/08/16  07:17:02  BASE  5.78004  274  7.16772  268  -8.9  100   -8.9  0     0     993.2    NA       0.0000   9999     1210  0     0    
2019/08/16  07:18:02  BASE  5.92704  269  7.16772  268  -8.8  100   -8.8  0     0     993.2    NA       0.0000   9999     1210  0     0    
2019/08/16  07:19:02  BASE  5.7918   269  7.3206   275  -8.8  100   -8.8  0     0     993.2    NA       0.0000   9999     1250  0     0    
2019/08/16  07:20:02  BASE  5.95644  270  7.3206   275  -8.8  100   -8.8  0     0     993.2    NA       0.0000   9999     1210  0     0    
2019/08/16  07:21:02  BASE  5.63892  267  7.3206   275  -8.8  100   -8.8  0     0     993.2    NA       0.0000   9999     1250  0     0    
2019/08/16  07:22:02  BASE  4.85688  266  7.3206   275  -8.8  100   -8.8  0     0     993.2    NA       0.0000   9999     1250  0     0    
2019/08/16  07:23:02  BASE  4.78632  269  7.3206   275  -8.8  100   -8.8  0     0     993.2    NA       0.0000   9999     1210  0     0    
2019/08/16  07:24:02  BASE  5.32728  274  7.3206   275  -8.8  100   -8.8  0     0     993.3    NA       0.0000   9999     1280  0     0    
2019/08/16  07:25:01  BASE  5.12148  271  7.3206   275  -8.8  100   -8.8  0     0     993.3    NA       0.0000   9999     1250  0     0    
2019/08/16  07:26:02  BASE  4.9686   262  7.3206   275  -8.8  100   -8.8  0     0     993.3    NA       0.0000   9999     1250  0     0    
2019/08/16  07:27:02  BASE  5.12148  258  7.3206   275  -8.9  100   -8.9  0     0     993.3    NA       0.0000   9999     1210  0     0    
2019/08/16  07:28:02  BASE  4.78632  260  7.3206   275  -8.9  100   -8.9  0     0     993.3    NA       0.0000   9999     1180  0     0    
2019/08/16  07:29:02  BASE  4.36296  265  6.62676  275  -8.9  100   -8.9  0     0     993.3    NA       0.0000   9999     1250  0     0    
2019/08/16  07:30:02  BASE  4.21596  269  6.2034   252  -8.9  100   -8.9  0     0     993.4    NA       0.0000   9999     1180  0     0    
2019/08/16  07:31:02  BASE  4.2336   266  6.2034   252  -8.9  100   -8.9  0     0     993.4    NA       0.0000   9999     1180  0     0    
2019/08/16  07:32:02  BASE  4.30416  263  6.2034   252  -8.9  100   -8.9  0     0     993.4    NA       0.0000   9999     1210  0     0    
2019/08/16  07:33:02  BASE  4.62756  263  5.92704  259  -8.9  100   -8.9  0     0     993.5    NA       0.0000   9999     1180  0     0    
2019/08/16  07:34:02  BASE  4.6158   262  5.92704  259  -8.9  100   -8.9  0     0     993.5    NA       0.0000   9999     1250  0     0    
2019/08/16  07:35:02  BASE  4.4394   260  5.92704  259  -9.0  100   -9.0  0     0     993.5    NA       0.0000   9999     1150  0     0    
2019/08/16  07:36:02  BASE  4.41588  257  5.92704  259  -9.0  100   -9.0  0     0     993.5    NA       0.0000   9999     1120  0     0    
2019/08/16  07:37:02  BASE  4.42764  254  5.80944  263  -9.0  100   -9.0  0     0     993.5    NA       0.0000   9999     1120  0     0    
2019/08/16  07:38:02  BASE  4.26888  255  5.80944  263  -9.0  100   -9.0  0     0     993.5    NA       0.0000   9999     1180  0     0    
2019/08/16  07:39:01  BASE  3.79848  259  5.80944  263  -9.0  100   -9.0  0     0     993.5    NA       0.0000   9999     1250  0     0    
2019/08/16  07:40:02  BASE  3.18696  264  5.80944  263  -9.0  100   -9.0  0     0     993.5    NA       0.0000   9999     1210  0     0    
2019/08/16  07:41:02  BASE  2.63424  266  5.80944  263  -9.0  100   -9.0  0     0     993.5    NA       0.0000   9999     1250  0     0    
2019/08/16  07:42:02  BASE  2.39904  267  5.80944  263  -9.0  100   -9.0  0     0     993.5    NA       0.0000   9999     1150  0     0    
2019/08/16  07:43:01  BASE  2.14032  272  5.35668  246  -9.0  100   -9.0  0     0     993.5    NA       0.0000   9999     1120  0     0    
2019/08/16  07:44:01  BASE  1.84044  280  5.35668  246  -9.0  100   -9.0  0     0     993.5    NA       0.0000   9999     1180  0     0    
2019/08/16  07:45:02  BASE  1.89924  287  5.35668  246  -9.0  100   -9.0  0     0     993.5    NA       0.0000   9999     1280  0     0    
2019/08/16  07:46:02  BASE  2.24616  288  5.35668  246  -9.0  100   -9.0  0     0     993.5    NA       0.0000   9999     1350  0     0    
2019/08/16  07:47:02  BASE  2.646    294  4.62756  252  -9.0  100   -9.0  0     0     993.5    NA       0.0000   9999     1350  0     0    
2019/08/16  07:48:02  BASE  3.53976  296  4.50996  289  -9.0  100   -9.0  0     0     993.5    NA       0.0000   9999     1350  0     0    
2019/08/16  07:49:02  BASE  4.22184  292  4.59816  294  -9.0  100   -9.0  0     0     993.4    NA       0.0000   9999     1350  0     0    
2019/08/16  07:50:02  BASE  4.1454   291  4.59816  294  -9.0  100   -9.0  0     0     993.4    NA       0.0000   9999     1310  0     0    
2019/08/16  07:51:02  BASE  3.93372  294  4.59816  294  -9.1  100   -9.1  0     0     993.4    NA       0.0000   9999     1310  0     0    
2019/08/16  07:52:02  BASE  3.90432  299  4.59816  294  -9.1  100   -9.1  0     0     993.4    NA       0.0000   9999     1410  0     0    
2019/08/16  07:53:02  BASE  3.822    301  4.59816  294  -9.1  100   -9.1  0     0     993.4    NA       0.0000   9999     1410  0     0    
2019/08/16  07:54:02  BASE  3.71028  299  4.59816  294  -9.2  100   -9.2  0     0     993.4    NA       0.0000   9999     1310  0     0    
2019/08/16  07:55:02  BASE  3.63384  300  4.59816  294  -9.2  100   -9.2  0     0     993.4    NA       0.0000   9999     1310  0     0    
2019/08/16  07:56:02  BASE  3.50448  304  4.59816  294  -9.2  100   -9.2  0     0     993.4    NA       0.0000   9999     1410  0     0    
2019/08/16  07:57:02  BASE  3.31632  304  4.59816  294  -9.2  100   -9.2  0     0     993.4    NA       0.0000   9999     1380  0     0    
2019/08/16  07:58:01  BASE  3.19872  304  4.59816  294  -9.2  100   -9.2  0     0     993.4    NA       0.0000   9999     1350  0     0    
2019/08/16  07:59:02  BASE  3.16344  303  4.38648  291  -9.2  100   -9.2  0     0     993.4    NA       0.0000   9999     1280  0     0    
2019/08/16  08:00:02  BASE  3.03408  301  4.116    299  -9.2  100   -9.2  0     0     993.4    NA       0.0000   9999     1250  0     0    
2019/08/16  08:01:02  BASE  3.28104  297  4.116    299  -9.2  100   -9.2  0     0     993.3    NA       0.0000   9999     1280  0     0    
2019/08/16  08:02:02  BASE  3.59268  296  4.35708  287  -9.1  100   -9.1  0     0     993.4    NA       0.0000   9999     1350  0     0    
2019/08/16  08:03:02  BASE  3.55152  300  4.35708  287  -9.1  100   -9.1  0     0     993.4    NA       0.0000   9999     1380  0     0    
2019/08/16  08:04:03  BASE  3.31632  299  4.35708  287  -9.1  100   -9.1  0     0     993.4    NA       0.0000   9999     1380  0     0    
2019/08/16  08:05:02  BASE  3.06936  288  4.35708  287  -9.1  100   -9.1  0     0     993.4    NA       0.0000   9999     1380  0     0    
2019/08/16  08:06:02  BASE  3.01644  276  4.35708  287  -9.1  100   -9.1  0     0     993.5    NA       0.0000   9999     1380  0     0    
2019/08/16  08:07:02  BASE  2.92236  276  4.35708  287  -9.1  100   -9.1  0     0     993.5    NA       0.0000   9999     1410  0     0    
2019/08/16  08:08:02  BASE  2.9694   278  4.35708  287  -9.1  100   -9.1  0     0     993.5    NA       0.0000   9999     1380  0     0    
2019/08/16  08:09:02  BASE  2.94588  276  4.35708  287  -9.1  100   -9.1  0     0     993.4    NA       0.0000   9999     1380  0     0    
2019/08/16  08:10:02  BASE  2.9106   269  4.35708  287  -9.1  100   -9.2  0     0     993.4    NA       0.0000   9999     1380  0     0    
2019/08/16  08:11:02  BASE  3.2046   269  4.38648  268  -9.2  100   -9.2  0     0     993.3    NA       0.0000   9999     1280  0     0    
2019/08/16  08:12:02  BASE  3.6162   279  4.41588  291  -9.2  99    -9.3  0     0     993.3    NA       0.0000   9999     1210  0     0    
2019/08/16  08:13:02  BASE  3.8808   290  4.41588  291  -9.2  99    -9.3  0     0     993.3    NA       0.0000   9999     1180  0     0    
2019/08/16  08:14:01  BASE  4.03956  294  4.65696  289  -9.2  99    -9.4  0     0     993.3    NA       0.0000   9999     1210  0     0    
2019/08/16  08:15:02  BASE  4.23948  292  4.65696  289  -9.2  98    -9.4  0     0     993.3    NA       0.0000   9999     1350  0     0    
2019/08/16  08:16:02  BASE  4.3218   290  4.65696  289  -9.2  98    -9.5  0     0     993.3    NA       0.0000   9999     1440  0     0    
2019/08/16  08:17:02  BASE  4.2336   287  4.65696  289  -9.2  98    -9.5  0     0     993.3    NA       0.0000   9999     1350  0     0    
2019/08/16  08:18:02  BASE  3.98664  285  4.65696  289  -9.2  97    -9.5  0     0     993.4    NA       0.0000   9999     1540  0     0    
2019/08/16  08:19:02  BASE  3.72204  286  4.65696  289  -9.2  97    -9.6  0     0     993.4    NA       0.0000   9999     1510  0     0    
2019/08/16  08:20:02  BASE  4.23948  287  5.59776  287  -9.2  97    -9.7  0     0     993.4    NA       0.0000   9999     1480  0     0    
2019/08/16  08:21:02  BASE  4.97448  288  5.59776  287  -9.2  96    -9.7  0     0     993.4    NA       0.0000   9999     1480  0     0    
2019/08/16  08:22:03  BASE  4.89216  287  5.59776  287  -9.2  96    -9.7  0     0     993.4    NA       0.0000   9999     1440  0     0    
2019/08/16  08:23:02  BASE  4.92744  288  5.59776  287  -9.3  96    -9.8  0     0     993.4    NA       0.0000   9999     1350  0     0    
2019/08/16  08:24:02  BASE  5.01564  285  5.59776  287  -9.3  96    -9.8  0     0     993.4    NA       0.0000   9999     1350  0     0    
2019/08/16  08:25:02  BASE  4.7334   279  5.59776  287  -9.4  96    -9.9  0     0     993.5    NA       0.0000   9999     1410  0     0    
2019/08/16  08:26:02  BASE  4.53936  277  5.59776  287  -9.4  96    -9.9  0     0     993.5    NA       0.0000   9999     1480  0     0    
2019/08/16  08:27:02  BASE  4.2042   276  5.59776  287  -9.4  96    -9.9  0     0     993.5    NA       0.0000   9999     1510  0     0    
2019/08/16  08:28:02  BASE  3.89844  277  5.59776  287  -9.4  96    -9.9  0     0     993.6    NA       0.0000   9999     1510  0     0    
2019/08/16  08:29:01  BASE  3.7926   275  5.59776  287  -9.4  97    -9.8  0     0     993.6    NA       0.0000   9999     1440  0     0    
2019/08/16  08:30:02  BASE  3.72792  271  5.47428  277  -9.4  97    -9.8  0     0     993.6    NA       0.0000   9999     1410  0     0    
2019/08/16  08:31:02  BASE  3.90432  270  5.47428  277  -9.4  97    -9.8  0     0     993.6    NA       0.0000   9999     1410  0     0    
2019/08/16  08:32:02  BASE  3.81612  270  5.47428  277  -9.4  97    -9.8  0     0     993.6    NA       0.0000   9999     1350  0     0    
2019/08/16  08:33:02  BASE  3.68676  274  5.47428  277  -9.4  97    -9.8  0     0     993.5    NA       0.0000   9999     1380  0     0    
2019/08/16  08:34:02  BASE  3.7338   276  5.41548  277  -9.4  97    -9.8  0     0     993.5    NA       0.0000   9999     1350  0     0    
2019/08/16  08:35:02  BASE  3.56328  272  4.96272  271  -9.4  97    -9.8  0     0     993.5    NA       0.0000   9999     1350  0     0    
2019/08/16  08:36:02  BASE  3.5868   270  4.93332  273  -9.4  97    -9.7  0     0     993.5    NA       0.0000   9999     1350  0     0    
2019/08/16  08:37:02  BASE  3.99252  274  4.93332  273  -9.4  98    -9.7  0     0     993.5    NA       0.0000   9999     1280  0     0    
2019/08/16  08:38:02  BASE  4.09836  273  4.93332  273  -9.4  98    -9.7  0     0     993.5    NA       0.0000   9999     1280  0     0    
2019/08/16  08:39:02  BASE  4.0572   271  4.93332  273  -9.4  98    -9.7  0     0     993.5    NA       0.0000   9999     1440  0     0    
2019/08/16  08:40:01  BASE  3.75732  275  4.72164  272  -9.4  98    -9.7  0     0     993.5    NA       0.0000   9999     1350  0     0    
2019/08/16  08:41:02  BASE  3.2046   277  4.72164  272  -9.4  98    -9.7  0     0     993.5    NA       0.0000   9999     1350  0     0    
2019/08/16  08:42:02  BASE  2.98704  276  4.72164  272  -9.5  98    -9.7  0     0     993.5    NA       0.0000   9999     1350  0     0    
2019/08/16  08:43:02  BASE  3.01644  270  4.72164  272  -9.5  98    -9.7  0     0     993.5    NA       0.0000   9999     1310  0     0    
2019/08/16  08:44:02  BASE  2.95176  269  4.72164  272  -9.5  98    -9.8  0     0     993.5    NA       0.0000   9999     1310  0     0    
2019/08/16  08:45:02  BASE  2.22852  269  4.72164  272  -9.5  98    -9.8  0     0     993.5    NA       0.0000   9999     1380  0     0    
2019/08/16  08:46:02  BASE  1.76988  260  4.72164  272  -9.5  98    -9.8  0     0     993.5    NA       0.0000   9999     1440  0     0    
2019/08/16  08:47:02  BASE  1.54056  264  4.72164  272  -9.5  98    -9.7  0     0     993.5    NA       0.0000   9999     1410  0     0    
2019/08/16  08:48:02  BASE  1.01136  277  4.59816  272  -9.5  98    -9.7  0     0     993.5    NA       0.0000   9999     1410  0     0    
2019/08/16  08:49:01  BASE  1.21128  290  3.96312  279  -9.4  99    -9.6  0     0     993.5    NA       0.0000   9999     1410  0     0    
2019/08/16  08:50:01  BASE  1.72284  301  3.75144  267  -9.4  99    -9.6  0     0     993.4    NA       0.0000   9999     1410  0     0    
2019/08/16  08:51:02  BASE  1.90512  298  3.59856  271  -9.4  99    -9.5  0     0     993.4    NA       0.0000   9999     1410  0     0    
2019/08/16  08:52:02  BASE  1.8522   279  3.59856  271  -9.4  99    -9.5  0     0     993.5    NA       0.0000   9999     1410  0     0    
2019/08/16  08:53:02  BASE  1.75812  262  3.59856  271  -9.4  99    -9.5  0     0     993.5    NA       0.0000   9999     1350  0     0    
2019/08/16  08:54:01  BASE  1.98156  263  2.69304  269  -9.4  99    -9.5  0     0     993.4    NA       0.0000   9999     1210  0     0    
2019/08/16  08:55:02  BASE  2.04624  275  2.69304  269  -9.4  99    -9.5  0     0     993.4    NA       0.0000   9999     1250  0     0    
2019/08/16  08:56:02  BASE  2.0286   283  2.69304  269  -9.4  99    -9.5  0     0     993.3    NA       0.0000   9999     1250  0     0    
2019/08/16  08:57:02  BASE  2.24616  282  2.69304  269  -9.4  99    -9.5  0     0     993.3    NA       0.0000   9999     1310  0     0    
2019/08/16  08:58:02  BASE  2.19912  287  2.69304  269  -9.4  99    -9.5  0     0     993.3    NA       0.0000   9999     1310  0     0    
2019/08/16  08:59:02  BASE  2.00508  291  2.69304  269  -9.4  99    -9.5  0     0     993.3    NA       0.0000   9999     1350  0     0    
2019/08/16  09:00:02  BASE  1.61112  287  2.69304  269  -9.4  99    -9.5  0     0     993.3    NA       0.0000   9999     1310  0     0    
2019/08/16  09:01:01  BASE  1.55232  289  2.69304  269  -9.4  99    -9.5  0     0     993.3    NA       0.0000   9999     1210  0     0    
2019/08/16  09:02:02  BASE  1.92276  293  2.69304  269  -9.4  99    -9.5  0     0     993.3    NA       0.0000   9999     1280  0     0    
2019/08/16  09:03:02  BASE  2.31084  294  2.78124  292  -9.4  99    -9.5  0     0     993.3    NA       0.0000   9999     1380  0     0    
2019/08/16  09:04:03  BASE  2.49312  297  2.78124  292  -9.4  99    -9.5  0     0     993.3    NA       0.0000   9999     1380  0     0    
2019/08/16  09:05:02  BASE  2.04036  298  2.78124  292  -9.4  99    -9.5  0     0     993.4    NA       0.0000   9999     1410  0     0    
2019/08/16  09:06:02  BASE  1.4994   304  2.78124  292  -9.4  99    -9.5  0     0     993.4    NA       0.0000   9999     1440  0     0    
2019/08/16  09:07:02  BASE  1.2054   302  2.78124  292  -9.4  100   -9.5  0     0     993.4    NA       0.0000   9999     1410  0     0    
2019/08/16  09:08:02  BASE  1.029    291  2.78124  292  -9.4  100   -9.4  0     0     993.4    NA       0.0000   9999     1410  0     0    
2019/08/16  09:09:02  BASE  1.43472  276  2.78124  292  -9.4  100   -9.4  0     0     993.5    NA       0.0000   9999     1380  0     0    
2019/08/16  09:10:02  BASE  1.8522   271  2.78124  292  -9.4  100   -9.4  0     0     993.5    NA       0.0000   9999     1350  0     0    
2019/08/16  09:11:02  BASE  1.75224  275  2.78124  292  -9.4  100   -9.4  0     0     993.5    NA       0.0000   9999     1350  0     0    
2019/08/16  09:12:02  BASE  1.47588  275  2.78124  292  -9.4  100   -9.4  0     0     993.5    NA       0.0000   9999     1350  0     0    
2019/08/16  09:13:02  BASE  1.28184  271  2.63424  296  -9.4  100   -9.4  0     0     993.5    NA       0.0000   9999     1380  0     0    
2019/08/16  09:14:02  BASE  1.01724  269  2.1462   278  -9.4  100   -9.4  0     0     993.5    NA       0.0000   9999     1380  0     0    
2019/08/16  09:15:02  BASE  0.6468   278  2.1462   278  -9.3  100   -9.3  0     0     993.4    NA       0.0000   9999     1280  0     0    
2019/08/16  09:16:02  BASE  0.37044  285  2.1462   278  -9.3  100   -9.3  0     0     993.4    NA       0.0000   9999     1310  0     0    
2019/08/16  09:17:02  BASE  0.22344  296  2.1462   278  -9.3  100   -9.3  0     0     993.4    NA       0.0000   9999     1350  0     0    
2019/08/16  09:18:02  BASE  0.37044  292  2.1462   278  -9.3  100   -9.3  0     0     993.4    NA       0.0000   9999     1310  0     0    
2019/08/16  09:19:01  BASE  0.59388  304  2.1462   278  -9.3  100   -9.3  0     0     993.4    NA       0.0000   9999     1350  0     0    
2019/08/16  09:20:02  BASE  0.87612  327  1.90512  280  -9.3  100   -9.3  0     0     993.4    NA       0.0000   9999     1280  0     0    
2019/08/16  09:21:02  BASE  1.0878   335  1.66404  266  -9.3  100   -9.3  0     0     993.4    NA       0.0000   9999     1250  0     0    
2019/08/16  09:22:02  BASE  1.18776  345  1.66404  266  -9.4  100   -9.4  0     0     993.3    NA       0.0000   9999     1210  0     0    
2019/08/16  09:23:02  BASE  1.39944  348  1.57584  355  -9.4  100   -9.4  0     0     993.3    NA       0.0000   9999     1310  0     0    
2019/08/16  09:24:01  BASE  1.28184  355  1.57584  355  -9.5  100   -9.5  0     0     993.3    NA       0.0000   9999     1380  0     0    
2019/08/16  09:25:02  BASE  1.19364  3    1.60524  3    -9.5  100   -9.5  0     0     993.3    NA       0.0000   9999     1440  0     0    
2019/08/16  09:26:02  BASE  1.30536  10   1.60524  3    -9.6  100   -9.6  0     0     993.3    NA       0.0000   9999     1410  0     0    
2019/08/16  09:27:02  BASE  1.15248  18   1.60524  3    -9.6  100   -9.6  0     0     993.4    NA       0.0000   9999     1380  0     0    
2019/08/16  09:28:02  BASE  1.2054   23   1.75224  25   -9.6  100   -9.6  0     0     993.4    NA       0.0000   9999     1350  0     0    
2019/08/16  09:29:02  BASE  1.4112   17   1.75224  25   -9.6  100   -9.6  0     0     993.5    NA       0.0000   9999     1250  0     0    
2019/08/16  09:30:02  BASE  1.48176  9    1.78752  7    -9.6  100   -9.6  0     0     993.5    NA       0.0000   9999     1250  0     0    
2019/08/16  09:31:02  BASE  1.59936  353  1.87572  355  -9.5  100   -9.5  0     0     993.5    NA       0.0000   9999     1150  0     0    
2019/08/16  09:32:02  BASE  1.74048  340  2.0286   335  -9.5  100   -9.5  0     0     993.5    NA       0.0000   9999     1280  0     0    
2019/08/16  09:33:01  BASE  1.8228   335  2.1168   337  -9.4  100   -9.4  0     0     993.5    NA       0.0000   9999     1250  0     0    
2019/08/16  09:34:01  BASE  2.08152  331  2.69304  331  -9.4  100   -9.4  0     0     993.5    NA       0.0000   9999     1250  0     0    
2019/08/16  09:35:02  BASE  2.31084  331  2.69304  331  -9.3  100   -9.3  0     0     993.5    NA       0.0000   9999     1250  0     0    
2019/08/16  09:36:02  BASE  2.3814   335  2.69304  331  -9.3  100   -9.3  0     0     993.5    NA       0.0000   9999     1250  0     0    
2019/08/16  09:37:02  BASE  2.59896  337  2.96352  335  -9.2  100   -9.2  0     0     993.4    NA       0.0000   9999     1250  0     0    
2019/08/16  09:38:01  BASE  2.78124  337  2.96352  339  -9.2  100   -9.2  0     0     993.4    NA       0.0000   9999     1250  0     0    
2019/08/16  09:39:02  BASE  2.64012  339  2.96352  339  -9.2  100   -9.2  0     0     993.4    NA       0.0000   9999     1350  0     0    
2019/08/16  09:40:01  BASE  2.28144  340  2.96352  339  -9.2  100   -9.2  0     0     993.4    NA       0.0000   9999     1440  0     0    
2019/08/16  09:41:02  BASE  2.54604  338  3.1458   338  -9.2  100   -9.2  0     0     993.4    NA       0.0000   9999     1440  0     0    
2019/08/16  09:42:02  BASE  2.95176  338  3.1458   338  -9.2  100   -9.2  0     0     993.4    NA       0.0000   9999     1440  0     0    
2019/08/16  09:43:02  BASE  2.90472  340  3.1458   338  -9.2  100   -9.2  0     0     993.4    NA       0.0000   9999     1380  0     0    
2019/08/16  09:44:01  BASE  3.11052  344  3.56916  342  -9.2  100   -9.2  0     0     993.3    NA       0.0000   9999     1310  0     0    
2019/08/16  09:45:03  BASE  2.98704  342  3.56916  342  -9.2  100   -9.2  0     0     993.3    NA       0.0000   9999     1280  0     0    
2019/08/16  09:46:02  BASE  2.55192  346  3.56916  342  -9.2  100   -9.2  0     0     993.3    NA       0.0000   9999     1380  0     0    
2019/08/16  09:47:02  BASE  2.66364  345  3.56916  342  -9.2  100   -9.2  0     0     993.3    NA       0.0000   9999     1380  0     0    
2019/08/16  09:48:02  BASE  2.68128  336  3.56916  342  -9.1  100   -9.1  0     0     993.3    NA       0.0000   9999     1380  0     0    
2019/08/16  09:49:02  BASE  2.499    339  3.56916  342  -9.1  100   -9.1  0     0     993.3    NA       0.0000   9999     1280  0     0    
2019/08/16  09:50:02  BASE  2.4696   336  3.56916  342  -9.1  100   -9.1  0     0     993.3    NA       0.0000   9999     1310  0     0    
2019/08/16  09:51:02  BASE  2.8812   332  3.59856  346  -9.1  100   -9.1  0     0     993.3    NA       0.0000   9999     1310  0     0    
2019/08/16  09:52:01  BASE  3.22224  331  3.72204  336  -9.1  100   -9.1  0     0     993.3    NA       0.0000   9999     1380  0     0    
2019/08/16  09:53:02  BASE  3.01056  335  3.72204  336  -9.1  100   -9.1  0     0     993.3    NA       0.0000   9999     1350  0     0    
2019/08/16  09:54:02  BASE  2.84004  348  3.72204  336  -9.1  100   -9.1  0     0     993.3    NA       0.0000   9999     1310  0     0    
2019/08/16  09:55:02  BASE  2.49312  348  3.72204  336  -9.0  100   -9.0  0     0     993.3    NA       0.0000   9999     1280  0     0    
2019/08/16  09:56:02  BASE  2.51664  351  3.72204  336  -9.0  100   -9.0  0     0     993.4    NA       0.0000   9999     1310  0     0    
2019/08/16  09:57:02  BASE  2.8812   353  3.81024  360  -9.0  100   -9.0  0     0     993.4    NA       0.0000   9999     1350  0     0    
2019/08/16  09:58:01  BASE  3.09876  356  3.81024  360  -9.1  100   -9.1  0     0     993.4    NA       0.0000   9999     1310  0     0    
2019/08/16  09:59:02  BASE  2.99292  359  3.81024  360  -9.1  100   -9.1  0     0     993.4    NA       0.0000   9999     1350  0     0    
2019/08/16  10:00:01  BASE  2.89884  359  3.81024  360  -9.1  100   -9.1  0     0     993.3    NA       0.0000   9999     1250  0     0    
2019/08/16  10:01:02  BASE  2.71656  351  3.81024  360  -9.1  100   -9.1  0     0     993.3    NA       0.0000   9999     1280  0     0    
2019/08/16  10:02:02  BASE  2.55192  348  3.81024  360  -9.1  100   -9.1  0     0     993.3    NA       0.0000   9999     1310  0     0    
2019/08/16  10:03:02  BASE  2.59896  356  3.81024  360  -9.1  100   -9.1  0     0     993.3    NA       0.0000   9999     1310  0     0    
2019/08/16  10:04:03  BASE  2.51664  351  3.81024  360  -9.1  100   -9.1  0     0     993.3    NA       0.0000   9999     1310  0     0    
2019/08/16  10:05:02  BASE  2.48136  340  3.81024  360  -9.1  100   -9.1  0     0     993.4    NA       0.0000   9999     1350  0     0    
2019/08/16  10:06:01  BASE  2.34612  326  3.81024  360  -9.1  100   -9.1  0     0     993.4    NA       0.0000   9999     1280  0     0    
2019/08/16  10:07:02  BASE  2.34024  308  3.59856  2    -9.1  100   -9.1  0     0     993.5    NA       0.0000   9999     1310  0     0    
2019/08/16  10:08:01  BASE  2.1168   299  3.26928  1    -9.1  100   -9.1  0     0     993.5    NA       0.0000   9999     1350  0     0    
2019/08/16  10:09:01  BASE  1.8228   309  3.26928  1    -9.1  100   -9.1  0     0     993.5    NA       0.0000   9999     1410  0     0    
2019/08/16  10:10:02  BASE  1.617    306  3.2046   352  -9.1  100   -9.1  0     0     993.5    NA       0.0000   9999     1380  0     0    
2019/08/16  10:11:02  BASE  1.92864  281  3.2046   266  -9.1  100   -9.1  0     0     993.4    NA       0.0000   9999     1310  0     0    
2019/08/16  10:12:03  BASE  2.48724  273  3.2046   266  -9.1  100   -9.1  0     0     993.4    NA       0.0000   9999     1210  0     0    
2019/08/16  10:13:02  BASE  2.93412  278  3.86904  273  -9.1  100   -9.1  0     0     993.3    NA       0.0000   9999     1250  0     0    
2019/08/16  10:14:02  BASE  3.39864  278  4.08072  276  -9.1  100   -9.1  0     0     993.3    NA       0.0000   9999     1310  0     0    
2019/08/16  10:15:02  BASE  3.3222   276  4.08072  276  -9.0  100   -9.0  0     0     993.3    NA       0.0000   9999     1310  0     0    
2019/08/16  10:16:01  BASE  3.08112  277  4.08072  276  -9.0  100   -9.0  0     0     993.3    NA       0.0000   9999     1310  0     0    
2019/08/16  10:17:02  BASE  3.0282   279  4.08072  276  -9.0  100   -9.0  0     0     993.3    NA       0.0000   9999     1280  0     0    
2019/08/16  10:18:02  BASE  3.06936  272  4.08072  276  -8.9  100   -8.9  0     0     993.3    NA       0.0000   9999     1210  0     0    
2019/08/16  10:19:01  BASE  3.55152  261  4.35708  257  -8.9  100   -8.9  0     0     993.4    NA       0.0000   9999     1310  0     0    
2019/08/16  10:20:02  BASE  3.88668  259  4.35708  257  -8.9  100   -8.9  0     0     993.4    NA       0.0000   9999     1350  0     0    
2019/08/16  10:21:01  BASE  3.57504  259  4.35708  257  -9.0  100   -9.0  0     0     993.4    NA       0.0000   9999     1350  0     0    
2019/08/16  10:22:01  BASE  3.71616  263  4.38648  259  -9.0  100   -9.0  0     0     993.4    NA       0.0000   9999     1250  0     0    
2019/08/16  10:23:02  BASE  3.59268  268  4.38648  259  -9.0  100   -9.0  0     0     993.4    NA       0.0000   9999     1310  0     0    
2019/08/16  10:24:02  BASE  3.23988  267  4.38648  259  -9.1  100   -9.1  0     0     993.4    NA       0.0000   9999     1280  0     0    
2019/08/16  10:25:02  BASE  3.7632   259  4.72164  251  -9.1  100   -9.1  0     0     993.4    NA       0.0000   9999     1250  0     0    
2019/08/16  10:26:02  BASE  4.39824  251  4.78044  246  -9.1  100   -9.1  0     0     993.5    NA       0.0000   9999     1250  0     0    
2019/08/16  10:27:02  BASE  4.4982   247  4.80984  245  -9.1  100   -9.1  0     0     993.6    NA       0.0000   9999     1210  0     0    
2019/08/16  10:28:02  BASE  4.26888  243  4.80984  245  -9.2  100   -9.2  0     0     993.7    NA       0.0000   9999     1250  0     0    
2019/08/16  10:29:02  BASE  3.89256  241  4.80984  245  -9.2  100   -9.2  0     0     993.7    NA       0.0000   9999     1410  0     0    
2019/08/16  10:30:01  BASE  3.58092  242  4.80984  245  -9.2  100   -9.2  0     0     993.9    NA       0.0000   9999     1380  0     0    
2019/08/16  10:31:01  BASE  3.44568  239  4.80984  245  -9.2  100   -9.2  0     0     993.9    NA       0.0000   9999     1350  0     0    
2019/08/16  10:32:01  BASE  3.33396  234  4.80984  245  -9.2  100   -9.2  0     0     993.9    NA       0.0000   9999     1440  0     0    
2019/08/16  10:33:01  BASE  3.1752   234  4.80984  245  -9.2  100   -9.2  0     0     993.9    NA       0.0000   9999     1440  0     0    
2019/08/16  10:34:01  BASE  3.16344  242  4.80984  245  -9.2  100   -9.2  0     0     993.9    NA       0.0000   9999     1350  0     0    
2019/08/16  10:35:02  BASE  3.41628  249  4.80984  245  -9.2  100   -9.2  0     0     993.9    NA       0.0000   9999     1410  0     0    
2019/08/16  10:36:02  BASE  3.41628  251  4.80984  245  -9.2  100   -9.2  0     0     993.9    NA       0.0000   9999     1310  0     0    
2019/08/16  10:37:02  BASE  3.34572  252  4.41588  243  -9.2  100   -9.2  0     0     993.9    NA       0.0000   9999     1350  0     0    
2019/08/16  10:38:02  BASE  3.37512  253  4.2042   253  -9.2  100   -9.2  0     0     993.9    NA       0.0000   9999     1380  0     0    
2019/08/16  10:39:02  BASE  3.13404  257  4.2042   253  -9.2  99    -9.3  0     0     993.9    NA       0.0000   9999     1310  0     0    
2019/08/16  10:40:02  BASE  2.76948  257  4.2042   253  -9.2  99    -9.3  0     0     993.9    NA       0.0000   9999     1350  0     0    
2019/08/16  10:41:01  BASE  2.49312  260  4.2042   253  -9.3  99    -9.4  0     0     993.9    NA       0.0000   9999     1310  0     0    
2019/08/16  10:42:01  BASE  2.68716  264  4.2042   253  -9.3  99    -9.4  0     0     993.8    NA       0.0000   9999     1310  0     0    
2019/08/16  10:43:01  BASE  2.80476  266  4.2042   253  -9.2  99    -9.4  0     0     993.8    NA       0.0000   9999     1250  0     0    
2019/08/16  10:44:01  BASE  2.54604  264  4.2042   253  -9.2  99    -9.3  0     0     993.9    NA       0.0000   9999     1380  0     0    
2019/08/16  10:45:02  BASE  2.24616  259  3.81024  252  -9.2  99    -9.3  0     0     994.0    NA       0.0000   9999     1410  0     0    
2019/08/16  10:46:02  BASE  2.06388  255  3.81024  252  -9.1  99    -9.3  0     0     994.0    NA       0.0000   9999     1410  0     0    
2019/08/16  10:47:02  BASE  1.93452  252  3.44568  252  -9.1  99    -9.3  0     0     994.0    NA       0.0000   9999     1410  0     0    
2019/08/16  10:48:02  BASE  1.764    255  3.35748  266  -9.1  99    -9.3  0     0     994.1    NA       0.0000   9999     1410  0     0    
2019/08/16  10:49:02  BASE  1.71108  258  3.35748  266  -9.2  99    -9.3  0     0     994.1    NA       0.0000   9999     1380  0     0    
2019/08/16  10:50:02  BASE  1.55232  260  3.35748  266  -9.2  99    -9.3  0     0     994.1    NA       0.0000   9999     1350  0     0    
2019/08/16  10:51:01  BASE  1.05252  260  3.35748  266  -9.2  99    -9.3  0     0     994.1    NA       0.0000   9999     1380  0     0    
2019/08/16  10:52:02  BASE  0.735    258  2.90472  268  -9.2  99    -9.3  0     0     994.1    NA       0.0000   9999     1350  0     0    
2019/08/16  10:53:01  BASE  0.75264  254  2.66364  253  -9.1  99    -9.3  0     0     994.1    NA       0.0000   9999     1350  0     0    
2019/08/16  10:54:02  BASE  0.54684  263  2.54016  255  -9.1  99    -9.3  0     0     994.1    NA       0.0000   9999     1350  0     0    
2019/08/16  10:55:02  BASE  0.54684  288  2.32848  253  -9.1  99    -9.3  0     0     994.0    NA       0.0000   9999     1380  0     0    
2019/08/16  10:56:02  BASE  0.77616  305  1.96392  256  -9.1  98    -9.3  0     0     994.0    NA       0.0000   9999     1380  0     0    
2019/08/16  10:57:02  BASE  0.82908  318  1.87572  258  -9.1  98    -9.3  0     0     993.9    NA       0.0000   9999     1410  0     0    
2019/08/16  10:58:02  BASE  0.8526   332  1.87572  258  -9.1  98    -9.4  0     0     993.9    NA       0.0000   9999     1410  0     0    
2019/08/16  10:59:01  BASE  0.89964  326  1.57584  260  -9.1  98    -9.4  0     0     993.9    NA       0.0000   9999     1440  0     0    
2019/08/16  11:00:02  BASE  1.07604  314  1.29948  327  -9.1  98    -9.4  0     0     993.9    NA       0.0000   9999     1480  0     0    
2019/08/16  11:01:02  BASE  1.22892  318  1.42296  326  -9.2  98    -9.4  0     0     993.9    NA       0.0000   9999     1410  0     0    
2019/08/16  11:02:02  BASE  1.12308  317  1.42296  326  -9.2  99    -9.3  0     0     994.0    NA       0.0000   9999     1410  0     0    
2019/08/16  11:03:02  BASE  0.75852  304  1.42296  326  -9.2  99    -9.3  0     0     994.0    NA       0.0000   9999     1480  0     0    
2019/08/16  11:04:03  BASE  0.33516  281  1.42296  326  -9.2  99    -9.3  0     0     994.1    NA       0.0000   9999     1540  0     0    
2019/08/16  11:05:02  BASE  0.2352   264  1.42296  326  -9.2  99    -9.3  0     0     994.0    NA       0.0000   9999     1540  0     0    
2019/08/16  11:06:02  BASE  0.63504  247  1.42296  326  -9.2  99    -9.3  0     0     994.0    NA       0.0000   9999     1510  0     0    
2019/08/16  11:07:02  BASE  1.34064  228  2.38728  238  -9.2  99    -9.4  0     0     994.0    NA       0.0000   9999     1510  0     0    
2019/08/16  11:08:01  BASE  2.46372  221  3.59856  221  -9.2  99    -9.4  0     0     994.1    NA       0.0000   9999     1440  0     0    
2019/08/16  11:09:02  BASE  3.381    218  3.81024  215  -9.3  99    -9.4  0     0     994.1    NA       0.0000   9999     1510  0     0    
2019/08/16  11:10:02  BASE  3.78084  210  4.29828  205  -9.3  99    -9.4  0     0     994.2    NA       0.0000   9999     1510  0     0    
2019/08/16  11:11:02  BASE  4.06308  205  4.38648  206  -9.3  99    -9.4  0     0     994.3    NA       0.0000   9999     1610  0     0    
2019/08/16  11:12:02  BASE  4.18656  209  4.47468  209  -9.3  99    -9.4  0     0     994.4    NA       0.0000   9999     1570  0     0    
2019/08/16  11:13:01  BASE  4.28652  213  4.65696  212  -9.2  99    -9.4  0     0     994.4    NA       0.0000   9999     1610  0     0    
2019/08/16  11:14:01  BASE  4.37472  212  4.75104  210  -9.2  99    -9.4  0     0     994.5    NA       0.0000   9999     1540  0     0    
2019/08/16  11:15:02  BASE  4.19832  213  4.75104  210  -9.2  99    -9.4  0     0     994.4    NA       0.0000   9999     1540  0     0    
2019/08/16  11:16:01  BASE  4.06308  214  4.75104  210  -9.2  98    -9.4  0     0     994.4    NA       0.0000   9999     1540  0     0    
2019/08/16  11:17:02  BASE  4.25712  212  5.02152  221  -9.2  98    -9.4  0     0     994.5    NA       0.0000   9999     1540  0     0    
2019/08/16  11:18:02  BASE  4.19244  210  5.02152  221  -9.2  98    -9.5  0     0     994.5    NA       0.0000   9999     1610  0     0    
2019/08/16  11:19:02  BASE  4.12188  213  5.02152  221  -9.2  98    -9.5  0     0     994.6    NA       0.0000   9999     1570  0     0    
2019/08/16  11:20:02  BASE  4.23948  211  5.02152  221  -9.3  98    -9.5  0     0     994.6    NA       0.0000   9999     1640  0     0    
2019/08/16  11:21:02  BASE  4.26888  206  5.02152  221  -9.3  98    -9.6  0     0     994.6    NA       0.0000   9999     1640  0     0    
2019/08/16  11:22:02  BASE  4.1748   202  5.02152  221  -9.3  98    -9.6  0     0     994.6    NA       0.0000   9999     1610  0     0    
2019/08/16  11:23:02  BASE  4.00428  203  5.02152  221  -9.3  98    -9.6  0     0     994.6    NA       0.0000   9999     0     0     0    
2019/08/16  11:24:01  BASE  3.9102   205  5.02152  221  -9.3  98    -9.6  0     0     994.6    NA       0.0000   9999     0     0     0    
2019/08/16  11:25:02  BASE  3.83964  203  5.02152  221  -9.4  98    -9.7  0     0     994.6    NA       0.0000   9999     0     0     0    
2019/08/16  11:26:02  BASE  3.7632   199  5.02152  221  -9.4  97    -9.7  0     0     994.6    NA       0.0000   9999     0     0     0    
2019/08/16  11:27:02  BASE  3.6162   202  4.99212  214  -9.4  97    -9.7  0     0     994.6    NA       0.0000   9999     0     0     0    
2019/08/16  11:28:02  BASE  3.60444  206  4.99212  214  -9.4  97    -9.8  0     0     994.7    NA       0.0000   9999     0     0     0    
2019/08/16  11:29:02  BASE  3.69264  204  4.99212  214  -9.4  97    -9.8  0     0     994.7    NA       0.0000   9999     0     0     0    
2019/08/16  11:30:02  BASE  3.48096  207  4.68636  206  -9.4  97    -9.8  0     0     994.7    NA       0.0000   9999     0     0     0    
2019/08/16  11:31:02  BASE  3.087    206  4.263    205  -9.4  97    -9.8  0     0     994.7    NA       0.0000   9999     0     0     0    
2019/08/16  11:32:01  BASE  2.92236  208  4.263    205  -9.4  97    -9.8  0     0     994.7    NA       0.0000   9999     0     0     0    
2019/08/16  11:33:02  BASE  2.99292  210  4.1748   201  -9.5  97    -9.9  0     0     994.7    NA       0.0000   9999     0     0     0    
2019/08/16  11:34:02  BASE  3.21636  206  4.1748   201  -9.5  96    -9.9  0     0     994.7    NA       0.0000   9999     0     0     0    
2019/08/16  11:35:02  BASE  3.40452  205  4.05132  201  -9.5  96    -10.0 0     0     994.6    NA       0.0000   9999     1640  0     0    
2019/08/16  11:36:02  BASE  3.59268  207  4.05132  208  -9.5  96    -10.0 0     0     994.6    NA       0.0000   9999     0     0     0    
2019/08/16  11:37:02  BASE  3.58092  206  4.05132  208  -9.5  96    -9.9  0     0     994.6    NA       0.0000   9999     1610  0     0    
2019/08/16  11:38:02  BASE  3.3222   204  4.05132  208  -9.4  97    -9.9  0     0     994.5    NA       0.0000   9999     1310  0     0    
2019/08/16  11:39:02  BASE  2.87532  208  4.05132  208  -9.4  97    -9.8  0     0     994.6    NA       0.0000   9999     1310  0     0    
2019/08/16  11:40:02  BASE  2.8812   207  4.05132  208  -9.3  97    -9.7  0     0     994.6    NA       0.0000   9999     0     0     0    
2019/08/16  11:41:02  BASE  3.01644  200  4.05132  208  -9.3  97    -9.7  0     0     994.5    NA       0.0000   9999     0     0     0    
2019/08/16  11:42:02  BASE  2.62248  205  4.05132  208  -9.3  97    -9.8  1     0     994.6    NA       0.0000   9999     0     0     0    
2019/08/16  11:43:02  BASE  2.44608  210  4.05132  208  -9.4  96    -9.8  1     0     994.6    NA       0.0000   9999     1440  0     0    
2019/08/16  11:44:02  BASE  2.48136  200  4.05132  208  -9.4  96    -9.9  1     0     994.5    NA       0.0000   9999     1410  0     0    
2019/08/16  11:45:02  BASE  2.3814   194  4.05132  208  -9.5  96    -10.0 1     0     994.6    NA       0.0000   9999     1380  0     0    
2019/08/16  11:46:02  BASE  2.205    194  3.90432  203  -9.5  96    -9.9  1     0     994.6    NA       0.0000   9999     1380  0     0    
2019/08/16  11:47:03  BASE  1.97568  190  3.53976  202  -9.5  97    -9.9  1     0     994.6    NA       0.0000   9999     1310  0     0    
2019/08/16  11:48:02  BASE  1.7052   191  3.53976  202  -9.5  97    -9.9  1     0     994.6    NA       0.0000   9999     1350  0     0    
2019/08/16  11:49:02  BASE  1.54644  199  3.53976  202  -9.4  97    -9.8  1     0     994.6    NA       0.0000   9999     1410  0     0    
2019/08/16  11:50:02  BASE  1.53468  209  3.1752   201  -9.4  97    -9.8  1     0     994.6    NA       0.0000   9999     1380  0     0    
2019/08/16  11:51:02  BASE  1.7052   221  2.72244  217  -9.4  97    -9.8  1     0     994.6    NA       0.0000   9999     1350  0     0    
2019/08/16  11:52:02  BASE  1.80516  228  2.63424  190  -9.4  97    -9.8  1     0     994.6    NA       0.0000   9999     1310  0     0    
2019/08/16  11:53:02  BASE  1.79928  229  2.63424  190  -9.4  97    -9.8  1     0     994.6    NA       0.0000   9999     1350  0     0    
2019/08/16  11:54:02  BASE  1.71696  228  2.48136  192  -9.4  97    -9.9  2     0     994.6    NA       0.0000   9999     1350  0     0    
2019/08/16  11:55:02  BASE  1.617    225  2.48136  192  -9.4  96    -9.9  2     0     994.6    NA       0.0000   9999     1480  0     0    
2019/08/16  11:56:02  BASE  1.49352  226  2.0874   227  -9.4  96    -9.9  2     0     994.7    NA       0.0000   9999     1440  0     0    
2019/08/16  11:57:02  BASE  1.37592  228  2.0874   227  -9.4  96    -9.9  2     0     994.7    NA       0.0000   9999     1510  0     0    
2019/08/16  11:58:02  BASE  1.27596  223  2.0874   227  -9.4  96    -9.9  2     0     994.7    NA       0.0000   9999     1440  0     0    
2019/08/16  11:59:02  BASE  1.10544  221  2.0874   227  -9.4  96    -9.8  2     0     994.7    NA       0.0000   9999     1510  0     0    
2019/08/16  12:00:02  BASE  1.01724  216  2.0874   227  -9.3  96    -9.8  2     0     994.7    NA       0.0000   9999     1510  0     0    
2019/08/16  12:01:02  BASE  1.09368  208  1.96392  237  -9.3  96    -9.9  3     0     994.7    NA       0.0000   9999     1510  0     0    
2019/08/16  12:02:02  BASE  1.02312  219  1.93452  226  -9.3  96    -9.9  3     0     994.7    NA       0.0000   9999     1480  0     0    
2019/08/16  12:03:02  BASE  1.07604  229  1.69344  222  -9.4  96    -9.9  3     0     994.7    NA       0.0000   9999     1510  0     0    
2019/08/16  12:04:04  BASE  1.45824  232  1.72284  239  -9.4  95    -10.0 3     0     994.7    NA       0.0000   9999     1480  0     0    
2019/08/16  12:05:02  BASE  1.60524  235  1.87572  231  -9.4  95    -10.0 3     0     994.7    NA       0.0000   9999     1410  0     0    
2019/08/16  12:06:02  BASE  1.69344  230  2.38728  228  -9.4  95    -10.0 3     0     994.7    NA       0.0000   9999     1410  0     0    
2019/08/16  12:07:02  BASE  1.85808  233  2.42256  236  -9.4  95    -10.0 3     0     994.7    NA       0.0000   9999     1440  0     0    
2019/08/16  12:08:02  BASE  1.9992   238  2.42256  236  -9.4  95    -10.1 3     0     994.7    NA       0.0000   9999     1440  0     0    
2019/08/16  12:09:01  BASE  2.1168   238  2.42256  236  -9.5  95    -10.1 3     0     994.7    NA       0.0000   9999     1540  0     0    
2019/08/16  12:10:02  BASE  1.98156  236  2.42256  236  -9.5  95    -10.2 4     0     994.7    NA       0.0000   9999     0     0     0    
2019/08/16  12:11:02  BASE  1.5876   235  2.42256  236  -9.6  95    -10.2 4     0     994.7    NA       0.0000   9999     1540  0     0    
2019/08/16  12:12:02  BASE  1.2348   238  2.42256  236  -9.6  95    -10.3 4     0     994.7    NA       0.0000   9999     1570  0     0    
2019/08/16  12:13:02  BASE  0.95844  241  2.42256  236  -9.6  95    -10.3 5     0     994.7    NA       0.0000   9999     1540  0     0    
2019/08/16  12:14:02  BASE  0.81732  241  2.42256  236  -9.6  95    -10.3 5     0     994.7    NA       0.0000   9999     1540  0     0    
2019/08/16  12:15:01  BASE  0.7056   235  2.42256  236  -9.5  95    -10.2 5     0     994.7    NA       0.0000   9999     1540  0     0    
2019/08/16  12:16:02  BASE  0.3528   242  2.42256  236  -9.5  95    -10.2 6     0     994.7    NA       0.0000   9999     1570  0     0    
2019/08/16  12:17:02  BASE  0.15876  248  2.29908  238  -9.6  95    -10.3 6     0     994.7    NA       0.0000   9999     1540  0     0    
2019/08/16  12:18:02  BASE  0.39984  275  2.29908  238  -9.7  94    -10.4 6     0     994.7    NA       0.0000   9999     1540  0     0    
2019/08/16  12:19:02  BASE  0.294    311  2.0874   236  -9.7  94    -10.5 6     0     994.7    NA       0.0000   9999     0     0     0    
2019/08/16  12:20:02  BASE  0.3234   325  1.54056  237  -9.8  94    -10.6 7     0     994.7    NA       0.0000   9999     0     0     0    
2019/08/16  12:21:02  BASE  0.66444  356  1.21128  241  -9.8  94    -10.6 7     0     994.7    NA       0.0000   9999     0     0     0    
2019/08/16  12:22:02  BASE  0.37044  14   1.18188  3    -9.8  95    -10.5 7     0     994.7    NA       0.0000   9999     0     0     0    
2019/08/16  12:23:02  BASE  0.33516  18   1.18188  3    -9.8  95    -10.5 7     0     994.7    NA       0.0000   9999     0     0     0    
2019/08/16  12:24:02  BASE  0.74088  11   1.18188  3    -9.8  95    -10.4 7     0     994.7    NA       0.0000   9999     0     0     0    
2019/08/16  12:25:02  BASE  0.77616  342  1.18188  3    -9.8  95    -10.4 8     0     994.7    NA       0.0000   9999     0     0     0    
2019/08/16  12:26:02  BASE  0.47628  327  1.18188  3    -9.8  95    -10.4 8     0     994.7    NA       0.0000   9999     0     0     0    
2019/08/16  12:27:02  BASE  0.3234   327  1.18188  3    -9.8  95    -10.4 8     0     994.7    NA       0.0000   9999     0     0     0    
2019/08/16  12:28:02  BASE  0.29988  301  1.18188  3    -9.8  96    -10.3 8     0     994.7    NA       0.0000   9999     0     0     0    
2019/08/16  12:29:04  BASE  0.18228  272  1.18188  3    -9.7  96    -10.3 8     0     994.8    NA       0.0000   9999     0     0     0    
2019/08/16  12:30:02  BASE  0.12348  241  1.029    345  -9.7  96    -10.2 9     0     994.8    NA       0.0000   9999     0     0     0    
2019/08/16  12:31:02  BASE  0.05292  214  1.029    345  -9.6  96    -10.1 9     0     994.7    NA       0.0000   9999     0     0     0    
2019/08/16  12:32:02  BASE  0.08232  221  1.029    345  -9.6  97    -10.0 9     0     994.7    NA       0.0000   9999     0     0     0    
2019/08/16  12:33:02  BASE  0.47628  29   1.029    345  -9.6  97    -10.0 9     0     994.7    NA       0.0000   9999     0     0     0    
2019/08/16  12:34:02  BASE  1.0584   31   1.42296  29   -9.6  97    -10.0 10    0     994.7    NA       0.0000   9999     0     0     0    
2019/08/16  12:35:03  BASE  1.3818   27   1.63464  24   -9.7  96    -10.1 10    0     994.7    NA       0.0000   9999     0     0     0    
2019/08/16  12:36:02  BASE  1.45824  24   1.63464  24   -9.8  96    -10.3 10    0     994.7    NA       0.0000   9999     0     0     0    
2019/08/16  12:37:03  BASE  1.37592  21   1.63464  24   -9.9  96    -10.4 11    0     994.8    NA       0.0000   9999     0     0     0    
2019/08/16  12:38:01  BASE  1.19952  22   1.63464  24   -10.0 96    -10.4 11    0     994.8    NA       0.0000   9999     0     0     0    
2019/08/16  12:39:02  BASE  1.18188  23   1.63464  24   -10.1 97    -10.5 11    0     994.9    NA       0.0000   9999     0     0     0    
2019/08/16  12:40:02  BASE  1.16424  30   1.63464  24   -10.1 97    -10.5 11    0     994.9    NA       0.0000   9999     0     0     0    
2019/08/16  12:41:02  BASE  1.10544  39   1.63464  24   -10.1 97    -10.4 12    0     995.1    NA       0.0000   9999     0     0     0    
2019/08/16  12:42:02  BASE  0.99372  43   1.63464  24   -10.0 98    -10.3 12    0     995.1    NA       0.0000   9999     0     0     0    
2019/08/16  12:43:02  BASE  0.86436  44   1.63464  24   -10.0 98    -10.2 12    0     995.2    NA       0.0000   9999     0     0     0    
2019/08/16  12:44:02  BASE  0.92316  46   1.63464  24   -9.9  98    -10.1 12    0     995.2    NA       0.0000   9999     0     0     0    
2019/08/16  12:45:02  BASE  0.9702   34   1.60524  20   -9.8  99    -10.0 13    0     995.2    NA       0.0000   9999     0     0     0    
2019/08/16  12:46:02  BASE  0.86436  17   1.48176  25   -9.8  99    -9.9  13    0     995.2    NA       0.0000   9999     0     0     0    
2019/08/16  12:47:02  BASE  0.95844  8    1.51116  6    -9.7  99    -9.9  13    0     995.1    NA       0.0000   9999     0     0     0    
2019/08/16  12:48:02  BASE  0.6762   349  1.51116  6    -9.7  99    -9.8  14    0     995.2    NA       0.0000   9999     0     0     0    
2019/08/16  12:49:02  BASE  0.34104  358  1.51116  6    -9.7  99    -9.8  14    0     995.2    NA       0.0000   9999     0     0     0    
2019/08/16  12:50:02  BASE  0.7056   357  1.51116  6    -9.6  99    -9.8  14    0     995.2    NA       0.0000   9999     0     0     0    
2019/08/16  12:51:02  BASE  0.95256  360  1.51116  6    -9.6  99    -9.8  15    0     995.2    NA       0.0000   9999     0     0     0    
2019/08/16  12:52:02  BASE  1.22304  26   1.63464  32   -9.6  99    -9.8  16    0     995.2    NA       0.0000   9999     0     0     0    
2019/08/16  12:53:02  BASE  1.42884  27   1.63464  32   -9.7  98    -9.9  16    0     995.2    NA       0.0000   9999     0     0     0    
2019/08/16  12:54:03  BASE  1.28184  27   1.63464  32   -9.7  98    -10.0 17    0     995.2    NA       0.0000   9999     0     0     0    
2019/08/16  12:55:02  BASE  1.30536  33   1.63464  32   -9.9  98    -10.1 18    0     995.2    NA       0.0000   9999     0     0     0    
2019/08/16  12:56:02  BASE  1.5582   42   1.90512  54   -10.0 98    -10.3 18    0     995.3    NA       0.0000   9999     0     0     0    
2019/08/16  12:57:02  BASE  1.90512  41   2.24028  38   -10.1 98    -10.4 18    0     995.3    NA       0.0000   9999     0     0     0    
2019/08/16  12:58:03  BASE  2.02272  39   2.24028  38   -10.3 98    -10.5 19    0     995.3    NA       0.0000   9999     0     0     0    
2019/08/16  12:59:02  BASE  1.75812  43   2.24028  38   -10.3 98    -10.6 19    0     995.3    NA       0.0000   9999     0     0     0    
2019/08/16  13:00:02  BASE  1.45236  43   2.24028  38   -10.4 98    -10.6 19    0     995.3    NA       0.0000   9999     0     0     0    
2019/08/16  13:01:02  BASE  1.29948  39   2.24028  38   -10.3 98    -10.5 19    0     995.3    NA       0.0000   9999     0     0     0    
2019/08/16  13:02:02  BASE  0.7644   30   2.24028  38   -10.3 99    -10.5 19    0     995.3    NA       0.0000   9999     0     0     0    
2019/08/16  13:03:01  BASE  0.77616  32   2.24028  38   -10.3 99    -10.4 19    0     995.3    NA       0.0000   9999     0     0     0    
2019/08/16  13:04:04  BASE  1.41708  48   2.24028  38   -10.2 99    -10.3 20    0     995.3    NA       0.0000   9999     0     0     0    
2019/08/16  13:05:02  BASE  1.1466   53   2.24028  38   -10.1 99    -10.3 20    0     995.3    NA       0.0000   9999     0     0     0    
2019/08/16  13:06:02  BASE  0.77028  46   2.24028  38   -10.1 99    -10.2 21    0     995.3    NA       0.0000   9999     0     0     0    
2019/08/16  13:07:02  BASE  0.5586   52   2.1462   46   -10.0 99    -10.2 22    0     995.3    NA       0.0000   9999     0     0     0    
2019/08/16  13:08:02  BASE  0.39984  68   1.78752  50   -10.0 99    -10.1 22    0     995.4    NA       0.0000   9999     0     0     0    
2019/08/16  13:09:02  BASE  0.24108  178  1.75224  48   -9.9  99    -10.0 23    0     995.4    NA       0.0000   9999     0     0     0    
2019/08/16  13:10:02  BASE  0.0294   179  1.75224  48   -9.8  99    -9.9  23    0     995.4    NA       0.0000   9999     0     0     0    
2019/08/16  13:11:02  BASE  0.0294   179  1.75224  48   -9.7  99    -9.8  23    0     995.4    NA       0.0000   9999     0     0     0    
2019/08/16  13:12:02  BASE  0.39984  214  1.75224  48   -9.7  99    -9.8  24    0     995.4    NA       0.0000   9999     0     0     0    
2019/08/16  13:13:02  BASE  0.79968  211  1.75224  48   -9.7  99    -9.8  24    0     995.4    NA       0.0000   9999     0     0     0    
2019/08/16  13:14:02  BASE  0.39396  231  1.39356  49   -9.7  99    -9.8  24    0     995.4    NA       0.0000   9999     0     0     0    
2019/08/16  13:15:02  BASE  0        275  1.39356  49   -9.7  99    -9.8  25    0     995.4    NA       0.0000   9999     0     0     0    
2019/08/16  13:16:02  BASE  0        263  1.39356  49   -9.7  99    -9.8  25    0     995.4    NA       0.0000   9999     0     0     0    
2019/08/16  13:17:02  BASE  0        205  1.39356  49   -9.7  99    -9.8  25    0     995.4    NA       0.0000   9999     0     0     0    
2019/08/16  13:18:02  BASE  0.22344  187  1.35828  233  -9.6  99    -9.8  26    0     995.5    NA       0.0000   9999     0     0     0    
2019/08/16  13:19:02  BASE  0.81144  185  1.90512  191  -9.6  98    -9.8  27    0     995.5    NA       0.0000   9999     0     0     0    
2019/08/16  13:20:02  BASE  1.34652  198  2.0286   217  -9.6  98    -9.8  28    0     995.5    NA       0.0000   9999     0     0     0    
2019/08/16  13:21:02  BASE  0.7938   215  2.0286   217  -9.6  98    -9.8  28    0     995.5    NA       0.0000   9999     0     0     0    
2019/08/16  13:22:02  BASE  0.0294   225  2.0286   217  -9.5  98    -9.8  28    0     995.5    NA       0.0000   9999     0     0     0    
2019/08/16  13:23:02  BASE  0        231  2.0286   217  -9.5  98    -9.7  28    0     995.6    NA       0.0000   9999     0     0     0    
2019/08/16  13:24:02  BASE  0        242  2.0286   217  -9.5  98    -9.7  29    0     995.6    NA       0.0000   9999     0     0     0    
2019/08/16  13:25:02  BASE  0.49392  6    2.0286   217  -9.5  98    -9.8  29    0     995.5    NA       0.0000   9999     0     0     0    
2019/08/16  13:26:02  BASE  1.176    52   2.0286   217  -9.7  97    -10.0 29    0     995.5    NA       0.0000   9999     0     0     0    
2019/08/16  13:27:02  BASE  1.08192  65   2.0286   217  -9.8  97    -10.1 28    0     995.5    NA       0.0000   9999     0     0     0    
2019/08/16  13:28:02  BASE  0.69972  71   2.0286   217  -9.8  97    -10.3 27    0     995.6    NA       0.0000   9999     0     0     0    
2019/08/16  13:29:02  BASE  0.65268  72   2.0286   217  -9.9  97    -10.3 26    0     995.7    NA       0.0000   9999     0     0     0    
2019/08/16  13:30:02  BASE  1.22304  65   1.93452  59   -9.9  97    -10.4 26    0     995.6    NA       0.0000   9999     0     0     0    
2019/08/16  13:31:02  BASE  1.66404  59   1.93452  59   -9.9  97    -10.3 26    0     995.6    NA       0.0000   9999     0     0     0    
2019/08/16  13:32:02  BASE  1.12308  70   1.93452  59   -9.9  97    -10.3 26    0     995.7    NA       0.0000   9999     0     0     0    
2019/08/16  13:33:02  BASE  0.74676  77   1.93452  59   -9.9  97    -10.3 27    0     995.7    NA       0.0000   9999     0     0     0    
2019/08/16  13:34:02  BASE  0.441    69   1.93452  59   -9.9  97    -10.3 28    0     995.7    NA       0.0000   9999     0     0     0    
2019/08/16  13:35:02  BASE  0.02352  45   1.93452  59   -9.9  97    -10.2 29    0     995.7    NA       0.0000   9999     0     0     0    
2019/08/16  13:36:02  BASE  0        14   1.93452  59   -9.8  97    -10.1 30    0     995.6    NA       0.0000   9999     0     0     0    
2019/08/16  13:37:03  BASE  0.2646   15   1.93452  59   -9.7  97    -10.1 30    0     995.5    NA       0.0000   9999     0     0     0    
2019/08/16  13:38:02  BASE  0.71148  23   1.93452  59   -9.7  97    -10.1 30    0     995.5    NA       0.0000   9999     0     0     0    
2019/08/16  13:39:02  BASE  0.98784  21   1.93452  59   -9.7  97    -10.1 31    0     995.5    NA       0.0000   9999     0     0     0    
2019/08/16  13:40:02  BASE  1.24656  25   1.84632  54   -9.7  97    -10.1 31    0     995.5    NA       0.0000   9999     0     0     0    
2019/08/16  13:41:02  BASE  1.39356  30   1.75224  78   -9.8  97    -10.2 32    0     995.6    NA       0.0000   9999     0     0     0    
2019/08/16  13:42:03  BASE  1.39944  34   1.51116  27   -9.9  97    -10.3 33    0     995.7    NA       0.0000   9999     1610  0     0    
2019/08/16  13:43:02  BASE  1.4994   39   1.69344  39   -10.0 97    -10.4 34    0     995.7    NA       0.0000   9999     1670  0     0    
2019/08/16  13:44:02  BASE  1.47588  39   1.69344  39   -10.1 97    -10.5 35    0     995.7    NA       0.0000   9999     1440  0     0    
2019/08/16  13:45:02  BASE  1.33476  39   1.69344  39   -10.2 97    -10.6 36    0     995.8    NA       0.0000   9999     1440  0     0    
2019/08/16  13:46:02  BASE  1.33476  40   1.69344  39   -10.3 97    -10.6 37    0     995.8    NA       0.0000   9999     1480  0     0    
2019/08/16  13:47:02  BASE  1.28772  36   1.69344  39   -10.3 97    -10.7 38    0     995.8    NA       0.0000   9999     1510  0     0    
2019/08/16  13:48:02  BASE  0.98196  31   1.69344  39   -10.3 98    -10.6 40    0     995.8    NA       0.0000   9999     1410  0     0    
2019/08/16  13:49:02  BASE  0.54684  33   1.69344  39   -10.3 98    -10.6 44    0     995.8    NA       0.0000   9999     1570  0     0    
2019/08/16  13:50:02  BASE  0.18816  29   1.69344  39   -10.3 98    -10.5 48    0     995.8    NA       0.0000   9999     1410  0     0    
2019/08/16  13:51:02  BASE  0.08232  30   1.69344  39   -10.2 98    -10.5 55    0     995.8    NA       0.0000   9999     1310  0     0    
2019/08/16  13:52:02  BASE  0.40572  23   1.69344  39   -10.2 98    -10.4 61    0     995.7    NA       0.0000   9999     1350  0     0    
2019/08/16  13:53:02  BASE  0.90552  12   1.57584  39   -10.1 99    -10.3 68    0     995.7    NA       0.0000   9999     1280  0     0    
2019/08/16  13:54:02  BASE  1.05252  21   1.54056  35   -10.0 99    -10.2 76    0     995.8    NA       0.0000   9999     1210  0     0    
2019/08/16  13:55:02  BASE  1.07016  25   1.54056  35   -10.0 99    -10.1 82    0     995.9    NA       0.0000   9999     1280  0     0    
2019/08/16  13:56:02  BASE  1.19952  34   1.35828  24   -10.0 99    -10.1 87    0     995.9    NA       0.0000   9999     1310  0     0    
2019/08/16  13:57:02  BASE  1.24656  45   1.42296  49   -10.1 99    -10.2 92    0     996.0    NA       0.0000   9999     1310  0     0    
2019/08/16  13:58:02  BASE  1.56996  51   2.1756   58   -10.2 99    -10.4 93    0     996.0    NA       0.0000   9999     1350  0     0    
2019/08/16  13:59:02  BASE  1.96392  55   2.24028  56   -10.3 98    -10.5 95    0     996.0    NA       0.0000   9999     1350  0     0    
2019/08/16  14:00:02  BASE  2.21088  59   2.56956  59   -10.4 98    -10.6 97    0     996.0    NA       0.0000   9999     1280  0     0    
2019/08/16  14:01:03  BASE  2.26968  60   2.56956  59   -10.4 98    -10.6 94    0     996.0    NA       0.0000   9999     1210  0     0    
2019/08/16  14:02:03  BASE  1.911    60   2.56956  59   -10.4 99    -10.6 90    0     996.0    NA       0.0000   9999     1250  0     0    
2019/08/16  14:03:02  BASE  1.3524   60   2.56956  59   -10.4 99    -10.5 84    0     996.0    NA       0.0000   9999     1210  0     0    
2019/08/16  14:04:03  BASE  1.0584   62   2.56956  59   -10.3 99    -10.4 82    0     996.0    NA       0.0000   9999     1180  0     0    
2019/08/16  14:05:03  BASE  0.96432  59   2.56956  59   -10.2 99    -10.3 98    0     996.0    NA       0.0000   9999     1150  0     0    
2019/08/16  14:06:02  BASE  0.68208  57   2.56956  59   -10.1 99    -10.2 93    0     996.1    NA       0.0000   9999     1210  0     0    
2019/08/16  14:07:02  BASE  0.5586   66   2.56956  59   -10.0 99    -10.1 68    0     996.2    NA       0.0000   9999     1210  0     0    
2019/08/16  14:08:02  BASE  0.91728  79   2.56956  59   -10.0 99    -10.1 59    0     996.3    NA       0.0000   9999     1310  0     0    
2019/08/16  14:09:02  BASE  0.92904  90   2.56956  59   -10.0 99    -10.1 52    0     996.4    NA       0.0000   9999     1310  0     0    
2019/08/16  14:10:02  BASE  0.68208  87   2.35788  64   -10.0 99    -10.1 47    0     996.3    NA       0.0000   9999     1250  0     0    
2019/08/16  14:11:02  BASE  0.86436  75   1.84632  52   -10.0 99    -10.1 47    0     996.3    NA       0.0000   9999     1180  0     0    
2019/08/16  14:12:02  BASE  1.24656  72   1.90512  79   -10.0 99    -10.1 45    0     996.3    NA       0.0000   9999     1280  0     0    
2019/08/16  14:13:02  BASE  1.69932  86   2.54016  87   -9.9  99    -10.1 46    0     996.3    NA       0.0000   9999     1250  0     0    
2019/08/16  14:14:02  BASE  1.62876  108  2.54016  87   -9.9  99    -10.0 49    0     996.2    NA       0.0000   9999     1150  0     0    
2019/08/16  14:15:02  BASE  1.2348   103  2.54016  87   -9.8  99    -9.9  50    0     996.2    NA       0.0000   9999     1210  0     0    
2019/08/16  14:16:02  BASE  1.31124  81   2.54016  87   -9.7  99    -9.8  51    0     996.1    NA       0.0000   9999     1250  0     0    
2019/08/16  14:17:02  BASE  1.31124  69   2.54016  87   -9.7  99    -9.8  53    0     996.1    NA       0.0000   9999     1250  0     0    
2019/08/16  14:18:02  BASE  1.16424  61   2.54016  87   -9.6  99    -9.7  53    0     996.2    NA       0.0000   9999     1250  0     0    
2019/08/16  14:19:02  BASE  1.40532  61   2.54016  87   -9.6  99    -9.7  57    0     996.3    NA       0.0000   9999     1250  0     0    
2019/08/16  14:20:02  BASE  1.6464   69   2.54016  87   -9.7  99    -9.8  58    0     996.3    NA       0.0000   9999     1250  0     0    
2019/08/16  14:21:02  BASE  1.81104  74   2.54016  87   -9.7  99    -9.8  58    0     996.4    NA       0.0000   9999     1180  0     0    
2019/08/16  14:22:03  BASE  1.9698   73   2.54016  87   -9.6  99    -9.8  58    0     996.4    NA       0.0000   9999     1150  0     0    
2019/08/16  14:23:03  BASE  1.96392  69   2.29908  69   -9.6  99    -9.8  58    0     996.4    NA       0.0000   9999     1250  0     0    
2019/08/16  14:24:03  BASE  1.8522   63   2.29908  69   -9.6  98    -9.8  58    0     996.4    NA       0.0000   9999     1250  0     0    
2019/08/16  14:25:03  BASE  1.62288  61   2.29908  69   -9.6  98    -9.8  59    0     996.4    NA       0.0000   9999     1250  0     0    
2019/08/16  14:26:03  BASE  1.38768  69   2.29908  69   -9.6  98    -9.8  58    0     996.4    NA       0.0000   9999     1250  0     0    
2019/08/16  14:27:03  BASE  1.2642   69   2.29908  69   -9.6  98    -9.9  60    0     996.5    NA       0.0000   9999     1250  0     0    
2019/08/16  14:28:03  BASE  1.27596  63   2.29908  69   -9.6  98    -9.8  63    0     996.5    NA       0.0000   9999     1250  0     0    
2019/08/16  14:29:03  BASE  1.21716  60   2.29908  69   -9.5  98    -9.8  65    0     996.6    NA       0.0000   9999     1280  0     0    
2019/08/16  14:30:02  BASE  1.10544  54   2.29908  69   -9.5  98    -9.7  69    0     996.5    NA       0.0000   9999     1250  0     0    
2019/08/16  14:31:03  BASE  1.1172   46   2.29908  69   -9.5  98    -9.7  75    0     996.5    NA       0.0000   9999     1210  0     0    
2019/08/16  14:32:03  BASE  1.21716  44   2.29908  69   -9.5  98    -9.7  78    0     996.5    NA       0.0000   9999     1250  0     0    
2019/08/16  14:33:03  BASE  1.29948  43   1.93452  60   -9.5  98    -9.8  81    0     996.5    NA       0.0000   9999     1250  0     0    
2019/08/16  14:34:02  BASE  1.2348   41   1.69344  57   -9.5  98    -9.8  82    0     996.5    NA       0.0000   9999     1250  0     0    
2019/08/16  14:35:02  BASE  1.13484  37   1.48176  70   -9.6  98    -9.8  81    0     996.5    NA       0.0000   9999     1250  0     0    
2019/08/16  14:36:01  BASE  1.0878   33   1.42296  42   -9.5  98    -9.8  77    0     996.5    NA       0.0000   9999     1180  0     0    
2019/08/16  14:37:02  BASE  1.07016  32   1.42296  42   -9.5  98    -9.7  72    0     996.5    NA       0.0000   9999     1210  0     0    
2019/08/16  14:38:02  BASE  0.94668  34   1.42296  42   -9.5  98    -9.7  72    0     996.5    NA       0.0000   9999     1250  0     0    
2019/08/16  14:39:02  BASE  0.84084  38   1.42296  42   -9.4  98    -9.7  65    0     996.6    NA       0.0000   9999     1250  0     0    
2019/08/16  14:40:02  BASE  0.92316  42   1.42296  42   -9.4  98    -9.7  65    0     996.6    NA       0.0000   9999     1250  0     0    
2019/08/16  14:41:02  BASE  0.99372  45   1.42296  42   -9.4  98    -9.7  64    0     996.6    NA       0.0000   9999     1210  0     0    
2019/08/16  14:42:02  BASE  1.10544  45   1.42296  42   -9.4  98    -9.7  62    0     996.7    NA       0.0000   9999     1250  0     0    
2019/08/16  14:43:02  BASE  1.21128  43   1.32888  41   -9.4  98    -9.7  66    0     996.7    NA       0.0000   9999     1250  0     0    
2019/08/16  14:44:02  BASE  1.08192  44   1.32888  41   -9.4  98    -9.7  69    0     996.8    NA       0.0000   9999     1210  0     0    
2019/08/16  14:45:02  BASE  0.96432  47   1.32888  41   -9.4  98    -9.7  74    0     996.8    NA       0.0000   9999     1210  0     0    
2019/08/16  14:46:02  BASE  0.89964  46   1.32888  41   -9.4  98    -9.7  79    0     996.9    NA       0.0000   9999     1280  0     0    
2019/08/16  14:47:02  BASE  0.81732  41   1.32888  41   -9.4  98    -9.7  75    0     997.0    NA       0.0000   9999     1250  0     0    
2019/08/16  14:48:02  BASE  0.86436  32   1.32888  41   -9.4  98    -9.7  79    0     997.0    NA       0.0000   9999     1250  0     0    
2019/08/16  14:49:02  BASE  0.87612  21   1.32888  41   -9.4  98    -9.6  79    0     997.0    NA       0.0000   9999     1210  0     0    
2019/08/16  14:50:02  BASE  1.05252  13   1.42296  15   -9.3  98    -9.6  81    0     996.9    NA       0.0000   9999     1180  0     0    
2019/08/16  14:51:02  BASE  1.22892  20   1.48176  36   -9.3  98    -9.6  86    0     996.9    NA       0.0000   9999     1210  0     0    
2019/08/16  14:52:02  BASE  1.28772  16   1.57584  6    -9.3  98    -9.5  79    0     996.9    NA       0.0000   9999     1210  0     0    
2019/08/16  14:53:01  BASE  1.33476  345  1.57584  6    -9.2  98    -9.5  83    0     996.8    NA       0.0000   9999     1150  0     0    
2019/08/16  14:54:02  BASE  0.81144  326  1.57584  6    -9.2  98    -9.5  80    0     996.9    NA       0.0000   9999     1250  0     0    
2019/08/16  14:55:02  BASE  0.57036  332  1.57584  6    -9.2  98    -9.5  80    0     996.9    NA       0.0000   9999     1210  0     0    
2019/08/16  14:56:02  BASE  0.54684  334  1.57584  6    -9.2  98    -9.5  85    0     996.9    NA       0.0000   9999     1120  0     0    
2019/08/16  14:57:02  BASE  0.2352   343  1.57584  6    -9.2  98    -9.4  90    0     997.0    NA       0.0000   9999     1180  0     0    
2019/08/16  14:58:02  BASE  0.48216  352  1.57584  6    -9.2  98    -9.4  87    0     997.0    NA       0.0000   9999     1150  0     0    
2019/08/16  14:59:02  BASE  0.78792  342  1.57584  6    -9.2  98    -9.4  86    0     997.0    NA       0.0000   9999     1150  0     0    
2019/08/16  15:00:02  BASE  0.59976  329  1.57584  6    -9.2  98    -9.4  83    0     997.0    NA       0.0000   9999     1050  0     0    
2019/08/16  15:01:02  BASE  0.25872  356  1.57584  6    -9.1  98    -9.4  79    0     997.0    NA       0.0000   9999     1080  0     0    
2019/08/16  15:02:02  BASE  0.05292  47   1.51116  347  -9.1  98    -9.4  81    0     997.0    NA       0.0000   9999     1120  0     0    
2019/08/16  15:03:01  BASE  0.0588   44   1.21128  337  -9.1  98    -9.4  82    0     997.0    NA       0.0000   9999     1250  0     0    
2019/08/16  15:04:03  BASE  0.24696  5    1.21128  337  -9.1  98    -9.4  89    0     997.0    NA       0.0000   9999     1180  0     0    
2019/08/16  15:05:02  BASE  0.74676  358  1.18188  13   -9.1  98    -9.4  96    0     997.0    NA       0.0000   9999     1180  0     0    
2019/08/16  15:06:02  BASE  1.04076  5    1.18188  13   -9.2  98    -9.4  113   0     997.0    NA       0.0000   9999     1180  0     0    
2019/08/16  15:07:02  BASE  0.93492  356  1.18188  13   -9.2  98    -9.4  126   0     997.0    NA       0.0000   9999     1120  0     0    
2019/08/16  15:08:02  BASE  1.0878   348  1.39356  344  -9.2  98    -9.4  126   0     996.9    NA       0.0000   9999     1150  23070 0    
2019/08/16  15:09:03  BASE  1.2936   340  1.54056  330  -9.2  98    -9.4  124   0     996.9    NA       0.0000   9999     1180  0     0    
2019/08/16  15:10:03  BASE  1.66992  324  2.32848  310  -9.1  98    -9.4  115   0     997.0    NA       0.0000   9999     1050  0     0    
2019/08/16  15:11:03  BASE  1.92276  316  2.32848  310  -9.1  98    -9.4  106   0     997.0    NA       0.0000   9999     1020  0     0    
2019/08/16  15:12:03  BASE  1.8816   322  2.32848  310  -9.1  98    -9.4  99    0     996.9    NA       0.0000   9999     1020  0     0    
2019/08/16  15:13:03  BASE  1.81104  327  2.32848  310  -9.2  98    -9.4  100   0     996.9    NA       0.0000   9999     1020  0     0    
2019/08/16  15:14:03  BASE  1.48764  335  2.32848  310  -9.2  98    -9.4  100   0     997.0    NA       0.0000   9999     920   0     0    
2019/08/16  15:15:03  BASE  1.39356  343  2.32848  310  -9.2  98    -9.4  96    0     997.0    NA       0.0000   9999     920   0     0    
2019/08/16  15:16:03  BASE  1.38768  358  2.32848  310  -9.2  99    -9.4  93    0     997.0    NA       0.0000   9999     980   0     0    
2019/08/16  15:17:03  BASE  1.31124  16   2.32848  310  -9.2  99    -9.3  91    0     997.1    NA       0.0000   9999     980   0     0    
2019/08/16  15:18:03  BASE  1.176    31   2.32848  310  -9.2  99    -9.3  91    0     997.1    NA       0.0000   9999     980   0     0    
2019/08/16  15:19:03  BASE  0.71148  47   2.32848  310  -9.2  99    -9.3  87    0     997.2    NA       0.0000   9999     980   0     0    
2019/08/16  15:20:03  BASE  0.47628  64   2.26968  325  -9.1  99    -9.3  84    0     997.2    NA       0.0000   9999     950   0     0    
2019/08/16  15:21:03  BASE  0.55272  79   2.26968  325  -9.1  99    -9.2  82    0     997.2    NA       0.0000   9999     920   0     0    
2019/08/16  15:22:03  BASE  0.65268  71   1.96392  316  -9.1  99    -9.2  81    0     997.2    NA       0.0000   9999     920   0     0    
2019/08/16  15:23:03  BASE  0.8232   70   1.63464  347  -9.1  99    -9.2  81    0     997.2    NA       0.0000   9999     950   0     0    
2019/08/16  15:24:03  BASE  1.08192  83   1.78752  86   -9.0  99    -9.2  85    0     997.2    NA       0.0000   9999     1020  0     0    
2019/08/16  15:25:03  BASE  1.31712  88   2.26968  81   -9.0  99    -9.1  85    0     997.2    NA       0.0000   9999     980   0     0    
2019/08/16  15:26:03  BASE  0.7644   97   2.26968  81   -9.0  99    -9.1  81    0     997.2    NA       0.0000   9999     950   0     0    
2019/08/16  15:27:03  BASE  0.81144  103  2.26968  81   -9.0  99    -9.1  75    0     997.2    NA       0.0000   9999     1020  0     0    
2019/08/16  15:28:03  BASE  1.29948  91   2.26968  81   -8.9  99    -9.1  69    0     997.2    NA       0.0000   9999     980   0     0    
2019/08/16  15:29:03  BASE  1.04076  66   2.26968  81   -8.9  99    -9.1  71    0     997.2    NA       0.0000   9999     980   0     0    
2019/08/16  15:30:03  BASE  0.9114   47   2.26968  81   -9.0  99    -9.1  72    0     997.2    NA       0.0000   9999     980   0     0    
2019/08/16  15:31:03  BASE  0.90552  28   2.26968  81   -9.0  99    -9.1  74    0     997.2    NA       0.0000   9999     1050  0     0    
2019/08/16  15:32:03  BASE  1.05252  24   2.26968  81   -9.0  99    -9.2  79    0     997.3    NA       0.0000   9999     1020  0     0    
2019/08/16  15:33:03  BASE  1.22304  44   2.26968  81   -9.1  99    -9.2  78    0     997.4    NA       0.0000   9999     1020  0     0    
2019/08/16  15:34:03  BASE  1.29948  58   2.26968  81   -9.1  99    -9.2  77    0     997.5    NA       0.0000   9999     1050  0     0    
2019/08/16  15:35:03  BASE  1.17012  55   1.78752  95   -9.1  99    -9.2  82    0     997.5    NA       0.0000   9999     1080  0     0    
2019/08/16  15:36:02  BASE  0.9702   53   1.78752  95   -9.1  100   -9.1  89    0     997.5    NA       0.0000   9999     1080  0     0    
2019/08/16  15:37:03  BASE  0.45276  43   1.51116  96   -9.1  100   -9.1  90    0     997.5    NA       0.0000   9999     1080  0     0    
2019/08/16  15:38:03  BASE  0.30576  128  1.48176  59   -9.1  100   -9.1  85    0     997.6    NA       0.0000   9999     1120  0     0    
2019/08/16  15:39:03  BASE  0.57036  163  1.48176  59   -9.0  100   -9.0  80    0     997.6    NA       0.0000   9999     1050  0     0    
2019/08/16  15:40:03  BASE  0.36456  187  1.48176  59   -9.0  100   -9.0  80    0     997.5    NA       0.0000   9999     1020  0     0    
2019/08/16  15:41:03  BASE  0.10584  237  1.48176  59   -9.0  100   -9.0  80    0     997.6    NA       0.0000   9999     950   0     0    
2019/08/16  15:42:03  BASE  0        229  1.48176  59   -9.0  100   -9.0  79    0     997.6    NA       0.0000   9999     920   0     0    
2019/08/16  15:43:03  BASE  0        167  1.48176  59   -8.9  100   -8.9  78    0     997.5    NA       0.0000   9999     980   0     0    
2019/08/16  15:44:02  BASE  0        70   1.18188  56   -8.9  100   -8.9  78    0     997.5    NA       0.0000   9999     920   0     0    
2019/08/16  15:45:03  BASE  0        87   1.0878   152  -8.9  100   -8.9  78    0     997.5    NA       0.0000   9999     950   0     0    
2019/08/16  15:46:03  BASE  0.25284  69   1.0878   152  -8.9  100   -8.9  78    0     997.5    NA       0.0000   9999     950   0     0    
2019/08/16  15:47:03  BASE  0.39396  10   1.0878   152  -8.9  100   -8.9  83    0     997.5    NA       0.0000   9999     950   0     0    
2019/08/16  15:48:02  BASE  0.19404  331  1.0878   152  -8.9  100   -8.9  81    0     997.5    NA       0.0000   9999     920   0     0    
2019/08/16  15:49:02  BASE  0.08232  330  1.029    12   -8.9  100   -8.9  79    0     997.6    NA       0.0000   9999     920   0     0    
2019/08/16  15:50:02  BASE  0.17052  354  1.029    12   -8.9  100   -8.9  82    0     997.6    NA       0.0000   9999     950   0     0    
2019/08/16  15:51:02  BASE  0.19404  358  1.029    12   -8.9  100   -8.9  85    0     997.6    NA       0.0000   9999     950   0     0    
2019/08/16  15:52:02  BASE  0.05292  19   1.029    12   -8.9  100   -8.9  96    0     997.6    NA       0.0000   9999     890   0     0    
2019/08/16  15:53:02  BASE  0.735    49   1.72284  65   -9.0  100   -9.0  110   0     997.5    NA       0.0000   9999     890   0     0    
2019/08/16  15:54:03  BASE  1.58172  65   1.90512  69   -9.0  100   -9.0  125   0     997.6    NA       0.0000   9999     950   0     0    
2019/08/16  15:55:03  BASE  1.38768  76   1.90512  69   -9.0  100   -9.0  139   0     997.7    NA       0.0000   9999     950   0     0    
2019/08/16  15:56:02  BASE  1.12308  92   1.90512  69   -9.0  100   -9.0  132   0     997.6    NA       0.0000   9999     950   0     0    
2019/08/16  15:57:03  BASE  1.0878   109  1.90512  69   -8.9  100   -8.9  125   0     997.6    NA       0.0000   9999     920   0     0    
2019/08/16  15:58:02  BASE  1.09368  105  1.90512  69   -8.9  100   -8.9  121   0     997.6    NA       0.0000   9999     920   0     0    
2019/08/16  15:59:03  BASE  1.07604  98   1.90512  69   -8.9  100   -8.9  119   0     997.6    NA       0.0000   9999     950   0     0    
2019/08/16  16:00:03  BASE  0.95844  109  1.90512  69   -8.9  100   -8.9  117   0     997.7    NA       0.0000   9999     980   0     0    
2019/08/16  16:01:03  BASE  1.02312  117  1.90512  69   -8.9  100   -8.9  111   0     997.7    NA       0.0000   9999     950   0     0    
2019/08/16  16:02:02  BASE  1.06428  111  1.90512  69   -8.9  100   -8.9  114   0     997.7    NA       0.0000   9999     980   0     0    
2019/08/16  16:03:02  BASE  1.19364  99   1.90512  69   -8.9  100   -8.9  118   0     997.8    NA       0.0000   9999     980   0     0    
2019/08/16  16:04:03  BASE  1.35828  89   1.69344  96   -8.9  100   -8.9  147   0     997.8    NA       0.0000   9999     920   0     0    
2019/08/16  16:05:03  BASE  1.1466   86   1.69344  96   -8.9  100   -8.9  186   0     997.8    NA       0.0000   9999     950   0     0    
2019/08/16  16:06:03  BASE  0.588    90   1.69344  96   -8.9  100   -8.9  273   0     997.8    NA       0.0000   9999     850   0     0    
2019/08/16  16:07:03  BASE  0.1176   89   1.69344  96   -8.9  100   -8.9  244   0     997.8    NA       0.0000   9999     820   0     0    
2019/08/16  16:08:03  BASE  0        29   1.69344  96   -8.8  100   -8.8  232   0     997.8    NA       0.0000   9999     920   0     0    
2019/08/16  16:09:02  BASE  0.05292  301  1.69344  96   -8.8  100   -8.8  159   0     997.8    NA       0.0000   9999     920   0     0    
2019/08/16  16:10:03  BASE  0.05292  262  1.69344  96   -8.8  100   -8.8  145   0     997.8    NA       0.0000   9999     890   0     0    
2019/08/16  16:11:02  BASE  0        208  1.69344  96   -8.8  100   -8.8  135   0     997.8    NA       0.0000   9999     980   0     0    
2019/08/16  16:12:02  BASE  0.16464  148  1.69344  96   -8.7  100   -8.7  149   0     997.8    NA       0.0000   9999     850   0     0    
2019/08/16  16:13:03  BASE  0.34104  155  1.69344  96   -8.7  100   -8.7  123   0     997.8    NA       0.0000   9999     850   0     0    
2019/08/16  16:14:03  BASE  0.59388  191  1.29948  186  -8.7  100   -8.7  114   0     997.9    NA       0.0000   9999     950   0     0    
2019/08/16  16:15:03  BASE  1.03488  197  1.48176  187  -8.7  100   -8.7  107   0     997.9    NA       0.0000   9999     890   0     0    
2019/08/16  16:16:03  BASE  1.21716  199  1.54056  191  -8.7  100   -8.7  110   0     997.9    NA       0.0000   9999     920   0     0    
2019/08/16  16:17:03  BASE  1.38768  185  1.96392  171  -8.8  100   -8.8  114   0     997.9    NA       0.0000   9999     920   0     0    
2019/08/16  16:18:02  BASE  1.2054   181  1.96392  171  -8.9  100   -8.9  112   0     997.9    NA       0.0000   9999     980   0     0    
2019/08/16  16:19:02  BASE  0.72912  188  1.96392  171  -8.9  100   -8.9  110   0     998.0    NA       0.0000   9999     850   0     0    
2019/08/16  16:20:03  BASE  0.37044  179  1.96392  171  -8.8  100   -8.8  104   0     998.0    NA       0.0000   9999     850   0     0    
2019/08/16  16:21:02  BASE  0.0588   131  1.96392  171  -8.9  100   -8.9  98    0     998.0    NA       0.0000   9999     980   0     0    
2019/08/16  16:22:03  BASE  0.16464  108  1.96392  171  -8.9  100   -8.9  97    0     998.0    NA       0.0000   9999     1020  0     0    
2019/08/16  16:23:03  BASE  0.16464  112  1.96392  171  -8.9  100   -8.9  98    0     998.0    NA       0.0000   9999     1080  0     0    
2019/08/16  16:24:02  BASE  0        116  1.96392  171  -8.9  100   -8.9  102   0     998.0    NA       0.0000   9999     1150  0     0    
2019/08/16  16:25:03  BASE  0.1176   109  1.96392  171  -9.0  100   -9.0  99    0     998.0    NA       0.0000   9999     1120  0     0    
2019/08/16  16:26:03  BASE  0.1176   104  1.96392  171  -9.0  100   -9.0  98    0     998.0    NA       0.0000   9999     1080  0     0    
2019/08/16  16:27:03  BASE  0        109  1.029    182  -8.9  100   -8.9  97    0     998.1    NA       0.0000   9999     1080  0     0    
2019/08/16  16:28:03  BASE  0        92   0.78792  190  -8.9  100   -8.9  97    0     998.2    NA       0.0000   9999     1180  0     0    
2019/08/16  16:29:02  BASE  0        80   0.75852  104  -8.9  100   -8.9  93    0     998.2    NA       0.0000   9999     1150  0     0    
2019/08/16  16:30:03  BASE  0        145  0.75852  104  -8.8  100   -8.8  92    0     998.3    NA       0.0000   9999     980   0     0    
2019/08/16  16:31:03  BASE  0.0882   187  0.75852  104  -8.8  100   -8.8  95    0     998.3    NA       0.0000   9999     980   0     0    
2019/08/16  16:32:03  BASE  0.24108  168  0.75852  144  -8.8  100   -8.8  90    0     998.3    NA       0.0000   9999     980   0     0    
2019/08/16  16:33:03  BASE  0.63504  153  1.27008  189  -8.8  100   -8.8  88    0     998.2    NA       0.0000   9999     920   0     0    
2019/08/16  16:34:03  BASE  0.94668  152  1.57584  124  -8.8  100   -8.8  91    0     998.3    NA       0.0000   9999     950   0     0    
2019/08/16  16:35:02  BASE  0.45864  169  1.57584  124  -8.9  100   -8.9  89    0     998.3    NA       0.0000   9999     920   0     0    
2019/08/16  16:36:03  BASE  0.16464  182  1.57584  124  -8.9  100   -8.9  93    0     998.3    NA       0.0000   9999     950   0     0    
2019/08/16  16:37:03  BASE  0.40572  202  1.57584  124  -8.9  100   -8.9  96    0     998.3    NA       0.0000   9999     980   0     0    
2019/08/16  16:38:03  BASE  0.62328  232  1.57584  124  -8.8  100   -8.8  96    0     998.3    NA       0.0000   9999     950   0     0    
2019/08/16  16:39:03  BASE  0.66444  248  1.57584  124  -8.8  100   -8.8  104   0     998.2    NA       0.0000   9999     950   0     0    
2019/08/16  16:40:02  BASE  0.66444  239  1.57584  124  -8.8  100   -8.8  106   0     998.3    NA       0.0000   9999     950   0     0    
2019/08/16  16:41:03  BASE  0.78204  214  1.57584  124  -8.7  100   -8.7  103   0     998.2    NA       0.0000   9999     920   0     0    
2019/08/16  16:42:03  BASE  0.61152  206  1.57584  124  -8.7  100   -8.7  106   0     998.3    NA       0.0000   9999     850   0     0    
2019/08/16  16:43:03  BASE  0.441    200  1.57584  124  -8.7  100   -8.7  106   0     998.3    NA       0.0000   9999     950   0     0    
2019/08/16  16:44:02  BASE  0.40572  206  1.21128  204  -8.6  100   -8.7  93    0     998.4    NA       0.0000   9999     950   0     0    
2019/08/16  16:45:03  BASE  0.1764   223  1.21128  204  -8.6  100   -8.6  89    0     998.4    NA       0.0000   9999     980   0     0    
2019/08/16  16:46:03  BASE  0        232  1.21128  204  -8.6  100   -8.6  98    0     998.4    NA       0.0000   9999     1150  0     0    
2019/08/16  16:47:03  BASE  0        220  1.21128  204  -8.6  100   -8.6  100   0     998.4    NA       0.0000   9999     1020  0     0    
2019/08/16  16:48:03  BASE  0        214  0.9702   207  -8.7  100   -8.7  100   0     998.4    NA       0.0000   9999     950   0     0    
2019/08/16  16:49:03  BASE  0.147    220  0.9702   207  -8.7  100   -8.7  105   0     998.4    NA       0.0000   9999     980   0     0    
2019/08/16  16:50:02  BASE  0.45276  225  1.18188  220  -8.7  100   -8.7  100   0     998.5    NA       0.0000   9999     980   0     0    
2019/08/16  16:51:03  BASE  0.35868  183  1.18188  220  -8.7  100   -8.7  94    0     998.5    NA       0.0000   9999     980   0     0    
2019/08/16  16:52:03  BASE  0.1176   132  1.18188  220  -8.8  100   -8.8  100   0     998.5    NA       0.0000   9999     1020  0     0    
2019/08/16  16:53:03  BASE  0.51156  141  1.27008  158  -8.8  100   -8.8  92    0     998.5    NA       0.0000   9999     920   0     0    
2019/08/16  16:54:03  BASE  0.45276  130  1.27008  158  -8.8  100   -8.8  82    0     998.5    NA       0.0000   9999     980   0     0    
2019/08/16  16:55:03  BASE  0        78   1.27008  158  -8.8  100   -8.8  94    0     998.5    NA       0.0000   9999     1050  0     0    
2019/08/16  16:56:03  BASE  0.19404  74   1.27008  158  -8.9  100   -8.9  109   0     998.5    NA       0.0000   9999     1020  0     0    
2019/08/16  16:57:03  BASE  0.29988  84   1.27008  158  -8.9  100   -8.9  105   0     998.5    NA       0.0000   9999     1020  0     0    
2019/08/16  16:58:03  BASE  0.13524  85   1.27008  158  -8.9  100   -8.9  96    0     998.5    NA       0.0000   9999     980   0     0    
2019/08/16  16:59:03  BASE  0.0294   70   1.27008  158  -8.9  100   -8.9  96    0     998.5    NA       0.0000   9999     980   0     0    
2019/08/16  17:00:03  BASE  0        42   1.27008  158  -8.9  100   -8.9  98    0     998.6    NA       0.0000   9999     980   0     0    
2019/08/16  17:01:03  BASE  0        27   1.27008  158  -8.8  100   -8.9  96    0     998.6    NA       0.0000   9999     890   0     0    
2019/08/16  17:02:04  BASE  0        53   1.27008  158  -8.8  100   -8.8  95    0     998.6    NA       0.0000   9999     890   0     0    
2019/08/16  17:03:03  BASE  0.07644  143  0.72324  75   -8.8  100   -8.8  93    0     998.6    NA       0.0000   9999     920   0     0    
2019/08/16  17:04:05  BASE  0.07644  173  0.72324  75   -8.8  100   -8.8  91    0     998.7    NA       0.0000   9999     920   0     0    
2019/08/16  17:05:03  BASE  0.27636  188  0.84672  205  -8.8  100   -8.8  95    0     998.6    NA       0.0000   9999     980   0     0    
2019/08/16  17:06:03  BASE  0.54096  215  1.21128  225  -8.8  100   -8.8  100   0     998.8    NA       0.0000   9999     980   0     0    
2019/08/16  17:07:03  BASE  0.39984  200  1.21128  225  -8.8  100   -8.8  104   0     998.8    NA       0.0000   9999     980   0     0    
2019/08/16  17:08:03  BASE  0.3822   173  1.21128  225  -8.8  100   -8.8  109   0     998.8    NA       0.0000   9999     980   0     0    
2019/08/16  17:09:03  BASE  0.7938   182  1.81692  207  -8.8  100   -8.8  103   0     998.8    NA       0.0000   9999     950   0     0    
2019/08/16  17:10:03  BASE  1.0584   200  1.81692  207  -8.7  100   -8.7  96    0     998.8    NA       0.0000   9999     920   0     0    
2019/08/16  17:11:03  BASE  0.7644   180  1.81692  207  -8.7  100   -8.7  97    0     998.8    NA       0.0000   9999     850   0     0    
2019/08/16  17:12:03  BASE  0.28812  134  1.81692  207  -8.7  100   -8.7  98    0     998.8    NA       0.0000   9999     790   0     0    
2019/08/16  17:13:03  BASE  0.05292  132  1.81692  207  -8.7  100   -8.7  99    0     998.8    NA       0.0000   9999     890   0     0    
2019/08/16  17:14:03  BASE  0.0294   168  1.81692  207  -8.7  100   -8.7  104   0     998.8    NA       0.0000   9999     950   0     0    
2019/08/16  17:15:02  BASE  0        210  1.81692  207  -8.7  100   -8.7  105   0     998.8    NA       0.0000   9999     820   0     0    
2019/08/16  17:16:03  BASE  0.05292  175  1.81692  207  -8.7  100   -8.7  100   0     998.8    NA       0.0000   9999     820   0     0    
2019/08/16  17:17:10  BASE  0.55272  99   1.81692  207  -8.7  100   -8.7  101   0     998.8    NA       0.0000   9999     820   0     0    
2019/08/16  17:18:03  BASE  1.0584   87   1.81692  207  -8.7  100   -8.7  94    0     998.8    NA       0.0000   9999     850   0     0    
2019/08/16  17:19:03  BASE  1.15836  86   1.66404  202  -8.7  100   -8.7  88    0     998.8    NA       0.0000   9999     820   0     0    
2019/08/16  17:20:03  BASE  1.01136  86   1.29948  86   -8.7  100   -8.7  90    0     998.8    NA       0.0000   9999     850   0     0    
2019/08/16  17:21:03  BASE  0.86436  87   1.29948  86   -8.7  100   -8.7  93    0     998.8    NA       0.0000   9999     890   0     0    
2019/08/16  17:22:03  BASE  0.58212  91   1.29948  86   -8.7  100   -8.7  91    0     998.9    NA       0.0000   9999     890   0     0    
2019/08/16  17:23:02  BASE  0.22932  93   1.29948  86   -8.7  100   -8.7  85    0     998.9    NA       0.0000   9999     890   0     0    
2019/08/16  17:24:03  BASE  0.05292  84   1.29948  86   -8.7  100   -8.7  87    0     998.9    NA       0.0000   9999     890   0     0    
2019/08/16  17:25:03  BASE  0        89   1.29948  86   -8.7  100   -8.7  89    0     998.9    NA       0.0000   9999     890   0     0    
2019/08/16  17:26:03  BASE  0.147    138  1.29948  86   -8.7  100   -8.7  87    0     999.0    NA       0.0000   9999     890   0     0    
2019/08/16  17:27:03  BASE  0.53508  192  1.29948  86   -8.7  100   -8.7  91    0     999.0    NA       0.0000   9999     890   0     0    
2019/08/16  17:28:03  BASE  1.1466   189  2.1462   216  -8.8  100   -8.8  91    0     999.1    NA       0.0000   9999     850   0     0    
2019/08/16  17:29:03  BASE  1.56408  179  2.1462   216  -8.8  100   -8.8  81    0     999.1    NA       0.0000   9999     890   0     0    
2019/08/16  17:30:03  BASE  1.75812  193  2.29908  204  -8.8  100   -8.8  79    0     999.1    NA       0.0000   9999     850   0     0    
2019/08/16  17:31:03  BASE  2.0874   201  2.63424  202  -8.8  100   -8.8  78    0     999.0    NA       0.0000   9999     820   0     0    
2019/08/16  17:32:03  BASE  2.25204  202  2.63424  214  -8.8  100   -8.8  76    0     999.1    NA       0.0000   9999     750   0     0    
2019/08/16  17:33:03  BASE  2.28732  187  2.69304  175  -8.7  100   -8.7  80    0     999.1    NA       0.0000   9999     850   0     0    
2019/08/16  17:34:02  BASE  2.31672  164  2.69304  153  -8.7  100   -8.7  83    0     999.1    NA       0.0000   9999     720   0     0    
2019/08/16  17:35:03  BASE  1.81104  155  2.69304  153  -8.7  100   -8.7  81    0     999.1    NA       0.0000   9999     720   0     0    
2019/08/16  17:36:03  BASE  1.07016  158  2.69304  153  -8.6  100   -8.6  82    0     999.1    NA       0.0000   9999     720   0     0    
2019/08/16  17:37:03  BASE  1.07016  141  2.69304  153  -8.6  100   -8.6  82    0     999.1    NA       0.0000   9999     690   0     0    
2019/08/16  17:38:03  BASE  1.2642   109  2.69304  153  -8.6  100   -8.6  84    0     999.1    NA       0.0000   9999     750   0     0    
2019/08/16  17:39:03  BASE  1.34064  101  2.69304  153  -8.6  100   -8.6  82    0     999.1    NA       0.0000   9999     720   0     0    
2019/08/16  17:40:03  BASE  1.52292  114  2.69304  153  -8.6  100   -8.6  81    0     999.1    NA       0.0000   9999     750   0     0    
2019/08/16  17:41:03  BASE  1.45824  126  2.69304  153  -8.6  100   -8.6  87    0     999.1    NA       0.0000   9999     720   0     0    
2019/08/16  17:42:03  BASE  1.63464  135  2.69304  153  -8.6  100   -8.6  87    0     999.1    NA       0.0000   9999     790   0     0    
2019/08/16  17:43:03  BASE  1.60524  129  2.69304  153  -8.6  100   -8.6  86    0     999.1    NA       0.0000   9999     720   0     0    
2019/08/16  17:44:03  BASE  1.39356  128  2.26968  150  -8.6  100   -8.6  86    0     999.1    NA       0.0000   9999     750   0     0    
2019/08/16  17:45:03  BASE  1.323    137  2.26968  150  -8.6  100   -8.6  78    0     999.1    NA       0.0000   9999     790   0     0    
2019/08/16  17:46:02  BASE  1.07016  137  2.26968  150  -8.6  100   -8.6  75    0     999.2    NA       0.0000   9999     790   0     0    
2019/08/16  17:47:03  BASE  0.87024  138  2.26968  150  -8.6  100   -8.6  80    0     999.2    NA       0.0000   9999     790   0     0    
2019/08/16  17:48:03  BASE  0.75264  135  2.26968  150  -8.6  100   -8.6  79    0     999.3    NA       0.0000   9999     850   0     0    
2019/08/16  17:49:02  BASE  0.59388  132  2.26968  150  -8.6  100   -8.6  76    0     999.2    NA       0.0000   9999     850   0     0    
2019/08/16  17:50:03  BASE  0.36456  127  2.26968  150  -8.6  100   -8.6  78    0     999.2    NA       0.0000   9999     820   0     0    
2019/08/16  17:51:03  BASE  0.28224  126  2.26968  150  -8.7  100   -8.7  76    0     999.3    NA       0.0000   9999     850   0     0    
2019/08/16  17:52:04  BASE  0.56448  164  1.75224  127  -8.7  100   -8.7  69    0     999.4    NA       0.0000   9999     850   0     0    
2019/08/16  17:53:03  BASE  1.29948  204  2.24028  189  -8.7  100   -8.7  62    0     999.4    NA       0.0000   9999     890   0     0    
2019/08/16  17:54:02  BASE  2.21676  206  2.90472  200  -8.7  100   -8.7  57    0     999.4    NA       0.0000   9999     920   0     0    
2019/08/16  17:55:03  BASE  2.6754   188  2.90472  200  -8.7  100   -8.7  55    0     999.5    NA       0.0000   9999     820   0     0    
2019/08/16  17:56:02  BASE  2.31672  175  2.90472  200  -8.7  100   -8.7  54    0     999.5    NA       0.0000   9999     820   0     0    
2019/08/16  17:57:03  BASE  1.91688  190  2.90472  200  -8.6  100   -8.6  60    0     999.5    NA       0.0000   9999     790   0     0    
2019/08/16  17:58:03  BASE  1.99332  203  2.90472  200  -8.6  100   -8.6  69    0     999.6    NA       0.0000   9999     890   0     0    
2019/08/16  17:59:03  BASE  2.02272  198  2.90472  200  -8.6  100   -8.6  70    0     999.6    NA       0.0000   9999     750   0     0    
2019/08/16  18:00:03  BASE  1.86984  181  2.90472  200  -8.7  100   -8.7  71    0     999.6    NA       0.0000   9999     790   0     0    
2019/08/16  18:01:03  BASE  1.86984  170  2.90472  200  -8.7  100   -8.7  72    0     999.6    NA       0.0000   9999     790   0     0    
2019/08/16  18:02:03  BASE  2.14032  162  2.96352  149  -8.7  100   -8.7  72    0     999.6    NA       0.0000   9999     820   0     0    
2019/08/16  18:03:03  BASE  2.22852  149  2.96352  149  -8.6  100   -8.6  72    0     999.6    NA       0.0000   9999     890   0     0    
2019/08/16  18:04:04  BASE  1.79928  154  2.96352  149  -8.6  100   -8.6  70    0     999.6    NA       0.0000   9999     850   0     0    
2019/08/16  18:05:03  BASE  1.32888  164  2.96352  149  -8.6  100   -8.6  70    0     999.6    NA       0.0000   9999     850   0     0    
2019/08/16  18:06:03  BASE  1.27596  164  2.96352  149  -8.6  100   -8.6  73    0     999.6    NA       0.0000   9999     790   0     0    
2019/08/16  18:07:03  BASE  1.68168  152  2.96352  149  -8.6  100   -8.6  82    0     999.7    NA       0.0000   9999     750   0     0    
2019/08/16  18:08:03  BASE  1.77576  143  2.96352  149  -8.5  100   -8.5  92    0     999.7    NA       0.0000   9999     790   0     0    
2019/08/16  18:09:02  BASE  1.47     152  2.96352  149  -8.5  100   -8.5  96    0     999.7    NA       0.0000   9999     850   0     0    
2019/08/16  18:10:03  BASE  1.28184  169  2.96352  149  -8.5  100   -8.5  93    0     999.7    NA       0.0000   9999     890   0     0    
2019/08/16  18:11:02  BASE  0.89376  178  2.96352  149  -8.5  100   -8.5  91    0     999.7    NA       0.0000   9999     850   0     0    
2019/08/16  18:12:03  BASE  0.46452  178  2.72244  152  -8.5  100   -8.5  94    0     999.7    NA       0.0000   9999     890   0     0    
2019/08/16  18:13:02  BASE  0.18228  182  2.24028  152  -8.5  100   -8.5  95    0     999.8    NA       0.0000   9999     850   0     0    
2019/08/16  18:14:04  BASE  0        192  2.24028  152  -8.4  100   -8.4  93    0     999.8    NA       0.0000   9999     850   0     0    
2019/08/16  18:15:03  BASE  0        184  2.24028  152  -8.4  100   -8.4  84    0     999.8    NA       0.0000   9999     890   0     0    
2019/08/16  18:16:02  BASE  0        173  2.24028  152  -8.4  100   -8.4  73    0     999.8    NA       0.0000   9999     920   0     0    
2019/08/16  18:17:03  BASE  0        170  1.81692  140  -8.4  100   -8.4  74    0     999.8    NA       0.0000   9999     890   0     0    
2019/08/16  18:18:03  BASE  0        124  1.54056  174  -8.4  100   -8.4  81    0     999.8    NA       0.0000   9999     920   0     0    
2019/08/16  18:19:03  BASE  0        82   1.54056  174  -8.4  100   -8.4  80    0     999.9    NA       0.0000   9999     890   0     0    
2019/08/16  18:20:03  BASE  0        82   0.9702   172  -8.4  100   -8.4  74    0     999.9    NA       0.0000   9999     890   0     0    
2019/08/16  18:21:02  BASE  0        82   0.69384  180  -8.5  100   -8.5  68    0     999.9    NA       0.0000   9999     890   0     0    
2019/08/16  18:22:03  BASE  0        82   0        M    -8.5  100   -8.5  70    0     999.9    NA       0.0000   9999     920   0     0    
2019/08/16  18:23:03  BASE  0        67   0        M    -8.5  100   -8.5  73    0     1000.0   NA       0.0000   9999     950   0     0    
2019/08/16  18:24:02  BASE  0        51   0        M    -8.5  100   -8.5  74    0     1000.1   NA       0.0000   9999     920   0     0    
2019/08/16  18:25:03  BASE  0        50   0        M    -8.5  100   -8.5  73    0     1000.1   NA       0.0000   9999     950   0     0    
2019/08/16  18:26:02  BASE  0        50   0        M    -8.5  100   -8.5  72    0     1000.1   NA       0.0000   9999     980   0     0    
2019/08/16  18:27:02  BASE  0        70   0        M    -8.5  100   -8.5  68    0     1000.1   NA       0.0000   9999     950   0     0    
2019/08/16  18:28:02  BASE  0        69   0        M    -8.5  100   -8.5  61    0     999.9    NA       0.0000   9999     920   0     0    
2019/08/16  18:29:03  BASE  0.54096  50   1.35828  59   -8.5  100   -8.5  56    0     999.9    NA       0.0000   9999     920   0     0    
2019/08/16  18:30:03  BASE  0.90552  58   1.35828  59   -8.5  100   -8.5  54    0     999.9    NA       0.0000   9999     950   0     0    
2019/08/16  18:31:03  BASE  0.4998   69   1.35828  59   -8.6  100   -8.6  53    0     1000.0   NA       0.0000   9999     0     0     0    
2019/08/16  18:32:03  BASE  0.21756  99   1.35828  59   -8.6  100   -8.6  51    0     1000.1   NA       0.0000   9999     0     0     0    
2019/08/16  18:33:02  BASE  0.2646   129  1.35828  59   -8.7  100   -8.7  51    0     1000.1   NA       0.0000   9999     950   0     0    
2019/08/16  18:34:03  BASE  0.28812  137  1.35828  59   -8.7  100   -8.7  52    0     1000.1   NA       0.0000   9999     950   0     0    
2019/08/16  18:35:03  BASE  0.39984  128  1.35828  59   -8.7  100   -8.7  81    0     1000.2   NA       0.0000   9999     920   0     0    
2019/08/16  18:36:02  BASE  0.53508  109  1.35828  59   -8.6  100   -8.6  65    0     1000.2   NA       0.0000   9999     890   0     0    
2019/08/16  18:37:03  BASE  0.59976  106  1.35828  59   -8.6  100   -8.6  105   0     1000.2   NA       0.0000   9999     0     0     0    
2019/08/16  18:38:03  BASE  0.80556  110  1.35828  59   -8.6  100   -8.6  118   0     1000.3   NA       0.0000   9999     0     0     0    
2019/08/16  18:39:02  BASE  1.1466   102  1.63464  93   -8.7  100   -8.7  111   0     1000.3   NA       0.0000   9999     0     0     0    
2019/08/16  18:40:03  BASE  1.4994   92   1.87572  83   -8.7  100   -8.7  117   0     1000.3   NA       0.0000   9999     0     0     0    
2019/08/16  18:41:03  BASE  1.72872  85   1.90512  80   -8.8  100   -8.8  119   0     1000.3   NA       0.0000   9999     0     0     0    
2019/08/16  18:42:03  BASE  1.911    83   2.0286   86   -8.8  100   -8.8  77    0     1000.4   NA       0.0000   9999     0     0     0    
2019/08/16  18:43:03  BASE  1.84044  88   2.0286   86   -8.8  100   -8.8  65    0     1000.4   NA       0.0000   9999     0     0     0    
2019/08/16  18:44:03  BASE  1.60524  87   2.0286   86   -8.8  100   -8.8  54    0     1000.4   NA       0.0000   9999     0     0     0    
2019/08/16  18:45:02  BASE  1.42884  81   2.0286   86   -8.8  100   -8.8  73    0     1000.4   NA       0.0000   9999     0     0     0    
2019/08/16  18:46:03  BASE  1.27596  78   2.0286   86   -8.7  100   -8.7  94    0     1000.4   NA       0.0000   9999     0     0     0    
2019/08/16  18:47:03  BASE  1.18188  79   2.0286   86   -8.7  100   -8.7  71    0     1000.4   NA       0.0000   9999     0     0     0    
2019/08/16  18:48:03  BASE  1.09368  77   2.0286   86   -8.7  100   -8.7  84    0     1000.4   NA       0.0000   9999     0     0     0    
2019/08/16  18:49:02  BASE  0.93492  70   2.0286   86   -8.7  100   -8.7  69    0     1000.4   NA       0.0000   9999     0     0     0    
2019/08/16  18:50:02  BASE  1.0584   65   2.0286   86   -8.7  100   -8.7  65    0     1000.4   NA       0.0000   9999     0     0     0    
2019/08/16  18:51:02  BASE  1.18188  66   2.0286   86   -8.7  100   -8.7  76    0     1000.4   NA       0.0000   9999     0     0     0    
2019/08/16  18:52:03  BASE  1.10544  79   1.96392  91   -8.8  100   -8.8  98    0     1000.5   NA       0.0000   9999     0     0     0    
2019/08/16  18:53:03  BASE  1.42884  89   1.9992   86   -8.9  100   -8.9  99    0     1000.5   NA       0.0000   9999     0     0     0    
2019/08/16  18:54:02  BASE  1.80516  87   2.0286   86   -9.0  100   -9.0  97    0     1000.5   NA       0.0000   9999     0     0     0    
2019/08/16  18:55:02  BASE  1.71108  82   2.0286   86   -9.0  100   -9.0  95    0     1000.6   NA       0.0000   9999     0     0     0    
2019/08/16  18:56:02  BASE  1.59936  79   2.0286   86   -9.2  100   -9.2  94    0     1000.7   NA       0.0000   9999     0     0     0    
2019/08/16  18:57:03  BASE  1.76988  79   2.0874   82   -9.2  100   -9.2  93    0     1000.7   NA       0.0000   9999     0     0     0    
2019/08/16  18:58:02  BASE  2.04036  78   2.38728  85   -9.3  100   -9.3  91    0     1000.8   NA       0.0000   9999     0     0     0    
2019/08/16  18:59:02  BASE  2.09916  82   2.38728  85   -9.3  100   -9.3  87    0     1000.8   NA       0.0000   9999     0     0     0    
2019/08/16  19:00:03  BASE  1.95216  83   2.38728  85   -9.3  100   -9.3  57    0     1000.8   NA       0.0000   9999     0     0     0    
2019/08/16  19:01:02  BASE  1.78752  82   2.38728  85   -9.3  100   -9.3  78    0     1000.8   NA       0.0000   9999     0     0     0    
2019/08/16  19:02:03  BASE  1.80516  82   2.38728  85   -9.2  100   -9.2  85    0     1000.8   NA       0.0000   9999     0     0     0    
2019/08/16  19:03:03  BASE  1.94628  78   2.38728  85   -9.2  100   -9.2  84    0     1000.8   NA       0.0000   9999     0     0     0    
2019/08/16  19:04:05  BASE  2.18736  74   2.54016  74   -9.2  100   -9.2  82    0     1000.8   NA       0.0000   9999     0     0     0    
2019/08/16  19:05:03  BASE  2.5872   74   2.93412  78   -9.3  100   -9.3  81    0     1000.8   NA       0.0000   9999     0     0     0    
2019/08/16  19:06:04  BASE  2.74596  74   2.93412  78   -9.3  100   -9.3  79    0     1000.9   NA       0.0000   9999     0     0     0    
2019/08/16  19:07:03  BASE  2.68716  73   2.93412  78   -9.4  100   -9.4  78    0     1000.9   NA       0.0000   9999     0     0     0    
2019/08/16  19:08:04  BASE  2.69304  73   2.93412  78   -9.4  100   -9.4  76    0     1000.9   NA       0.0000   9999     0     0     0    
2019/08/16  19:09:02  BASE  2.72832  71   2.96352  71   -9.4  100   -9.4  75    0     1000.9   NA       0.0000   9999     0     0     0    
2019/08/16  19:10:03  BASE  2.68128  69   2.96352  71   -9.4  100   -9.4  74    0     1000.8   NA       0.0000   9999     0     0     0    
2019/08/16  19:11:03  BASE  2.60484  68   2.96352  71   -9.4  100   -9.4  73    0     1000.9   NA       0.0000   9999     0     0     0    
2019/08/16  19:12:04  BASE  2.47548  66   2.96352  71   -9.4  100   -9.4  71    0     1000.9   NA       0.0000   9999     0     0     0    
2019/08/16  19:13:03  BASE  2.16972  62   2.96352  71   -9.4  100   -9.4  70    0     1000.9   NA       0.0000   9999     0     0     0    
2019/08/16  19:14:03  BASE  2.09916  58   2.96352  71   -9.4  100   -9.4  69    0     1000.9   NA       0.0000   9999     0     0     0    
2019/08/16  19:15:03  BASE  2.16384  58   2.96352  71   -9.3  100   -9.3  67    0     1000.8   NA       0.0000   9999     0     0     0    
2019/08/16  19:16:03  BASE  1.97568  58   2.96352  71   -9.2  100   -9.2  66    0     1000.8   NA       0.0000   9999     0     0     0    
2019/08/16  19:17:03  BASE  1.77576  54   2.96352  71   -9.2  100   -9.2  65    0     1000.9   NA       0.0000   9999     0     0     0    
2019/08/16  19:18:03  BASE  1.78752  53   2.96352  71   -9.2  100   -9.2  64    0     1000.9   NA       0.0000   9999     0     0     0    
2019/08/16  19:19:02  BASE  1.87572  52   2.75184  67   -9.1  100   -9.1  63    0     1000.9   NA       0.0000   9999     0     0     0    
2019/08/16  19:20:03  BASE  1.81104  49   2.69304  68   -9.2  100   -9.2  62    0     1000.9   NA       0.0000   9999     0     0     0    
2019/08/16  19:21:02  BASE  1.69344  42   2.51076  60   -9.2  100   -9.2  61    0     1000.9   NA       0.0000   9999     0     0     0    
2019/08/16  19:22:03  BASE  1.47     34   2.38728  53   -9.3  100   -9.3  59    0     1000.9   NA       0.0000   9999     0     0     0    
2019/08/16  19:23:03  BASE  1.2348   31   2.38728  53   -9.3  100   -9.3  58    0     1001.0   NA       0.0000   9999     0     0     0    
2019/08/16  19:24:03  BASE  1.19364  28   2.32848  56   -9.4  100   -9.4  57    0     1001.0   NA       0.0000   9999     0     0     0    
2019/08/16  19:25:03  BASE  1.19952  24   2.0286   50   -9.4  100   -9.4  56    0     1001.0   NA       0.0000   9999     0     0     0    
2019/08/16  19:26:03  BASE  1.14072  18   2.0286   50   -9.4  100   -9.4  55    0     1001.1   NA       0.0000   9999     0     0     0    
2019/08/16  19:27:03  BASE  1.09368  12   2.0286   50   -9.4  100   -9.4  54    0     1001.1   NA       0.0000   9999     0     0     0    
2019/08/16  19:28:04  BASE  1.10544  7    2.0286   50   -9.4  100   -9.4  52    0     1001.1   NA       0.0000   9999     0     0     0    
2019/08/16  19:29:03  BASE  1.18776  360  1.87572  36   -9.4  100   -9.4  51    0     1001.0   NA       0.0000   9999     0     0     0    
2019/08/16  19:30:03  BASE  1.34064  2    1.87572  36   -9.4  100   -9.4  50    0     1001.1   NA       0.0000   9999     0     0     0    
2019/08/16  19:31:03  BASE  1.42296  9    1.57584  8    -9.4  100   -9.4  48    0     1001.1   NA       0.0000   9999     0     0     0    
2019/08/16  19:32:04  BASE  1.43472  16   1.57584  29   -9.6  100   -9.6  47    0     1001.1   NA       0.0000   9999     0     0     0    
2019/08/16  19:33:03  BASE  1.55232  29   1.75224  40   -9.7  100   -9.7  46    0     1001.1   NA       0.0000   9999     0     0     0    
2019/08/16  19:34:03  BASE  1.53468  34   1.75224  40   -9.8  100   -9.8  45    0     1001.1   NA       0.0000   9999     0     0     0    
2019/08/16  19:35:03  BASE  1.4406   29   1.75224  40   -9.8  100   -9.8  44    0     1001.1   NA       0.0000   9999     0     0     0    
2019/08/16  19:36:03  BASE  1.39356  24   1.75224  40   -9.8  100   -9.8  43    0     1001.1   NA       0.0000   9999     0     0     0    
2019/08/16  19:37:03  BASE  1.3818   22   1.75224  40   -9.8  100   -9.8  42    0     1001.2   NA       0.0000   9999     0     0     0    
2019/08/16  19:38:03  BASE  1.38768  16   1.75224  40   -9.8  100   -9.8  41    0     1001.3   NA       0.0000   9999     0     0     0    
2019/08/16  19:39:02  BASE  1.37004  10   1.75224  40   -9.8  100   -9.8  40    0     1001.3   NA       0.0000   9999     0     0     0    
2019/08/16  19:40:03  BASE  1.48764  12   1.75224  40   -9.8  100   -9.8  39    0     1001.3   NA       0.0000   9999     0     0     0    
2019/08/16  19:41:03  BASE  1.59936  12   1.75224  9    -9.9  100   -9.9  38    0     1001.3   NA       0.0000   9999     0     0     0    
2019/08/16  19:42:03  BASE  1.62876  10   1.75224  9    -9.9  100   -9.9  37    0     1001.3   NA       0.0000   9999     0     0     0    
2019/08/16  19:43:02  BASE  1.64052  14   1.75224  9    -10.0 100   -10.0 36    0     1001.4   NA       0.0000   9999     0     0     0    
2019/08/16  19:44:03  BASE  1.7052   21   1.96392  25   -10.0 100   -10.0 35    0     1001.4   NA       0.0000   9999     0     0     0    
2019/08/16  19:45:03  BASE  1.82868  25   2.1462   23   -10.0 100   -10.0 34    0     1001.4   NA       0.0000   9999     0     0     0    
2019/08/16  19:46:03  BASE  1.8522   26   2.1462   23   -10.0 100   -10.0 33    0     1001.5   NA       0.0000   9999     0     0     0    
2019/08/16  19:47:03  BASE  1.75812  25   2.1462   23   -10.0 100   -10.0 32    0     1001.5   NA       0.0000   9999     0     0     0    
2019/08/16  19:48:03  BASE  1.75224  21   2.1462   23   -9.9  100   -9.9  31    0     1001.5   NA       0.0000   9999     0     0     0    
2019/08/16  19:49:03  BASE  1.76988  19   2.1462   23   -9.9  100   -9.9  30    0     1001.5   NA       0.0000   9999     0     0     0    
2019/08/16  19:50:03  BASE  1.68756  23   2.1462   23   -9.9  100   -9.9  29    0     1001.5   NA       0.0000   9999     0     0     0    
2019/08/16  19:51:03  BASE  1.66992  26   2.1462   23   -10.0 100   -10.0 29    0     1001.5   NA       0.0000   9999     0     0     0    
2019/08/16  19:52:03  BASE  1.77576  28   2.1462   23   -10.0 100   -10.0 28    0     1001.5   NA       0.0000   9999     0     0     0    
2019/08/16  19:53:03  BASE  1.85808  41   2.1462   23   -10.0 100   -10.0 27    0     1001.6   NA       0.0000   9999     0     0     0    
2019/08/16  19:54:03  BASE  1.95216  47   2.26968  39   -9.9  100   -9.9  26    0     1001.6   NA       0.0000   9999     0     0     0    
2019/08/16  19:55:03  BASE  2.07564  45   2.26968  43   -9.9  100   -9.9  25    0     1001.6   NA       0.0000   9999     0     0     0    
2019/08/16  19:56:03  BASE  2.09916  44   2.29908  39   -9.7  100   -9.7  25    0     1001.6   NA       0.0000   9999     0     0     0    
2019/08/16  19:57:03  BASE  1.96392  40   2.29908  39   -9.7  100   -9.7  24    0     1001.6   NA       0.0000   9999     0     0     0    
2019/08/16  19:58:03  BASE  1.9404   32   2.29908  39   -9.6  100   -9.6  23    0     1001.6   NA       0.0000   9999     0     0     0    
2019/08/16  19:59:03  BASE  1.96392  29   2.29908  39   -9.5  100   -9.5  22    0     1001.6   NA       0.0000   9999     0     0     0    
2019/08/16  20:00:03  BASE  1.7934   36   2.29908  39   -9.5  100   -9.5  22    0     1001.6   NA       0.0000   9999     0     0     0    
2019/08/16  20:01:03  BASE  1.63464  41   2.29908  39   -9.5  100   -9.5  21    0     1001.7   NA       0.0000   9999     0     0     0    
2019/08/16  20:02:03  BASE  1.61112  39   2.29908  39   -9.5  100   -9.5  20    0     1001.7   NA       0.0000   9999     0     0     0    
2019/08/16  20:03:03  BASE  1.76988  28   2.29908  39   -9.5  100   -9.5  19    0     1001.7   NA       0.0000   9999     0     0     0    
2019/08/16  20:04:04  BASE  1.8522   22   2.29908  39   -9.5  100   -9.5  18    0     1001.7   NA       0.0000   9999     0     0     0    
2019/08/16  20:05:03  BASE  1.80516  22   2.29908  39   -9.5  100   -9.5  18    0     1001.7   NA       0.0000   9999     0     0     0    
2019/08/16  20:06:03  BASE  1.72284  23   2.1168   27   -9.5  100   -9.5  17    0     1001.8   NA       0.0000   9999     0     0     0    
2019/08/16  20:07:03  BASE  1.77576  30   2.21088  36   -9.5  100   -9.5  16    0     1001.8   NA       0.0000   9999     0     0     0    
2019/08/16  20:08:03  BASE  1.96392  32   2.21088  36   -9.6  100   -9.6  16    0     1001.8   NA       0.0000   9999     0     0     0    
2019/08/16  20:09:03  BASE  2.04036  29   2.21088  28   -9.6  100   -9.6  15    0     1001.8   NA       0.0000   9999     0     0     0    
2019/08/16  20:10:03  BASE  2.0874   30   2.24028  33   -9.6  100   -9.6  15    0     1001.9   NA       0.0000   9999     0     0     0    
2019/08/16  20:11:03  BASE  2.18148  32   2.51076  35   -9.6  100   -9.6  14    0     1002.0   NA       0.0000   9999     0     0     0    
2019/08/16  20:12:03  BASE  2.27556  33   2.51076  35   -9.6  100   -9.6  13    0     1002.0   NA       0.0000   9999     0     0     0    
2019/08/16  20:13:03  BASE  2.32848  32   2.51076  35   -9.7  100   -9.7  13    0     1002.0   NA       0.0000   9999     0     0     0    
2019/08/16  20:14:03  BASE  2.25792  31   2.51076  35   -9.7  100   -9.7  12    0     1002.0   NA       0.0000   9999     0     0     0    
2019/08/16  20:15:03  BASE  2.24028  32   2.51076  35   -9.8  100   -9.8  11    0     1002.0   NA       0.0000   9999     0     0     0    
2019/08/16  20:16:03  BASE  2.205    35   2.51076  35   -9.8  100   -9.8  11    0     1002.0   NA       0.0000   9999     0     0     0    
2019/08/16  20:17:03  BASE  2.07564  37   2.51076  35   -9.8  100   -9.8  10    0     1002.0   NA       0.0000   9999     0     0     0    
2019/08/16  20:18:03  BASE  1.98156  36   2.51076  35   -9.8  100   -9.8  10    0     1002.0   NA       0.0000   9999     0     0     0    
2019/08/16  20:19:03  BASE  1.86396  33   2.51076  35   -9.8  100   -9.8  9     0     1002.1   NA       0.0000   9999     0     0     0    
2019/08/16  20:20:03  BASE  1.81692  28   2.51076  35   -9.7  100   -9.7  9     0     1002.1   NA       0.0000   9999     0     0     0    
2019/08/16  20:21:03  BASE  1.78752  28   2.48136  28   -9.6  100   -9.6  9     0     1002.1   NA       0.0000   9999     0     0     0    
2019/08/16  20:22:03  BASE  1.75224  30   2.48136  28   -9.6  100   -9.6  8     0     1002.2   NA       0.0000   9999     0     0     0    
2019/08/16  20:23:03  BASE  1.72284  30   2.42256  31   -9.5  100   -9.5  8     0     1002.2   NA       0.0000   9999     0     0     0    
2019/08/16  20:24:03  BASE  1.7346   28   2.42256  31   -9.5  100   -9.5  7     0     1002.2   NA       0.0000   9999     0     0     0    
2019/08/16  20:25:02  BASE  1.71696  30   2.24028  33   -9.5  100   -9.5  7     0     1002.2   NA       0.0000   9999     0     0     0    
2019/08/16  20:26:02  BASE  1.79928  36   2.24028  33   -9.5  100   -9.5  7     0     1002.2   NA       0.0000   9999     0     0     0    
2019/08/16  20:27:03  BASE  1.93452  37   2.1462   36   -9.5  100   -9.5  6     0     1002.2   NA       0.0000   9999     0     0     0    
2019/08/16  20:28:03  BASE  1.98156  36   2.1168   34   -9.5  100   -9.5  6     0     1002.2   NA       0.0000   9999     0     0     0    
2019/08/16  20:29:03  BASE  1.98156  36   2.1168   34   -9.5  100   -9.5  6     0     1002.2   NA       0.0000   9999     0     0     0    
2019/08/16  20:30:03  BASE  1.911    34   2.24028  37   -9.5  100   -9.5  5     0     1002.2   NA       0.0000   9999     0     0     0    
2019/08/16  20:31:03  BASE  1.84044  34   2.24028  37   -9.5  100   -9.5  5     0     1002.2   NA       0.0000   9999     0     0     0    
2019/08/16  20:32:03  BASE  1.76988  38   2.24028  37   -9.5  100   -9.5  5     0     1002.2   NA       0.0000   9999     0     0     0    
2019/08/16  20:33:02  BASE  1.75812  46   2.24028  37   -9.4  100   -9.4  5     0     1002.2   NA       0.0000   9999     0     0     0    
2019/08/16  20:34:03  BASE  1.69344  50   2.24028  37   -9.3  100   -9.3  4     0     1002.3   NA       0.0000   9999     0     0     0    
2019/08/16  20:35:02  BASE  1.51704  51   2.24028  37   -9.3  100   -9.3  4     0     1002.3   NA       0.0000   9999     0     0     0    
2019/08/16  20:36:03  BASE  1.38768  50   2.24028  37   -9.2  100   -9.2  4     0     1002.3   NA       0.0000   9999     0     0     0    
2019/08/16  20:37:03  BASE  1.35828  48   2.24028  37   -9.1  100   -9.1  4     0     1002.3   NA       0.0000   9999     0     0     0    
2019/08/16  20:38:03  BASE  1.3818   42   2.24028  37   -9.0  100   -9.0  3     0     1002.3   NA       0.0000   9999     0     0     0    
2019/08/16  20:39:03  BASE  1.35828  38   2.24028  37   -9.0  100   -9.0  3     0     1002.3   NA       0.0000   9999     0     0     0    
2019/08/16  20:40:02  BASE  1.37592  38   1.93452  31   -9.0  100   -9.0  3     0     1002.3   NA       0.0000   9999     0     0     0    
2019/08/16  20:41:02  BASE  1.40532  40   1.84632  50   -8.9  100   -8.9  3     0     1002.4   NA       0.0000   9999     0     0     0    
2019/08/16  20:42:03  BASE  1.39944  43   1.84632  50   -8.9  100   -8.9  3     0     1002.5   NA       0.0000   9999     0     0     0    
2019/08/16  20:43:02  BASE  1.37004  40   1.69344  50   -8.9  100   -8.9  3     0     1002.5   NA       0.0000   9999     0     0     0    
2019/08/16  20:44:03  BASE  1.24656  35   1.57584  53   -8.9  100   -8.9  3     0     1002.6   NA       0.0000   9999     0     0     0    
2019/08/16  20:45:03  BASE  1.18188  33   1.54056  40   -8.8  100   -8.8  2     0     1002.6   NA       0.0000   9999     0     0     0    
2019/08/16  20:46:03  BASE  1.15836  35   1.54056  40   -8.8  100   -8.8  2     0     1002.6   NA       0.0000   9999     0     0     0    
2019/08/16  20:47:03  BASE  1.1172   37   1.54056  40   -8.8  100   -8.8  2     0     1002.6   NA       0.0000   9999     0     0     0    
2019/08/16  20:48:03  BASE  1.0584   39   1.54056  40   -8.8  99    -8.8  2     0     1002.7   NA       0.0000   9999     0     0     0    
2019/08/16  20:49:03  BASE  1.0584   36   1.54056  40   -8.7  99    -8.8  2     0     1002.7   NA       0.0000   9999     0     0     0    
2019/08/16  20:50:03  BASE  0.99372  31   1.54056  40   -8.7  99    -8.8  2     0     1002.7   NA       0.0000   9999     0     0     0    
2019/08/16  20:51:02  BASE  0.82908  29   1.54056  40   -8.7  99    -8.8  2     0     1002.8   NA       0.0000   9999     0     0     0    
2019/08/16  20:52:03  BASE  0.74676  24   1.54056  40   -8.7  99    -8.8  2     0     1002.8   NA       0.0000   9999     0     0     0    
2019/08/16  20:53:03  BASE  0.71736  22   1.35828  37   -8.7  99    -8.9  2     0     1002.8   NA       0.0000   9999     0     0     0    
2019/08/16  20:54:03  BASE  0.6468   16   1.35828  37   -8.7  98    -8.9  2     0     1002.8   NA       0.0000   9999     0     0     0    
2019/08/16  20:55:03  BASE  0.68208  8    1.35828  37   -8.7  98    -9.0  2     0     1002.8   NA       0.0000   9999     0     0     0    
2019/08/16  20:56:03  BASE  0.98784  358  1.35828  352  -8.9  97    -9.2  2     0     1002.8   NA       0.0000   9999     0     0     0    
2019/08/16  20:57:03  BASE  1.27596  357  1.60524  3    -9.1  97    -9.4  2     0     1002.8   NA       0.0000   9999     0     0     0    
2019/08/16  20:58:03  BASE  1.31712  11   1.60524  3    -9.3  96    -9.8  2     0     1002.8   NA       0.0000   9999     0     0     0    
2019/08/16  20:59:03  BASE  1.22304  28   1.60524  3    -9.6  96    -10.1 2     0     1002.8   NA       0.0000   9999     0     0     0    
2019/08/16  21:00:03  BASE  1.029    32   1.60524  3    -9.8  95    -10.4 1     0     1002.8   NA       0.0000   9999     0     0     0    
2019/08/16  21:01:03  BASE  0.87024  17   1.60524  3    -9.9  95    -10.5 1     0     1002.8   NA       0.0000   9999     0     0     0    
2019/08/16  21:02:03  BASE  0.87024  0    1.60524  3    -9.8  95    -10.4 1     0     1002.8   NA       0.0000   9999     0     0     0    
2019/08/16  21:03:03  BASE  0.84672  352  1.60524  3    -9.6  95    -10.3 1     0     1002.8   NA       0.0000   9999     0     0     0    
2019/08/16  21:04:05  BASE  0.68208  358  1.60524  3    -9.5  94    -10.3 1     0     1002.8   NA       0.0000   9999     0     0     0    
2019/08/16  21:05:03  BASE  0.68796  5    1.60524  3    -9.5  93    -10.4 1     0     1002.8   NA       0.0000   9999     0     0     0    
2019/08/16  21:06:03  BASE  1.00548  15   1.60524  3    -9.5  92    -10.5 1     0     1002.9   NA       0.0000   9999     0     0     0    
2019/08/16  21:07:03  BASE  1.2348   32   1.35828  42   -9.5  91    -10.8 1     0     1002.9   NA       0.0000   9999     0     0     0    
2019/08/16  21:08:03  BASE  1.13484  39   1.35828  42   -9.6  90    -11.0 1     0     1002.9   NA       0.0000   9999     0     0     0    
2019/08/16  21:09:02  BASE  1.01136  32   1.35828  42   -9.5  88    -11.1 1     0     1003.0   NA       0.0000   9999     0     0     0    
2019/08/16  21:10:03  BASE  0.95256  23   1.35828  42   -9.4  87    -11.2 1     0     1003.0   NA       0.0000   9999     0     0     0    
2019/08/16  21:11:02  BASE  0.98196  30   1.48176  39   -9.3  86    -11.2 1     0     1003.0   NA       0.0000   9999     0     0     0    
2019/08/16  21:12:03  BASE  1.14072  36   1.48176  39   -9.3  85    -11.3 1     0     1003.0   NA       0.0000   9999     0     0     0    
2019/08/16  21:13:02  BASE  1.21128  35   1.48176  39   -9.2  84    -11.4 1     0     1003.0   NA       0.0000   9999     0     0     0    
2019/08/16  21:14:03  BASE  1.22892  31   1.48176  39   -9.2  83    -11.5 1     0     1003.0   NA       0.0000   9999     0     0     0    
2019/08/16  21:15:03  BASE  1.32888  23   1.48176  22   -9.3  83    -11.7 1     0     1003.1   NA       0.0000   9999     0     0     0    
2019/08/16  21:16:03  BASE  1.43472  19   1.48176  19   -9.3  82    -11.8 0     0     1003.2   NA       0.0000   9999     0     0     0    
2019/08/16  21:17:03  BASE  1.42296  19   1.48176  18   -9.3  81    -11.9 0     0     1003.2   NA       0.0000   9999     0     0     0    
2019/08/16  21:18:04  BASE  1.43472  20   1.54056  18   -9.3  81    -12.0 0     0     1003.2   NA       0.0000   9999     0     0     0    
2019/08/16  21:19:05  BASE  1.51704  19   1.78752  18   -9.4  80    -12.1 0     0     1003.2   NA       0.0000   9999     0     0     0    
2019/08/16  21:20:02  BASE  1.59936  21   1.78752  25   -9.4  80    -12.3 0     0     1003.3   NA       0.0000   9999     0     0     0    
2019/08/16  21:21:03  BASE  1.7052   28   1.96392  42   -9.5  79    -12.4 0     0     1003.3   NA       0.0000   9999     0     0     0    
2019/08/16  21:22:02  BASE  1.7346   35   1.96392  42   -9.6  79    -12.5 0     0     1003.4   NA       0.0000   9999     0     0     0    
2019/08/16  21:23:03  BASE  1.65228  34   1.96392  42   -9.7  79    -12.6 0     0     1003.4   NA       0.0000   9999     0     0     0    
2019/08/16  21:24:04  BASE  1.66404  32   1.96392  42   -9.7  80    -12.6 0     0     1003.4   NA       0.0000   9999     0     0     0    
2019/08/16  21:25:03  BASE  1.7934   31   1.96392  42   -9.8  80    -12.6 0     0     1003.4   NA       0.0000   9999     0     0     0    
2019/08/16  21:26:03  BASE  1.91688  28   2.1462   20   -9.8  81    -12.5 0     0     1003.4   NA       0.0000   9999     0     0     0    
2019/08/16  21:27:03  BASE  2.02272  26   2.21088  24   -9.8  81    -12.5 0     0     1003.4   NA       0.0000   9999     0     0     0    
2019/08/16  21:28:03  BASE  1.97568  25   2.21088  24   -9.9  81    -12.5 0     0     1003.5   NA       0.0000   9999     0     0     0    
2019/08/16  21:29:03  BASE  1.7934   21   2.21088  24   -9.9  81    -12.5 0     0     1003.5   NA       0.0000   9999     0     0     0    
2019/08/16  21:30:03  BASE  1.75224  20   2.21088  24   -9.9  81    -12.5 0     0     1003.5   NA       0.0000   9999     0     0     0    
2019/08/16  21:31:03  BASE  1.83456  23   2.21088  24   -9.9  82    -12.5 0     0     1003.6   NA       0.0000   9999     0     0     0    
2019/08/16  21:32:03  BASE  1.88748  26   2.21088  24   -9.9  82    -12.5 0     0     1003.6   NA       0.0000   9999     0     0     0    
2019/08/16  21:33:02  BASE  1.89336  27   2.21088  24   -9.9  82    -12.4 0     0     1003.6   NA       0.0000   9999     0     0     0    
2019/08/16  21:34:02  BASE  1.91688  30   2.21088  24   -10.0 82    -12.5 0     0     1003.6   NA       0.0000   9999     0     0     0    
2019/08/16  21:35:03  BASE  1.90512  33   2.21088  24   -10.0 82    -12.6 0     0     1003.7   NA       0.0000   9999     0     0     0    
2019/08/16  21:36:03  BASE  1.89924  35   2.21088  24   -10.0 81    -12.6 0     0     1003.8   NA       0.0000   9999     0     0     0    
2019/08/16  21:37:02  BASE  1.8816   37   2.058    36   -10.0 81    -12.6 0     0     1003.8   NA       0.0000   9999     0     0     0    
2019/08/16  21:38:03  BASE  1.7934   39   2.058    36   -10.0 81    -12.7 0     0     1003.8   NA       0.0000   9999     0     0     0    
2019/08/16  21:39:03  BASE  1.68168  35   2.058    36   -9.9  80    -12.7 0     0     1003.7   NA       0.0000   9999     0     0     0    
2019/08/16  21:40:03  BASE  1.58172  31   2.058    36   -9.9  80    -12.7 0     0     1003.8   NA       0.0000   9999     0     0     0    
2019/08/16  21:41:03  BASE  1.64052  31   2.058    36   -9.8  79    -12.8 0     0     1003.9   NA       0.0000   9999     0     0     0    
2019/08/16  21:42:03  BASE  1.7346   30   2.058    36   -9.8  78    -12.9 0     0     1003.9   NA       0.0000   9999     0     0     0    
2019/08/16  21:43:03  BASE  1.65228  29   2.058    36   -9.8  77    -13.1 0     0     1004.0   NA       0.0000   9999     0     0     0    
2019/08/16  21:44:03  BASE  1.5876   27   2.058    36   -9.8  75    -13.3 0     0     1004.0   NA       0.0000   9999     0     0     0    
2019/08/16  21:45:03  BASE  1.62876  21   2.058    36   -9.7  74    -13.5 0     0     1004.1   NA       0.0000   9999     0     0     0    
2019/08/16  21:46:03  BASE  1.74636  18   1.90512  22   -9.7  73    -13.6 0     0     1004.1   NA       0.0000   9999     0     0     0    
2019/08/16  21:47:03  BASE  1.74636  20   1.90512  22   -9.7  72    -13.8 0     0     1004.1   NA       0.0000   9999     0     0     0    
2019/08/16  21:48:02  BASE  1.65816  19   1.90512  9    -9.6  71    -13.9 0     0     1004.1   NA       0.0000   9999     0     0     0    
2019/08/16  21:49:03  BASE  1.59348  19   1.90512  9    -9.6  70    -14.0 0     0     1004.1   NA       0.0000   9999     0     0     0    
2019/08/16  21:50:02  BASE  1.51116  23   1.90512  9    -9.6  69    -14.2 0     0     1004.1   NA       0.0000   9999     0     0     0    
2019/08/16  21:51:03  BASE  1.57584  24   1.90512  9    -9.6  69    -14.3 0     0     1004.1   NA       0.0000   9999     0     0     0    
2019/08/16  21:52:03  BASE  1.71696  23   1.90512  9    -9.6  68    -14.3 0     0     1004.2   NA       0.0000   9999     0     0     0    
2019/08/16  21:53:03  BASE  1.764    25   1.90512  9    -9.5  68    -14.4 0     0     1004.2   NA       0.0000   9999     0     0     0    
2019/08/16  21:54:03  BASE  1.71696  28   1.90512  9    -9.5  67    -14.4 0     0     1004.2   NA       0.0000   9999     0     0     0    
2019/08/16  21:55:02  BASE  1.72284  27   1.90512  9    -9.5  67    -14.5 0     0     1004.2   NA       0.0000   9999     0     0     0    
2019/08/16  21:56:03  BASE  1.81692  24   1.93452  23   -9.5  66    -14.7 0     0     1004.2   NA       0.0000   9999     0     0     0    
2019/08/16  21:57:02  BASE  1.91688  25   2.0286   25   -9.5  65    -14.9 0     0     1004.2   NA       0.0000   9999     0     0     0    
2019/08/16  21:58:03  BASE  2.00508  31   2.29908  41   -9.5  64    -15.0 0     0     1004.2   NA       0.0000   9999     0     0     0    
2019/08/16  21:59:03  BASE  2.27556  38   2.54016  40   -9.6  63    -15.3 0     0     1004.3   NA       0.0000   9999     0     0     0    
2019/08/16  22:00:03  BASE  2.47548  42   2.56956  43   -9.7  63    -15.4 0     0     1004.4   NA       0.0000   9999     0     0     0    
2019/08/16  22:01:03  BASE  2.39904  41   2.56956  43   -9.7  62    -15.6 0     0     1004.4   NA       0.0000   9999     0     0     0    
2019/08/16  22:02:03  BASE  2.352    40   2.56956  43   -9.8  62    -15.7 0     0     1004.5   NA       0.0000   9999     0     0     0    
2019/08/16  22:03:03  BASE  2.38728  39   2.56956  43   -9.9  63    -15.7 0     0     1004.5   NA       0.0000   9999     0     0     0    
2019/08/16  22:04:04  BASE  2.48724  39   2.66364  41   -9.9  63    -15.6 0     0     1004.5   NA       0.0000   9999     0     0     0    
2019/08/16  22:05:03  BASE  2.6754   41   2.93412  42   -9.9  63    -15.5 0     0     1004.5   NA       0.0000   9999     0     0     0    
2019/08/16  22:06:03  BASE  2.8518   43   2.96352  42   -9.9  64    -15.4 0     0     1004.5   NA       0.0000   9999     0     0     0    
2019/08/16  22:07:03  BASE  2.97528  46   3.2046   47   -9.9  64    -15.4 0     0     1004.5   NA       0.0000   9999     0     0     0    
2019/08/16  22:08:03  BASE  3.04584  43   3.2046   47   -9.8  64    -15.4 0     0     1004.5   NA       0.0000   9999     0     0     0    
2019/08/16  22:09:03  BASE  3.03408  35   3.2046   47   -9.8  64    -15.5 0     0     1004.6   NA       0.0000   9999     0     0     0    
2019/08/16  22:10:03  BASE  3.49272  34   4.75104  34   -9.9  63    -15.5 0     0     1004.6   NA       0.0000   9999     0     0     0    
2019/08/16  22:11:03  BASE  3.83964  37   4.75104  34   -9.9  63    -15.7 0     0     1004.6   NA       0.0000   9999     0     0     0    
2019/08/16  22:12:03  BASE  3.42804  42   4.75104  34   -10.0 62    -15.9 0     0     1004.7   NA       0.0000   9999     0     0     0    
2019/08/16  22:13:02  BASE  2.9106   51   4.75104  34   -10.1 61    -16.1 0     0     1004.7   NA       0.0000   9999     0     0     0    
2019/08/16  22:14:03  BASE  2.64012  54   4.75104  34   -10.1 61    -16.3 0     0     1004.7   NA       0.0000   9999     0     0     0    
2019/08/16  22:15:03  BASE  2.6166   51   4.75104  34   -10.1 60    -16.5 0     0     1004.7   NA       0.0000   9999     0     0     0    
2019/08/16  22:16:03  BASE  2.72244  56   4.75104  34   -10.2 58    -16.8 0     0     1004.7   NA       0.0000   9999     0     0     0    
2019/08/16  22:17:03  BASE  2.72832  57   4.75104  34   -10.1 57    -16.9 0     0     1004.7   NA       0.0000   9999     0     0     0    
2019/08/16  22:18:03  BASE  2.38728  46   4.75104  34   -9.9  56    -17.0 0     0     1004.7   NA       0.0000   9999     0     0     0    
2019/08/16  22:19:02  BASE  2.07564  40   4.75104  34   -9.8  55    -17.1 0     0     1004.8   NA       0.0000   9999     0     0     0    
2019/08/16  22:20:02  BASE  1.74048  40   4.2042   35   -9.6  55    -17.0 0     0     1004.8   NA       0.0000   9999     0     0     0    
2019/08/16  22:21:02  BASE  1.3524   33   3.53976  43   -9.4  55    -16.7 0     0     1004.8   NA       0.0000   9999     0     0     0    
2019/08/16  22:22:03  BASE  1.01136  15   3.1458   59   -9.1  55    -16.5 0     0     1004.8   NA       0.0000   9999     0     0     0    
2019/08/16  22:23:02  BASE  0.7644   10   3.1458   59   -8.9  55    -16.3 0     0     1004.9   NA       0.0000   9999     0     0     0    
2019/08/16  22:24:03  BASE  0.94668  28   3.1458   59   -8.8  55    -16.2 0     0     1005.0   NA       0.0000   9999     0     0     0    
2019/08/16  22:25:03  BASE  1.72872  43   3.1458   59   -8.8  55    -16.2 0     0     1005.1   NA       0.0000   9999     0     0     0    
2019/08/16  22:26:02  BASE  2.19324  48   3.1458   59   -8.8  54    -16.4 0     0     1005.1   NA       0.0000   9999     0     0     0    
2019/08/16  22:27:03  BASE  2.14032  50   2.54016  53   -8.9  54    -16.5 0     0     1005.2   NA       0.0000   9999     0     0     0    
2019/08/16  22:28:02  BASE  2.3814   56   2.69304  60   -9.0  54    -16.7 0     0     1005.2   NA       0.0000   9999     0     0     0    
2019/08/16  22:29:02  BASE  2.57544  54   2.99292  48   -9.2  54    -16.7 0     0     1005.2   NA       0.0000   9999     0     0     0    
2019/08/16  22:30:02  BASE  2.6754   44   3.2046   36   -9.2  54    -16.8 0     0     1005.2   NA       0.0000   9999     0     0     0    
2019/08/16  22:31:02  BASE  2.45784  41   3.2046   36   -9.3  55    -16.7 0     0     1005.3   NA       0.0000   9999     0     0     0    
2019/08/16  22:32:03  BASE  2.3226   43   3.2046   36   -9.4  55    -16.7 0     0     1005.3   NA       0.0000   9999     0     0     0    
2019/08/16  22:33:02  BASE  2.39904  46   3.2046   36   -9.4  56    -16.6 0     0     1005.3   NA       0.0000   9999     0     0     0    
2019/08/16  22:34:03  BASE  2.08152  48   3.2046   36   -9.3  57    -16.4 0     0     1005.3   NA       0.0000   9999     0     0     0    
2019/08/16  22:35:02  BASE  1.53468  49   3.2046   36   -9.2  57    -16.1 0     0     1005.3   NA       0.0000   9999     0     0     0    
2019/08/16  22:36:03  BASE  1.66404  54   3.2046   36   -9.1  57    -16.0 0     0     1005.3   NA       0.0000   9999     0     0     0    
2019/08/16  22:37:03  BASE  1.89924  50   3.2046   36   -8.9  57    -15.8 0     0     1005.3   NA       0.0000   9999     0     0     0    
2019/08/16  22:38:03  BASE  1.82868  53   3.2046   36   -8.8  57    -15.7 0     0     1005.3   NA       0.0000   9999     0     0     0    
2019/08/16  22:39:03  BASE  1.82868  59   3.2046   36   -8.7  57    -15.6 0     0     1005.3   NA       0.0000   9999     0     0     0    
2019/08/16  22:40:03  BASE  1.71108  57   2.66364  40   -8.5  57    -15.5 0     0     1005.3   NA       0.0000   9999     0     0     0    
2019/08/16  22:41:02  BASE  1.92864  51   2.66364  40   -8.4  57    -15.5 0     0     1005.3   NA       0.0000   9999     0     0     0    
2019/08/16  22:42:02  BASE  1.92276  42   2.54016  55   -8.4  57    -15.4 0     0     1005.3   NA       0.0000   9999     0     0     0    
2019/08/16  22:43:02  BASE  1.45236  23   2.54016  55   -8.3  57    -15.3 0     0     1005.4   NA       0.0000   9999     0     0     0    
2019/08/16  22:44:02  BASE  1.18776  16   2.54016  55   -8.3  57    -15.2 0     0     1005.4   NA       0.0000   9999     0     0     0    
2019/08/16  22:45:02  BASE  1.0878   22   2.54016  55   -8.3  58    -15.2 0     0     1005.4   NA       0.0000   9999     0     0     0    
2019/08/16  22:46:03  BASE  0.72912  18   2.54016  55   -8.4  58    -15.2 0     0     1005.4   NA       0.0000   9999     0     0     0    
2019/08/16  22:47:03  BASE  0.95844  2    2.54016  55   -8.4  58    -15.1 0     0     1005.4   NA       0.0000   9999     0     0     0    
2019/08/16  22:48:03  BASE  1.42296  337  2.54016  55   -8.4  59    -15.1 0     0     1005.4   NA       0.0000   9999     0     0     0    
2019/08/16  22:49:02  BASE  1.54644  328  2.54016  55   -8.4  59    -15.1 0     0     1005.5   NA       0.0000   9999     0     0     0    
2019/08/16  22:50:03  BASE  1.60524  333  2.54016  55   -8.4  59    -15.1 0     0     1005.6   NA       0.0000   9999     0     0     0    
2019/08/16  22:51:02  BASE  1.57584  335  2.29908  29   -8.4  59    -15.1 0     0     1005.6   NA       0.0000   9999     0     0     0    
2019/08/16  22:52:03  BASE  1.65816  338  2.0286   2    -8.4  58    -15.1 0     0     1005.6   NA       0.0000   9999     0     0     0    
2019/08/16  22:53:02  BASE  1.55232  342  2.0286   2    -8.3  58    -15.1 0     0     1005.7   NA       0.0000   9999     0     0     0    
2019/08/16  22:54:03  BASE  1.49352  342  2.0286   2    -8.3  58    -15.2 0     0     1005.7   NA       0.0000   9999     0     0     0    
2019/08/16  22:55:02  BASE  1.5582   341  2.0286   2    -8.4  58    -15.2 0     0     1005.7   NA       0.0000   9999     0     0     0    
2019/08/16  22:56:03  BASE  1.61112  342  2.0286   2    -8.4  58    -15.2 0     0     1005.7   NA       0.0000   9999     0     0     0    
2019/08/16  22:57:03  BASE  1.18776  333  1.9992   331  -8.5  58    -15.3 0     0     1005.8   NA       0.0000   9999     0     0     0    
2019/08/16  22:58:03  BASE  0.3528   349  1.9992   331  -8.6  59    -15.3 0     0     1005.8   NA       0.0000   9999     0     0     0    
2019/08/16  22:59:02  BASE  0.0294   344  1.96392  336  -8.8  59    -15.3 0     0     1005.9   NA       0.0000   9999     0     0     0    
2019/08/16  23:00:03  BASE  0.0294   309  1.96392  336  -8.9  59    -15.4 0     0     1005.9   NA       0.0000   9999     0     0     0    
2019/08/16  23:01:02  BASE  0        302  1.96392  336  -9.0  60    -15.3 0     0     1005.9   NA       0.0000   9999     0     0     0    
2019/08/16  23:02:03  BASE  0        301  1.87572  343  -9.0  60    -15.3 0     0     1005.9   NA       0.0000   9999     0     0     0    
2019/08/16  23:03:03  BASE  0        301  1.87572  343  -9.0  60    -15.2 0     0     1005.9   NA       0.0000   9999     0     0     0    
2019/08/16  23:04:04  BASE  0        341  1.87572  343  -8.9  60    -15.2 0     0     1005.9   NA       0.0000   9999     0     0     0    
2019/08/16  23:05:03  BASE  0.12936  0    1.87572  343  -8.8  60    -15.1 0     0     1005.9   NA       0.0000   9999     0     0     0    
2019/08/16  23:06:02  BASE  0.51156  325  1.69344  325  -8.6  60    -15.0 0     0     1005.9   NA       0.0000   9999     0     0     0    
2019/08/16  23:07:03  BASE  0.97608  318  1.69344  325  -8.4  60    -14.9 0     0     1005.9   NA       0.0000   9999     0     0     0    
2019/08/16  23:08:02  BASE  0.91728  324  1.69344  325  -8.3  59    -14.8 0     0     1005.9   NA       0.0000   9999     0     0     0    
2019/08/16  23:09:03  BASE  0.88788  346  1.69344  325  -8.2  59    -14.8 0     0     1005.9   NA       0.0000   9999     0     0     0    
2019/08/16  23:10:03  BASE  1.48176  353  2.35788  2    -8.2  58    -14.9 0     0     1005.9   NA       0.0000   9999     0     0     0    
2019/08/16  23:11:03  BASE  2.24616  356  2.99292  5    -8.2  58    -14.9 0     0     1005.9   NA       0.0000   9999     0     0     0    
2019/08/16  23:12:03  BASE  2.2932   356  2.99292  5    -8.3  58    -15.0 0     0     1005.9   NA       0.0000   9999     0     0     0    
2019/08/16  23:13:02  BASE  1.71696  348  2.99292  5    -8.3  59    -15.0 0     0     1005.9   NA       0.0000   9999     0     0     0    
2019/08/16  23:14:03  BASE  1.44648  346  2.99292  5    -8.3  59    -14.8 0     0     1006.0   NA       0.0000   9999     0     0     0    
2019/08/16  23:15:03  BASE  1.38768  343  2.99292  5    -8.2  60    -14.7 0     0     1006.1   NA       0.0000   9999     0     0     0    
2019/08/16  23:16:03  BASE  1.323    343  2.99292  5    -8.1  60    -14.5 0     0     1006.1   NA       0.0000   9999     0     0     0    
2019/08/16  23:17:03  BASE  1.37592  348  2.99292  5    -8.0  60    -14.4 0     0     1006.1   NA       0.0000   9999     0     0     0    
2019/08/16  23:18:02  BASE  1.37004  342  2.99292  5    -8.0  60    -14.4 0     0     1006.1   NA       0.0000   9999     0     0     0    
2019/08/16  23:19:03  BASE  1.04664  329  2.99292  5    -8.0  60    -14.4 0     0     1006.1   NA       0.0000   9999     0     0     0    
2019/08/16  23:20:02  BASE  0.735    325  2.99292  5    -8.1  60    -14.5 0     0     1006.2   NA       0.0000   9999     0     0     0    
2019/08/16  23:21:02  BASE  0.54684  339  2.24028  333  -8.3  60    -14.6 0     0     1006.3   NA       0.0000   9999     0     0     0    
2019/08/16  23:22:03  BASE  0.35868  6    1.72284  347  -8.4  61    -14.6 0     0     1006.3   NA       0.0000   9999     0     0     0    
2019/08/16  23:23:03  BASE  0.71148  19   1.69344  355  -8.4  62    -14.5 0     0     1006.3   NA       0.0000   9999     0     0     0    
2019/08/16  23:24:03  BASE  1.08192  20   1.69344  355  -8.5  62    -14.4 0     0     1006.4   NA       0.0000   9999     0     0     0    
2019/08/16  23:25:03  BASE  0.51156  31   1.69344  355  -8.5  63    -14.3 0     0     1006.4   NA       0.0000   9999     0     0     0    
2019/08/16  23:26:03  BASE  0.0294   43   1.69344  355  -8.4  63    -14.2 0     0     1006.4   NA       0.0000   9999     0     0     0    
2019/08/16  23:27:03  BASE  0        27   1.48176  11   -8.4  63    -14.2 0     0     1006.4   NA       0.0000   9999     0     0     0    
2019/08/16  23:28:03  BASE  0.1176   353  1.48176  11   -8.4  63    -14.2 0     0     1006.5   NA       0.0000   9999     0     0     0    
2019/08/16  23:29:02  BASE  0.56448  4    1.48176  11   -8.4  63    -14.3 0     0     1006.6   NA       0.0000   9999     0     0     0    
2019/08/16  23:30:03  BASE  1.15836  30   1.66404  32   -8.4  62    -14.4 0     0     1006.6   NA       0.0000   9999     0     0     0    
2019/08/16  23:31:02  BASE  1.37004  27   1.66404  32   -8.5  62    -14.5 0     0     1006.6   NA       0.0000   9999     0     0     0    
2019/08/16  23:32:02  BASE  1.48764  26   2.0286   36   -8.6  61    -14.7 0     0     1006.6   NA       0.0000   9999     0     0     0    
2019/08/16  23:33:02  BASE  1.89924  32   2.35788  28   -8.6  61    -14.7 0     0     1006.6   NA       0.0000   9999     0     0     0    
2019/08/16  23:34:02  BASE  1.9698   22   2.35788  28   -8.7  61    -14.8 0     0     1006.6   NA       0.0000   9999     0     0     0    
2019/08/16  23:35:03  BASE  1.84044  8    2.35788  28   -8.7  62    -14.8 0     0     1006.6   NA       0.0000   9999     0     0     0    
2019/08/16  23:36:03  BASE  1.97568  354  2.35788  28   -8.7  62    -14.7 0     0     1006.6   NA       0.0000   9999     0     0     0    
2019/08/16  23:37:03  BASE  1.8816   347  2.35788  28   -8.5  62    -14.5 0     0     1006.6   NA       0.0000   9999     0     0     0    
2019/08/16  23:38:03  BASE  1.72872  352  2.35788  28   -8.3  61    -14.4 0     0     1006.6   NA       0.0000   9999     0     0     0    
2019/08/16  23:39:03  BASE  1.71108  350  2.35788  28   -8.2  61    -14.4 0     0     1006.6   NA       0.0000   9999     0     0     0    
2019/08/16  23:40:03  BASE  1.72284  344  2.35788  28   -8.1  60    -14.4 0     0     1006.7   NA       0.0000   9999     0     0     0    
2019/08/16  23:41:03  BASE  1.92276  337  2.35788  28   -8.1  60    -14.5 0     0     1006.7   NA       0.0000   9999     0     0     0    
2019/08/16  23:42:03  BASE  2.01684  333  2.35788  28   -8.2  60    -14.7 0     0     1006.8   NA       0.0000   9999     0     0     0    
2019/08/16  23:43:03  BASE  2.058    329  2.29908  336  -8.4  60    -14.8 0     0     1006.9   NA       0.0000   9999     0     0     0    
2019/08/16  23:44:03  BASE  2.06976  328  2.29908  336  -8.6  61    -14.7 0     0     1006.9   NA       0.0000   9999     0     0     0    
2019/08/16  23:45:03  BASE  1.911    326  2.29908  336  -8.7  62    -14.7 0     0     1006.9   NA       0.0000   9999     0     0     0    
2019/08/16  23:46:03  BASE  1.75224  328  2.26968  330  -8.8  63    -14.6 0     0     1006.9   NA       0.0000   9999     0     0     0    
2019/08/16  23:47:02  BASE  1.4112   351  2.26968  330  -8.9  63    -14.6 0     0     1006.9   NA       0.0000   9999     0     0     0    
2019/08/16  23:48:03  BASE  1.2936   38   2.26968  330  -9.0  64    -14.6 0     0     1006.9   NA       0.0000   9999     0     0     0    
2019/08/16  23:49:03  BASE  1.7934   54   2.54016  45   -9.0  63    -14.7 0     0     1006.9   NA       0.0000   9999     0     0     0    
2019/08/16  23:50:03  BASE  2.13444  48   2.56956  41   -9.0  63    -14.7 0     0     1006.9   NA       0.0000   9999     0     0     0    
2019/08/16  23:51:02  BASE  2.47548  46   3.29868  41   -9.0  63    -14.8 0     0     1006.9   NA       0.0000   9999     0     0     0    
2019/08/16  23:52:03  BASE  2.38728  42   3.29868  41   -9.0  63    -14.8 0     0     1006.9   NA       0.0000   9999     0     0     0    
2019/08/16  23:53:03  BASE  2.07564  37   3.29868  41   -9.0  62    -14.9 0     0     1007.0   NA       0.0000   9999     0     0     0    
2019/08/16  23:54:03  BASE  2.3814   26   3.29868  41   -9.0  62    -14.9 0     0     1007.0   NA       0.0000   9999     0     0     0    
2019/08/16  23:55:03  BASE  2.8518   13   3.48096  6    -9.0  62    -14.9 0     0     1007.1   NA       0.0000   9999     0     0     0    
2019/08/16  23:56:03  BASE  3.13992  4    3.59856  6    -8.8  62    -14.7 0     0     1007.1   NA       0.0000   9999     0     0     0    
2019/08/16  23:57:03  BASE  2.89884  352  3.59856  6    -8.5  62    -14.4 0     0     1007.1   NA       0.0000   9999     0     0     0    
2019/08/16  23:58:03  BASE  2.31672  345  3.59856  6    -8.2  62    -14.2 0     0     1007.1   NA       0.0000   9999     0     0     0    
2019/08/16  23:59:03  BASE  1.7934   340  3.59856  6    -8.0  62    -14.0 0     0     1007.2   NA       0.0000   9999     0     0     0